GFSWCAN_prec_precacc24_078.txt.gz
Total_Precipitation_Accumulation
0.24 0.21 0.07 0.03 0.02 0.01 0.01 0.01 0.01 0.00 0.00 0.00 0.00 0.00 0.00 0.00 0.00 0.00 0.00 0.00 0.00 0.00 0.00 0.00 0.00 0.00 0.00 0.00 0.03 0.05 0.11 0.15 0.17 0.33 0.33 0.20 0.06 0.01 0.00 0.00 0.00 0.01 0.02 0.04 0.03 0.04 0.00 0.00 0.00 0.01 0.01 0.00 0.00 0.00
0.32 0.21 0.07 0.03 0.02 0.03 0.03 0.03 0.02 0.01 0.00 0.01 0.01 0.01 0.01 0.02 0.02 0.03 0.01 0.00 0.00 0.02 0.00 0.00 0.00 0.00 0.00 0.01 0.03 0.05 0.10 0.15 0.31 0.33 0.35 0.28 0.16 0.06 0.01 0.00 0.00 0.00 0.00 0.00 0.00 0.00 0.00 0.00 0.00 0.00 0.00 0.00 0.00 0.00
0.26 0.24 0.12 0.04 0.04 0.04 0.03 0.03 0.03 0.02 0.01 0.02 0.02 0.01 0.02 0.03 0.03 0.05 0.02 0.01 0.02 0.05 0.01 0.00 0.00 0.00 0.00 0.00 0.01 0.06 0.04 0.12 0.28 0.36 0.32 0.22 0.17 0.13 0.05 0.01 0.00 0.00 0.00 0.00 0.00 0.00 0.00 0.00 0.00 0.00 0.00 0.00 0.00 0.00
0.23 0.18 0.10 0.07 0.04 0.03 0.03 0.03 0.04 0.03 0.02 0.03 0.04 0.04 0.04 0.03 0.04 0.08 0.06 0.03 0.04 0.10 0.14 0.00 0.00 0.00 0.01 0.01 0.01 0.02 0.00 0.05 0.13 0.23 0.31 0.24 0.15 0.12 0.08 0.03 0.01 0.00 0.00 0.00 0.00 0.00 0.00 0.00 0.00 0.00 0.00 0.00 0.00 0.00
0.23 0.11 0.09 0.07 0.05 0.03 0.02 0.03 0.04 0.04 0.04 0.05 0.05 0.05 0.07 0.07 0.08 0.08 0.04 0.03 0.04 0.10 0.11 0.03 0.04 0.00 0.02 0.03 0.04 0.06 0.02 0.03 0.12 0.23 0.27 0.22 0.15 0.14 0.05 0.02 0.01 0.00 0.00 0.00 0.00 0.00 0.00 0.00 0.00 0.00 0.00 0.00 0.00 0.00
0.32 0.18 0.10 0.08 0.06 0.04 0.03 0.03 0.03 0.03 0.03 0.05 0.06 0.09 0.11 0.15 0.13 0.05 0.04 0.01 0.03 0.09 0.25 0.17 0.17 0.07 0.05 0.11 0.05 0.09 0.15 0.10 0.23 0.38 0.22 0.13 0.10 0.27 0.16 0.06 0.00 0.00 0.00 0.00 0.00 0.00 0.00 0.00 0.00 0.00 0.00 0.00 0.00 0.00
0.19 0.14 0.09 0.09 0.06 0.05 0.06 0.06 0.06 0.06 0.08 0.08 0.10 0.10 0.12 0.13 0.09 0.05 0.03 0.04 0.01 0.04 0.23 0.40 0.42 0.16 0.11 0.43 0.16 0.19 0.33 0.38 0.34 0.40 0.25 0.13 0.12 0.38 0.32 0.06 0.00 0.00 0.00 0.00 0.00 0.00 0.00 0.00 0.00 0.00 0.00 0.00 0.00 0.00
0.15 0.13 0.12 0.10 0.06 0.05 0.06 0.06 0.06 0.07 0.07 0.10 0.12 0.11 0.14 0.16 0.14 0.08 0.03 0.05 0.04 0.12 0.28 0.45 0.52 0.46 0.37 0.65 0.37 0.36 0.43 0.48 0.49 0.36 0.23 0.14 0.16 0.22 0.14 0.00 0.00 0.00 0.00 0.00 0.00 0.00 0.00 0.00 0.00 0.00 0.00 0.00 0.00 0.00
0.11 0.10 0.09 0.07 0.07 0.07 0.07 0.07 0.08 0.10 0.12 0.16 0.19 0.20 0.16 0.11 0.06 0.04 0.06 0.09 0.13 0.21 0.28 0.34 0.35 0.60 0.40 0.65 0.50 0.42 0.50 0.57 0.40 0.36 0.17 0.27 0.25 0.22 0.03 0.00 0.00 0.00 0.00 0.00 0.00 0.00 0.00 0.00 0.00 0.00 0.00 0.00 0.00 0.00
0.14 0.12 0.12 0.13 0.13 0.13 0.12 0.13 0.16 0.22 0.26 0.26 0.13 0.08 0.09 0.07 0.09 0.19 0.22 0.31 0.38 0.39 0.27 0.16 0.23 0.32 0.36 0.44 0.59 0.43 0.53 0.47 0.33 0.18 0.20 0.21 0.09 0.00 0.00 0.00 0.00 0.00 0.00 0.00 0.00 0.00 0.00 0.00 0.00 0.00 0.00 0.00 0.00 0.00
0.27 0.25 0.21 0.20 0.22 0.23 0.25 0.26 0.29 0.26 0.26 0.16 0.08 0.11 0.18 0.32 0.31 0.27 0.27 0.21 0.19 0.15 0.08 0.03 0.12 0.23 0.32 0.53 0.64 0.48 0.78 0.46 0.71 0.25 0.24 0.30 0.16 0.02 0.00 0.00 0.00 0.00 0.00 0.00 0.00 0.00 0.00 0.00 0.00 0.00 0.00 0.00 0.00 0.00
0.23 0.25 0.29 0.38 0.37 0.29 0.29 0.34 0.44 0.30 0.18 0.10 0.09 0.16 0.23 0.41 0.35 0.31 0.22 0.10 0.09 0.02 0.02 0.09 0.19 0.30 0.28 0.45 0.39 0.26 0.46 0.43 0.38 0.14 0.18 0.29 0.28 0.13 0.02 0.00 0.00 0.00 0.00 0.00 0.00 0.00 0.00 0.00 0.00 0.00 0.00 0.00 0.00 0.00
0.26 0.23 0.26 0.30 0.40 0.43 0.31 0.35 0.29 0.18 0.21 0.27 0.22 0.32 0.28 0.36 0.36 0.20 0.09 0.05 0.02 0.01 0.09 0.26 0.33 0.38 0.38 0.43 0.31 0.19 0.13 0.16 0.16 0.18 0.13 0.07 0.05 0.03 0.03 0.01 0.00 0.00 0.03 0.12 0.12 0.06 0.03 0.02 0.02 0.01 0.01 0.01 0.01 0.01
0.40 0.39 0.29 0.27 0.22 0.30 0.29 0.41 0.21 0.15 0.19 0.18 0.11 0.20 0.16 0.20 0.04 0.01 0.00 0.01 0.01 0.04 0.09 0.12 0.37 0.40 0.28 0.32 0.30 0.20 0.10 0.07 0.06 0.03 0.02 0.01 0.00 0.00 0.00 0.00 0.05 0.08 0.07 0.09 0.10 0.11 0.13 0.17 0.19 0.15 0.10 0.07 0.03 0.02
0.41 0.52 0.46 0.30 0.22 0.29 0.41 0.45 0.32 0.17 0.12 0.06 0.05 0.06 0.06 0.01 0.01 0.00 0.03 0.03 0.01 0.01 0.01 0.06 0.31 0.25 0.26 0.29 0.20 0.11 0.08 0.06 0.03 0.03 0.01 0.00 0.00 0.00 0.00 0.07 0.24 0.16 0.09 0.03 0.01 0.01 0.01 0.02 0.05 0.07 0.05 0.06 0.06 0.06
0.47 0.58 0.53 0.37 0.35 0.50 0.59 0.36 0.28 0.19 0.19 0.08 0.04 0.02 0.01 0.01 0.01 0.02 0.03 0.05 0.04 0.05 0.13 0.21 0.24 0.17 0.15 0.14 0.10 0.08 0.08 0.04 0.07 0.04 0.00 0.00 0.00 0.00 0.01 0.06 0.14 0.09 0.01 0.00 0.00 0.00 0.00 0.00 0.00 0.00 0.00 0.01 0.03 0.06
0.30 0.32 0.47 0.39 0.52 0.72 0.40 0.18 0.24 0.14 0.07 0.06 0.01 0.00 0.01 0.02 0.02 0.02 0.04 0.06 0.08 0.11 0.22 0.36 0.29 0.16 0.12 0.07 0.02 0.02 0.04 0.05 0.04 0.02 0.00 0.00 0.00 0.00 0.00 0.04 0.10 0.03 0.00 0.00 0.00 0.00 0.00 0.00 0.00 0.00 0.00 0.00 0.00 0.00
0.14 0.27 0.37 0.33 0.31 0.29 0.37 0.22 0.15 0.10 0.05 0.00 0.00 0.00 0.00 0.01 0.04 0.03 0.04 0.11 0.20 0.24 0.22 0.37 0.16 0.07 0.05 0.06 0.03 0.02 0.01 0.00 0.01 0.00 0.00 0.00 0.00 0.00 0.00 0.02 0.04 0.01 0.00 0.00 0.00 0.00 0.00 0.00 0.00 0.00 0.00 0.00 0.00 0.00
0.20 0.23 0.25 0.21 0.10 0.08 0.25 0.25 0.15 0.09 0.00 0.00 0.00 0.00 0.00 0.00 0.00 0.01 0.01 0.05 0.17 0.26 0.32 0.29 0.19 0.06 0.00 0.02 0.04 0.02 0.01 0.01 0.01 0.00 0.00 0.00 0.00 0.00 0.00 0.00 0.00 0.00 0.00 0.00 0.00 0.00 0.00 0.00 0.00 0.00 0.00 0.00 0.00 0.00
0.35 0.44 0.42 0.23 0.07 0.07 0.09 0.15 0.09 0.04 0.02 0.00 0.01 0.00 0.00 0.00 0.00 0.00 0.00 0.00 0.01 0.06 0.12 0.09 0.03 0.00 0.01 0.01 0.00 0.00 0.00 0.00 0.00 0.00 0.00 0.00 0.00 0.00 0.00 0.00 0.00 0.00 0.00 0.00 0.00 0.00 0.00 0.00 0.00 0.00 0.00 0.00 0.00 0.00
0.32 0.49 0.49 0.29 0.23 0.12 0.06 0.07 0.06 0.05 0.05 0.05 0.07 0.07 0.04 0.01 0.00 0.00 0.00 0.00 0.01 0.00 0.00 0.00 0.00 0.00 0.00 0.01 0.02 0.00 0.00 0.00 0.00 0.00 0.00 0.00 0.00 0.00 0.00 0.00 0.00 0.00 0.00 0.00 0.00 0.00 0.00 0.00 0.00 0.00 0.00 0.00 0.00 0.00
0.22 0.26 0.28 0.38 0.35 0.17 0.07 0.05 0.05 0.06 0.06 0.08 0.09 0.09 0.07 0.05 0.05 0.03 0.02 0.02 0.01 0.00 0.00 0.00 0.00 0.00 0.00 0.00 0.00 0.00 0.00 0.00 0.00 0.00 0.00 0.00 0.00 0.00 0.00 0.00 0.00 0.00 0.00 0.00 0.00 0.00 0.00 0.00 0.00 0.00 0.00 0.00 0.00 0.00
0.24 0.23 0.26 0.26 0.18 0.09 0.09 0.03 0.02 0.02 0.02 0.05 0.07 0.09 0.09 0.09 0.07 0.07 0.06 0.01 0.00 0.00 0.00 0.00 0.00 0.00 0.00 0.00 0.00 0.00 0.00 0.00 0.00 0.00 0.00 0.00 0.00 0.00 0.00 0.00 0.00 0.00 0.00 0.00 0.00 0.00 0.00 0.00 0.00 0.00 0.00 0.00 0.00 0.00
0.13 0.23 0.21 0.14 0.08 0.07 0.04 0.01 0.01 0.01 0.01 0.01 0.01 0.02 0.03 0.05 0.05 0.06 0.05 0.01 0.00 0.00 0.00 0.00 0.00 0.00 0.00 0.00 0.00 0.00 0.00 0.00 0.00 0.00 0.00 0.00 0.00 0.00 0.00 0.00 0.00 0.00 0.00 0.00 0.00 0.00 0.00 0.00 0.00 0.00 0.00 0.00 0.00 0.00
0.15 0.18 0.11 0.08 0.03 0.01 0.00 0.00 0.00 0.00 0.01 0.01 0.01 0.00 0.00 0.00 0.00 0.02 0.02 0.00 0.00 0.00 0.00 0.00 0.00 0.00 0.00 0.00 0.00 0.00 0.00 0.00 0.00 0.00 0.00 0.00 0.00 0.00 0.00 0.00 0.00 0.00 0.00 0.00 0.00 0.00 0.00 0.00 0.00 0.00 0.00 0.00 0.00 0.00
0.04 0.04 0.02 0.01 0.00 0.00 0.00 0.00 0.00 0.00 0.00 0.01 0.00 0.00 0.00 0.00 0.00 0.00 0.00 0.00 0.00 0.00 0.00 0.00 0.00 0.00 0.00 0.00 0.00 0.00 0.00 0.00 0.00 0.00 0.00 0.00 0.00 0.00 0.00 0.00 0.00 0.00 0.00 0.00 0.00 0.00 0.00 0.00 0.00 0.00 0.00 0.00 0.00 0.00
0.00 0.01 0.01 0.00 0.00 0.00 0.00 0.00 0.00 0.01 0.00 0.00 0.00 0.00 0.00 0.00 0.00 0.00 0.00 0.00 0.00 0.00 0.00 0.00 0.00 0.00 0.00 0.00 0.00 0.00 0.00 0.00 0.00 0.00 0.00 0.00 0.00 0.00 0.00 0.00 0.00 0.00 0.00 0.00 0.00 0.00 0.00 0.00 0.00 0.00 0.00 0.00 0.00 0.00
0.00 0.00 0.00 0.00 0.01 0.01 0.01 0.01 0.00 0.00 0.00 0.00 0.00 0.00 0.00 0.00 0.00 0.00 0.00 0.00 0.00 0.00 0.00 0.00 0.00 0.00 0.00 0.00 0.00 0.00 0.00 0.00 0.00 0.00 0.00 0.00 0.00 0.00 0.00 0.00 0.00 0.00 0.00 0.00 0.00 0.00 0.00 0.00 0.00 0.00 0.00 0.00 0.00 0.00
0.00 0.00 0.00 0.01 0.02 0.01 0.00 0.00 0.00 0.00 0.00 0.00 0.00 0.00 0.00 0.00 0.00 0.00 0.00 0.00 0.00 0.00 0.00 0.00 0.00 0.00 0.00 0.00 0.00 0.00 0.00 0.00 0.00 0.00 0.00 0.00 0.00 0.00 0.00 0.00 0.00 0.00 0.00 0.00 0.00 0.00 0.00 0.00 0.01 0.02 0.02 0.02 0.01 0.00
0.00 0.00 0.00 0.00 0.00 0.00 0.00 0.00 0.00 0.00 0.00 0.00 0.00 0.00 0.00 0.00 0.00 0.00 0.00 0.00 0.00 0.00 0.00 0.00 0.00 0.00 0.00 0.00 0.00 0.00 0.00 0.00 0.00 0.00 0.00 0.00 0.00 0.00 0.00 0.00 0.00 0.00 0.00 0.00 0.00 0.00 0.00 0.00 0.00 0.00 0.01 0.02 0.01 0.01
0.00 0.00 0.00 0.00 0.00 0.00 0.00 0.00 0.00 0.00 0.00 0.00 0.00 0.00 0.00 0.00 0.00 0.00 0.00 0.00 0.00 0.00 0.00 0.00 0.00 0.00 0.00 0.00 0.00 0.00 0.00 0.00 0.00 0.00 0.00 0.00 0.00 0.00 0.00 0.00 0.00 0.00 0.00 0.00 0.00 0.00 0.00 0.00 0.01 0.01 0.01 0.00 0.00 0.00
0.00 0.00 0.00 0.00 0.00 0.00 0.00 0.00 0.00 0.00 0.00 0.00 0.00 0.00 0.00 0.00 0.00 0.00 0.00 0.00 0.00 0.00 0.00 0.00 0.00 0.00 0.00 0.00 0.00 0.00 0.00 0.00 0.00 0.00 0.00 0.00 0.00 0.00 0.00 0.00 0.00 0.00 0.00 0.00 0.00 0.01 0.01 0.01 0.01 0.01 0.01 0.00 0.00 0.00
0.01 0.01 0.00 0.00 0.00 0.00 0.00 0.00 0.00 0.00 0.00 0.00 0.00 0.00 0.00 0.00 0.00 0.00 0.00 0.00 0.00 0.00 0.00 0.00 0.00 0.00 0.00 0.00 0.00 0.00 0.00 0.00 0.00 0.00 0.00 0.00 0.00 0.01 0.01 0.01 0.01 0.00 0.01 0.01 0.01 0.01 0.02 0.02 0.02 0.01 0.01 0.01 0.01 0.01

GFSWCAN_prec_precacc24_081.txt.gz
Total_Precipitation_Accumulation
0.45 0.45 0.22 0.13 0.06 0.01 0.01 0.01 0.01 0.00 0.00 0.00 0.00 0.00 0.00 0.00 0.00 0.00 0.00 0.00 0.00 0.00 0.00 0.00 0.00 0.00 0.00 0.00 0.03 0.05 0.11 0.15 0.17 0.34 0.44 0.28 0.09 0.02 0.01 0.00 0.00 0.01 0.03 0.06 0.05 0.06 0.01 0.00 0.00 0.01 0.01 0.00 0.00 0.00
0.62 0.54 0.27 0.13 0.08 0.04 0.03 0.03 0.02 0.01 0.00 0.00 0.00 0.00 0.01 0.01 0.02 0.03 0.01 0.00 0.00 0.02 0.00 0.00 0.00 0.00 0.00 0.01 0.03 0.05 0.10 0.15 0.31 0.34 0.36 0.32 0.26 0.22 0.08 0.05 0.02 0.01 0.00 0.00 0.00 0.00 0.00 0.00 0.00 0.00 0.00 0.00 0.00 0.00
0.52 0.61 0.45 0.13 0.08 0.06 0.05 0.04 0.03 0.02 0.01 0.01 0.01 0.01 0.02 0.02 0.03 0.05 0.02 0.01 0.02 0.05 0.01 0.00 0.00 0.00 0.00 0.00 0.01 0.07 0.04 0.12 0.28 0.36 0.32 0.23 0.19 0.17 0.11 0.10 0.05 0.02 0.00 0.00 0.00 0.00 0.00 0.00 0.00 0.00 0.00 0.00 0.00 0.00
0.43 0.54 0.44 0.20 0.06 0.03 0.04 0.04 0.04 0.03 0.02 0.03 0.03 0.04 0.03 0.03 0.04 0.06 0.06 0.03 0.04 0.09 0.14 0.00 0.00 0.00 0.00 0.00 0.01 0.02 0.00 0.05 0.13 0.23 0.31 0.24 0.15 0.12 0.08 0.04 0.03 0.01 0.00 0.00 0.00 0.00 0.00 0.00 0.00 0.00 0.00 0.00 0.00 0.00
0.47 0.52 0.50 0.23 0.07 0.04 0.03 0.04 0.04 0.03 0.04 0.04 0.04 0.06 0.08 0.08 0.09 0.07 0.05 0.03 0.04 0.11 0.09 0.02 0.00 0.00 0.00 0.00 0.01 0.05 0.02 0.03 0.13 0.23 0.28 0.22 0.15 0.14 0.05 0.03 0.01 0.00 0.00 0.00 0.00 0.00 0.00 0.00 0.00 0.00 0.00 0.00 0.00 0.00
0.55 0.54 0.58 0.32 0.12 0.08 0.05 0.04 0.03 0.03 0.03 0.03 0.06 0.09 0.12 0.16 0.12 0.06 0.05 0.01 0.03 0.09 0.21 0.06 0.00 0.02 0.02 0.04 0.04 0.08 0.14 0.10 0.24 0.37 0.22 0.12 0.10 0.27 0.14 0.06 0.00 0.00 0.00 0.00 0.00 0.00 0.00 0.00 0.00 0.00 0.00 0.00 0.00 0.00
0.44 0.51 0.47 0.34 0.21 0.12 0.08 0.07 0.06 0.07 0.07 0.08 0.10 0.10 0.12 0.12 0.08 0.05 0.02 0.02 0.01 0.02 0.11 0.16 0.17 0.09 0.08 0.40 0.15 0.18 0.33 0.38 0.34 0.40 0.25 0.13 0.12 0.40 0.32 0.06 0.00 0.00 0.00 0.00 0.00 0.00 0.00 0.00 0.00 0.00 0.00 0.00 0.00 0.00
0.46 0.50 0.37 0.21 0.19 0.12 0.07 0.06 0.06 0.07 0.07 0.10 0.12 0.11 0.13 0.15 0.14 0.08 0.03 0.04 0.01 0.04 0.10 0.21 0.26 0.35 0.30 0.60 0.35 0.35 0.42 0.49 0.49 0.36 0.23 0.14 0.15 0.18 0.11 0.00 0.00 0.00 0.00 0.00 0.00 0.00 0.00 0.00 0.00 0.00 0.00 0.00 0.00 0.00
0.46 0.45 0.29 0.14 0.10 0.08 0.08 0.08 0.08 0.09 0.11 0.16 0.19 0.20 0.16 0.11 0.06 0.03 0.04 0.06 0.05 0.10 0.18 0.27 0.30 0.50 0.38 0.63 0.50 0.42 0.52 0.58 0.40 0.36 0.16 0.24 0.23 0.21 0.03 0.00 0.00 0.00 0.00 0.00 0.00 0.00 0.00 0.00 0.00 0.00 0.00 0.00 0.00 0.00
0.39 0.33 0.19 0.14 0.12 0.13 0.12 0.13 0.16 0.22 0.26 0.26 0.13 0.07 0.07 0.04 0.05 0.12 0.15 0.25 0.31 0.34 0.22 0.13 0.22 0.28 0.34 0.42 0.57 0.38 0.49 0.45 0.31 0.17 0.18 0.20 0.09 0.00 0.00 0.00 0.00 0.00 0.00 0.00 0.00 0.00 0.00 0.00 0.00 0.00 0.00 0.00 0.00 0.00
0.33 0.30 0.20 0.18 0.20 0.23 0.25 0.26 0.29 0.27 0.26 0.17 0.09 0.10 0.16 0.28 0.24 0.22 0.24 0.19 0.18 0.14 0.07 0.03 0.12 0.22 0.30 0.50 0.58 0.48 0.78 0.43 0.71 0.26 0.24 0.32 0.24 0.13 0.00 0.00 0.00 0.00 0.00 0.00 0.00 0.00 0.00 0.00 0.00 0.00 0.00 0.00 0.00 0.00
0.21 0.21 0.26 0.35 0.36 0.29 0.28 0.34 0.45 0.30 0.18 0.10 0.09 0.15 0.21 0.37 0.32 0.28 0.20 0.10 0.09 0.02 0.02 0.09 0.19 0.30 0.28 0.46 0.40 0.27 0.48 0.46 0.40 0.17 0.20 0.35 0.44 0.28 0.06 0.00 0.00 0.00 0.00 0.00 0.00 0.00 0.00 0.00 0.00 0.00 0.00 0.00 0.00 0.00
0.16 0.14 0.22 0.29 0.40 0.43 0.31 0.35 0.30 0.18 0.21 0.27 0.22 0.28 0.25 0.32 0.33 0.18 0.07 0.04 0.02 0.01 0.09 0.26 0.33 0.38 0.39 0.47 0.32 0.21 0.16 0.20 0.21 0.20 0.15 0.14 0.10 0.09 0.13 0.06 0.00 0.00 0.01 0.02 0.03 0.03 0.02 0.02 0.01 0.01 0.01 0.01 0.01 0.01
0.27 0.31 0.25 0.27 0.23 0.31 0.31 0.41 0.23 0.16 0.19 0.18 0.10 0.17 0.13 0.16 0.04 0.01 0.00 0.01 0.01 0.04 0.09 0.12 0.32 0.39 0.28 0.34 0.32 0.22 0.12 0.10 0.09 0.04 0.02 0.02 0.01 0.01 0.02 0.07 0.11 0.11 0.07 0.08 0.10 0.10 0.10 0.12 0.15 0.12 0.09 0.07 0.03 0.02
0.32 0.47 0.44 0.31 0.24 0.31 0.43 0.47 0.33 0.18 0.12 0.06 0.04 0.05 0.06 0.01 0.01 0.00 0.03 0.03 0.01 0.01 0.01 0.06 0.29 0.26 0.27 0.31 0.22 0.13 0.09 0.08 0.05 0.04 0.01 0.00 0.01 0.01 0.01 0.10 0.31 0.21 0.12 0.04 0.01 0.02 0.03 0.04 0.03 0.03 0.02 0.04 0.04 0.04
0.42 0.54 0.53 0.38 0.36 0.51 0.59 0.36 0.28 0.19 0.19 0.08 0.04 0.02 0.01 0.01 0.01 0.02 0.03 0.05 0.04 0.05 0.12 0.20 0.24 0.18 0.18 0.16 0.12 0.10 0.10 0.06 0.08 0.04 0.00 0.00 0.01 0.02 0.05 0.16 0.26 0.15 0.05 0.01 0.00 0.00 0.00 0.00 0.00 0.00 0.00 0.00 0.00 0.00
0.28 0.35 0.48 0.39 0.54 0.70 0.38 0.18 0.23 0.14 0.07 0.06 0.01 0.00 0.01 0.02 0.02 0.02 0.04 0.06 0.08 0.09 0.19 0.35 0.29 0.16 0.14 0.10 0.02 0.03 0.06 0.05 0.04 0.02 0.00 0.00 0.00 0.02 0.07 0.13 0.18 0.09 0.04 0.02 0.00 0.00 0.00 0.00 0.00 0.00 0.00 0.00 0.00 0.00
0.17 0.28 0.35 0.32 0.31 0.28 0.34 0.22 0.14 0.10 0.05 0.00 0.00 0.00 0.00 0.01 0.04 0.03 0.04 0.11 0.20 0.23 0.19 0.33 0.15 0.07 0.05 0.06 0.03 0.03 0.02 0.00 0.01 0.00 0.00 0.00 0.00 0.00 0.02 0.08 0.12 0.08 0.03 0.00 0.00 0.00 0.00 0.00 0.00 0.00 0.00 0.00 0.00 0.00
0.20 0.21 0.22 0.21 0.10 0.08 0.23 0.24 0.16 0.10 0.01 0.00 0.00 0.00 0.00 0.00 0.00 0.01 0.01 0.05 0.17 0.25 0.30 0.26 0.18 0.06 0.00 0.02 0.04 0.02 0.01 0.01 0.01 0.00 0.00 0.00 0.00 0.00 0.00 0.00 0.00 0.01 0.00 0.00 0.00 0.00 0.00 0.00 0.00 0.00 0.00 0.00 0.00 0.00
0.33 0.42 0.40 0.22 0.07 0.06 0.08 0.14 0.08 0.02 0.00 0.00 0.00 0.00 0.00 0.00 0.00 0.00 0.00 0.00 0.01 0.07 0.12 0.08 0.03 0.00 0.01 0.01 0.00 0.00 0.00 0.00 0.00 0.00 0.00 0.00 0.00 0.00 0.00 0.00 0.00 0.00 0.00 0.00 0.00 0.00 0.00 0.00 0.00 0.00 0.00 0.00 0.00 0.00
0.30 0.51 0.56 0.32 0.25 0.12 0.04 0.04 0.02 0.02 0.01 0.02 0.02 0.03 0.02 0.00 0.00 0.00 0.00 0.00 0.02 0.01 0.00 0.00 0.00 0.00 0.00 0.01 0.02 0.00 0.00 0.00 0.00 0.00 0.00 0.00 0.00 0.00 0.00 0.00 0.00 0.00 0.00 0.00 0.00 0.00 0.00 0.00 0.00 0.00 0.00 0.00 0.00 0.00
0.26 0.35 0.38 0.52 0.44 0.19 0.06 0.04 0.04 0.04 0.03 0.04 0.05 0.05 0.04 0.03 0.03 0.03 0.02 0.03 0.01 0.00 0.00 0.00 0.00 0.00 0.00 0.00 0.00 0.00 0.00 0.00 0.00 0.00 0.00 0.00 0.00 0.00 0.00 0.00 0.00 0.00 0.00 0.00 0.00 0.00 0.00 0.00 0.00 0.00 0.00 0.00 0.00 0.00
0.26 0.25 0.31 0.37 0.24 0.11 0.12 0.05 0.03 0.02 0.02 0.04 0.06 0.06 0.07 0.07 0.07 0.06 0.05 0.01 0.00 0.00 0.00 0.00 0.00 0.00 0.00 0.00 0.00 0.00 0.00 0.00 0.00 0.00 0.00 0.00 0.00 0.00 0.00 0.00 0.00 0.00 0.00 0.00 0.00 0.00 0.00 0.00 0.00 0.00 0.00 0.00 0.00 0.00
0.15 0.28 0.26 0.20 0.11 0.10 0.07 0.04 0.02 0.01 0.01 0.01 0.01 0.02 0.03 0.05 0.05 0.06 0.05 0.01 0.00 0.00 0.00 0.00 0.00 0.00 0.00 0.00 0.00 0.00 0.00 0.00 0.00 0.00 0.00 0.00 0.00 0.00 0.00 0.00 0.00 0.00 0.00 0.00 0.00 0.00 0.00 0.00 0.00 0.00 0.00 0.00 0.00 0.00
0.19 0.24 0.15 0.11 0.05 0.02 0.01 0.01 0.00 0.01 0.01 0.01 0.01 0.00 0.00 0.01 0.00 0.02 0.02 0.00 0.00 0.00 0.00 0.00 0.00 0.00 0.00 0.00 0.00 0.00 0.00 0.00 0.00 0.00 0.00 0.00 0.00 0.00 0.00 0.00 0.00 0.00 0.00 0.00 0.00 0.00 0.00 0.00 0.00 0.00 0.00 0.00 0.00 0.00
0.05 0.05 0.03 0.02 0.01 0.00 0.00 0.00 0.00 0.00 0.00 0.01 0.00 0.00 0.00 0.00 0.00 0.00 0.00 0.00 0.00 0.00 0.00 0.00 0.00 0.00 0.00 0.00 0.00 0.00 0.00 0.00 0.00 0.00 0.00 0.00 0.00 0.00 0.00 0.00 0.00 0.00 0.00 0.00 0.00 0.00 0.00 0.00 0.00 0.00 0.00 0.00 0.00 0.00
0.00 0.01 0.00 0.00 0.00 0.00 0.00 0.00 0.00 0.01 0.00 0.00 0.00 0.00 0.00 0.00 0.00 0.00 0.00 0.00 0.00 0.00 0.00 0.00 0.00 0.00 0.00 0.00 0.00 0.00 0.00 0.00 0.00 0.00 0.00 0.00 0.00 0.00 0.00 0.00 0.00 0.00 0.00 0.00 0.00 0.00 0.00 0.00 0.00 0.00 0.00 0.00 0.00 0.00
0.00 0.00 0.00 0.00 0.01 0.01 0.01 0.01 0.00 0.00 0.00 0.00 0.00 0.00 0.00 0.00 0.00 0.00 0.00 0.00 0.00 0.00 0.00 0.00 0.00 0.00 0.00 0.00 0.00 0.00 0.00 0.00 0.00 0.00 0.00 0.00 0.00 0.00 0.00 0.00 0.00 0.00 0.00 0.00 0.00 0.00 0.00 0.00 0.00 0.00 0.00 0.00 0.00 0.00
0.00 0.00 0.00 0.01 0.02 0.01 0.00 0.00 0.00 0.00 0.00 0.00 0.00 0.00 0.00 0.00 0.00 0.00 0.00 0.00 0.00 0.00 0.00 0.00 0.00 0.00 0.00 0.00 0.00 0.00 0.00 0.00 0.00 0.00 0.00 0.00 0.00 0.00 0.00 0.00 0.00 0.00 0.00 0.00 0.00 0.00 0.00 0.00 0.00 0.01 0.01 0.01 0.00 0.00
0.00 0.00 0.00 0.00 0.00 0.00 0.00 0.00 0.00 0.00 0.00 0.00 0.00 0.00 0.00 0.00 0.00 0.00 0.00 0.00 0.00 0.00 0.00 0.00 0.00 0.00 0.00 0.00 0.00 0.00 0.00 0.00 0.00 0.00 0.00 0.00 0.00 0.00 0.00 0.00 0.00 0.00 0.00 0.00 0.00 0.00 0.00 0.00 0.00 0.00 0.01 0.01 0.00 0.00
0.00 0.00 0.00 0.00 0.00 0.00 0.00 0.00 0.00 0.00 0.00 0.00 0.00 0.00 0.00 0.00 0.00 0.00 0.00 0.00 0.00 0.00 0.00 0.00 0.00 0.00 0.00 0.00 0.00 0.00 0.00 0.00 0.00 0.00 0.00 0.00 0.00 0.00 0.00 0.00 0.00 0.00 0.00 0.00 0.00 0.00 0.00 0.00 0.00 0.00 0.01 0.00 0.00 0.00
0.00 0.00 0.00 0.00 0.00 0.00 0.00 0.00 0.00 0.00 0.00 0.00 0.00 0.00 0.00 0.00 0.00 0.00 0.00 0.00 0.00 0.00 0.00 0.00 0.00 0.00 0.00 0.00 0.00 0.00 0.00 0.00 0.00 0.00 0.00 0.00 0.00 0.00 0.00 0.00 0.00 0.00 0.00 0.00 0.00 0.00 0.00 0.01 0.01 0.00 0.00 0.00 0.00 0.00
0.00 0.01 0.00 0.00 0.00 0.00 0.00 0.00 0.00 0.00 0.00 0.00 0.00 0.00 0.00 0.00 0.00 0.00 0.00 0.00 0.00 0.00 0.00 0.00 0.00 0.00 0.00 0.00 0.00 0.00 0.00 0.00 0.00 0.00 0.00 0.01 0.00 0.01 0.01 0.01 0.00 0.00 0.00 0.00 0.00 0.01 0.01 0.01 0.01 0.01 0.01 0.01 0.01 0.01

GFSWCAN_prec_precacc24_084.txt.gz
Total_Precipitation_Accumulation
0.58 0.69 0.77 0.50 0.21 0.12 0.06 0.03 0.01 0.00 0.00 0.00 0.00 0.00 0.00 0.00 0.00 0.00 0.00 0.00 0.00 0.00 0.00 0.00 0.00 0.00 0.00 0.00 0.03 0.05 0.11 0.15 0.17 0.34 0.44 0.30 0.10 0.04 0.04 0.05 0.01 0.02 0.05 0.07 0.06 0.08 0.01 0.00 0.00 0.00 0.00 0.00 0.00 0.00
0.69 0.66 0.72 0.59 0.28 0.19 0.11 0.06 0.02 0.01 0.00 0.00 0.00 0.00 0.00 0.01 0.01 0.02 0.01 0.00 0.00 0.02 0.00 0.00 0.00 0.00 0.00 0.01 0.03 0.05 0.10 0.15 0.31 0.34 0.36 0.32 0.26 0.23 0.10 0.06 0.02 0.02 0.00 0.00 0.00 0.00 0.00 0.00 0.00 0.00 0.00 0.00 0.00 0.00
0.64 0.71 0.73 0.65 0.38 0.19 0.16 0.08 0.04 0.02 0.01 0.01 0.01 0.00 0.00 0.02 0.02 0.04 0.02 0.01 0.02 0.05 0.01 0.00 0.00 0.00 0.00 0.00 0.01 0.07 0.04 0.12 0.28 0.36 0.32 0.23 0.19 0.17 0.12 0.11 0.06 0.07 0.03 0.00 0.00 0.00 0.00 0.00 0.00 0.00 0.00 0.00 0.00 0.00
0.55 0.70 0.71 0.63 0.58 0.26 0.14 0.08 0.07 0.04 0.02 0.02 0.02 0.03 0.02 0.03 0.04 0.05 0.05 0.03 0.04 0.09 0.14 0.00 0.00 0.00 0.00 0.00 0.00 0.01 0.00 0.05 0.13 0.23 0.31 0.24 0.15 0.12 0.08 0.04 0.03 0.02 0.02 0.01 0.00 0.00 0.00 0.00 0.00 0.00 0.00 0.00 0.00 0.00
0.57 0.63 0.71 0.57 0.50 0.38 0.16 0.09 0.08 0.05 0.03 0.04 0.04 0.04 0.07 0.08 0.08 0.07 0.05 0.03 0.04 0.11 0.08 0.01 0.00 0.00 0.00 0.00 0.00 0.02 0.02 0.03 0.12 0.22 0.27 0.22 0.14 0.14 0.05 0.03 0.01 0.00 0.00 0.01 0.00 0.00 0.00 0.00 0.00 0.00 0.00 0.00 0.00 0.00
0.66 0.63 0.74 0.70 0.47 0.35 0.18 0.11 0.07 0.04 0.03 0.03 0.05 0.09 0.12 0.16 0.13 0.09 0.06 0.01 0.03 0.09 0.21 0.06 0.00 0.00 0.00 0.00 0.00 0.04 0.12 0.09 0.23 0.36 0.20 0.12 0.10 0.27 0.14 0.06 0.00 0.00 0.00 0.00 0.00 0.00 0.00 0.00 0.00 0.00 0.00 0.00 0.00 0.00
0.57 0.62 0.63 0.73 0.63 0.41 0.24 0.15 0.10 0.07 0.07 0.08 0.10 0.11 0.14 0.13 0.10 0.06 0.02 0.02 0.00 0.02 0.09 0.05 0.02 0.03 0.01 0.05 0.05 0.09 0.29 0.37 0.34 0.40 0.24 0.13 0.11 0.41 0.32 0.06 0.00 0.00 0.00 0.00 0.00 0.00 0.00 0.00 0.00 0.00 0.00 0.00 0.00 0.00
0.60 0.65 0.59 0.55 0.51 0.39 0.28 0.17 0.10 0.08 0.08 0.10 0.13 0.13 0.13 0.16 0.16 0.08 0.03 0.04 0.01 0.03 0.06 0.08 0.05 0.24 0.11 0.20 0.23 0.29 0.38 0.49 0.49 0.34 0.23 0.14 0.15 0.19 0.11 0.00 0.00 0.00 0.01 0.00 0.00 0.00 0.00 0.00 0.00 0.00 0.00 0.00 0.00 0.00
0.60 0.63 0.57 0.47 0.39 0.23 0.21 0.17 0.11 0.11 0.12 0.16 0.19 0.19 0.15 0.12 0.08 0.03 0.04 0.06 0.03 0.06 0.10 0.10 0.11 0.39 0.26 0.50 0.45 0.42 0.52 0.58 0.38 0.34 0.16 0.23 0.21 0.21 0.03 0.00 0.00 0.00 0.00 0.00 0.00 0.00 0.00 0.00 0.00 0.00 0.00 0.00 0.00 0.00
0.55 0.54 0.45 0.41 0.32 0.24 0.19 0.16 0.17 0.24 0.27 0.26 0.13 0.07 0.08 0.05 0.03 0.05 0.08 0.17 0.25 0.29 0.17 0.07 0.11 0.16 0.27 0.37 0.55 0.37 0.48 0.44 0.31 0.16 0.17 0.18 0.08 0.01 0.01 0.01 0.00 0.00 0.00 0.00 0.00 0.01 0.00 0.00 0.00 0.00 0.00 0.00 0.00 0.00
0.56 0.47 0.35 0.34 0.22 0.24 0.26 0.26 0.29 0.28 0.26 0.17 0.09 0.13 0.18 0.23 0.17 0.13 0.17 0.15 0.14 0.10 0.05 0.02 0.10 0.19 0.29 0.48 0.54 0.43 0.68 0.41 0.69 0.25 0.23 0.31 0.24 0.21 0.05 0.00 0.00 0.00 0.00 0.00 0.00 0.00 0.00 0.00 0.00 0.00 0.00 0.00 0.00 0.00
0.63 0.38 0.21 0.34 0.31 0.27 0.27 0.33 0.44 0.30 0.18 0.10 0.10 0.18 0.21 0.31 0.25 0.21 0.16 0.09 0.07 0.01 0.02 0.08 0.19 0.29 0.27 0.44 0.37 0.26 0.49 0.48 0.40 0.17 0.20 0.35 0.46 0.34 0.14 0.02 0.00 0.00 0.00 0.00 0.00 0.01 0.00 0.00 0.00 0.00 0.00 0.00 0.00 0.00
0.58 0.28 0.13 0.18 0.34 0.39 0.28 0.34 0.30 0.18 0.21 0.27 0.23 0.25 0.21 0.28 0.28 0.15 0.05 0.04 0.02 0.01 0.09 0.26 0.33 0.38 0.39 0.48 0.33 0.22 0.17 0.21 0.23 0.21 0.16 0.16 0.11 0.11 0.18 0.11 0.02 0.01 0.01 0.01 0.01 0.02 0.01 0.01 0.01 0.01 0.01 0.01 0.01 0.01
0.38 0.21 0.16 0.19 0.20 0.30 0.29 0.39 0.23 0.16 0.20 0.20 0.12 0.16 0.11 0.13 0.03 0.01 0.00 0.01 0.01 0.04 0.09 0.11 0.30 0.39 0.28 0.35 0.33 0.24 0.12 0.14 0.12 0.05 0.03 0.02 0.01 0.02 0.03 0.12 0.17 0.12 0.08 0.08 0.09 0.10 0.10 0.11 0.12 0.10 0.08 0.07 0.03 0.02
0.21 0.25 0.28 0.24 0.23 0.30 0.40 0.43 0.34 0.20 0.16 0.09 0.05 0.05 0.04 0.01 0.01 0.00 0.03 0.03 0.01 0.01 0.01 0.06 0.22 0.25 0.27 0.32 0.23 0.14 0.11 0.09 0.06 0.05 0.01 0.00 0.02 0.01 0.03 0.13 0.37 0.28 0.17 0.08 0.04 0.04 0.05 0.06 0.05 0.03 0.02 0.02 0.02 0.03
0.18 0.36 0.45 0.35 0.33 0.48 0.56 0.36 0.30 0.23 0.22 0.08 0.04 0.01 0.00 0.01 0.00 0.02 0.03 0.04 0.04 0.05 0.12 0.20 0.23 0.18 0.18 0.17 0.13 0.11 0.11 0.06 0.09 0.04 0.00 0.00 0.02 0.03 0.08 0.22 0.32 0.19 0.10 0.07 0.03 0.00 0.00 0.00 0.00 0.00 0.00 0.00 0.00 0.00
0.19 0.35 0.48 0.38 0.51 0.68 0.40 0.23 0.26 0.15 0.08 0.06 0.01 0.00 0.00 0.02 0.02 0.02 0.04 0.06 0.08 0.09 0.16 0.33 0.28 0.16 0.14 0.11 0.03 0.03 0.06 0.06 0.04 0.02 0.00 0.00 0.00 0.02 0.08 0.19 0.28 0.14 0.14 0.16 0.06 0.00 0.00 0.00 0.00 0.00 0.00 0.00 0.00 0.00
0.23 0.37 0.42 0.42 0.38 0.34 0.37 0.23 0.15 0.10 0.05 0.01 0.00 0.00 0.00 0.01 0.04 0.03 0.03 0.11 0.19 0.23 0.17 0.30 0.15 0.06 0.05 0.06 0.03 0.03 0.02 0.00 0.01 0.00 0.00 0.00 0.00 0.00 0.02 0.11 0.19 0.17 0.15 0.10 0.04 0.00 0.00 0.00 0.00 0.00 0.00 0.00 0.00 0.00
0.32 0.32 0.35 0.31 0.14 0.09 0.21 0.23 0.16 0.10 0.01 0.01 0.00 0.00 0.00 0.00 0.00 0.01 0.01 0.04 0.16 0.24 0.28 0.24 0.17 0.05 0.00 0.02 0.04 0.02 0.01 0.01 0.01 0.00 0.00 0.00 0.00 0.00 0.00 0.00 0.01 0.02 0.03 0.02 0.01 0.00 0.00 0.00 0.00 0.00 0.00 0.00 0.00 0.00
0.37 0.47 0.44 0.23 0.07 0.05 0.07 0.14 0.07 0.01 0.00 0.00 0.00 0.00 0.00 0.00 0.00 0.00 0.00 0.00 0.01 0.07 0.12 0.08 0.03 0.00 0.01 0.01 0.00 0.00 0.00 0.00 0.00 0.00 0.00 0.00 0.00 0.00 0.00 0.00 0.00 0.00 0.00 0.00 0.00 0.00 0.00 0.00 0.00 0.00 0.00 0.00 0.00 0.00
0.29 0.51 0.55 0.31 0.24 0.11 0.03 0.02 0.01 0.01 0.00 0.01 0.01 0.00 0.00 0.00 0.00 0.00 0.00 0.01 0.03 0.02 0.00 0.00 0.00 0.00 0.00 0.01 0.02 0.00 0.00 0.00 0.00 0.00 0.00 0.00 0.00 0.00 0.00 0.00 0.00 0.00 0.00 0.00 0.00 0.00 0.00 0.00 0.00 0.00 0.00 0.00 0.00 0.00
0.32 0.39 0.40 0.53 0.45 0.19 0.06 0.03 0.02 0.02 0.01 0.02 0.02 0.02 0.02 0.01 0.02 0.02 0.02 0.03 0.01 0.00 0.00 0.00 0.00 0.00 0.00 0.00 0.00 0.00 0.00 0.00 0.00 0.00 0.00 0.00 0.00 0.00 0.00 0.00 0.00 0.00 0.00 0.00 0.00 0.00 0.00 0.00 0.00 0.00 0.00 0.00 0.00 0.00
0.29 0.28 0.36 0.42 0.26 0.11 0.13 0.05 0.03 0.02 0.01 0.03 0.03 0.03 0.03 0.04 0.04 0.05 0.05 0.01 0.00 0.00 0.00 0.00 0.00 0.00 0.00 0.00 0.00 0.00 0.00 0.00 0.00 0.00 0.00 0.00 0.00 0.00 0.00 0.00 0.00 0.00 0.00 0.00 0.00 0.00 0.00 0.00 0.00 0.00 0.00 0.00 0.00 0.00
0.17 0.31 0.29 0.21 0.12 0.12 0.08 0.04 0.02 0.02 0.01 0.01 0.01 0.02 0.02 0.03 0.04 0.05 0.04 0.01 0.00 0.00 0.00 0.00 0.00 0.00 0.00 0.00 0.00 0.00 0.00 0.00 0.00 0.00 0.00 0.00 0.00 0.00 0.00 0.00 0.00 0.00 0.00 0.00 0.00 0.00 0.00 0.00 0.00 0.00 0.00 0.00 0.00 0.00
0.21 0.27 0.16 0.12 0.06 0.02 0.01 0.01 0.00 0.01 0.01 0.01 0.01 0.00 0.00 0.01 0.01 0.02 0.02 0.00 0.00 0.00 0.00 0.00 0.00 0.00 0.00 0.00 0.00 0.00 0.00 0.00 0.00 0.00 0.00 0.00 0.00 0.00 0.00 0.00 0.00 0.00 0.00 0.00 0.00 0.00 0.00 0.00 0.00 0.00 0.00 0.00 0.00 0.00
0.05 0.05 0.03 0.02 0.02 0.00 0.00 0.00 0.00 0.00 0.00 0.01 0.00 0.00 0.00 0.00 0.00 0.00 0.00 0.00 0.00 0.00 0.00 0.00 0.00 0.00 0.00 0.00 0.00 0.00 0.00 0.00 0.00 0.00 0.00 0.00 0.00 0.00 0.00 0.00 0.00 0.00 0.00 0.00 0.00 0.00 0.00 0.00 0.00 0.00 0.00 0.00 0.00 0.00
0.00 0.01 0.00 0.00 0.00 0.00 0.00 0.00 0.00 0.01 0.00 0.00 0.00 0.00 0.00 0.00 0.00 0.00 0.00 0.00 0.00 0.00 0.00 0.00 0.00 0.00 0.00 0.00 0.00 0.00 0.00 0.00 0.00 0.00 0.00 0.00 0.00 0.00 0.00 0.00 0.00 0.00 0.00 0.00 0.00 0.00 0.00 0.00 0.00 0.00 0.00 0.00 0.00 0.00
0.00 0.00 0.00 0.00 0.01 0.01 0.01 0.01 0.00 0.00 0.00 0.00 0.00 0.00 0.00 0.00 0.00 0.00 0.00 0.00 0.00 0.00 0.00 0.00 0.00 0.00 0.00 0.00 0.00 0.00 0.00 0.00 0.00 0.00 0.00 0.00 0.00 0.00 0.00 0.00 0.00 0.00 0.00 0.00 0.00 0.00 0.00 0.00 0.00 0.00 0.00 0.00 0.00 0.00
0.00 0.00 0.00 0.01 0.02 0.01 0.00 0.00 0.00 0.00 0.00 0.00 0.00 0.00 0.00 0.00 0.00 0.00 0.00 0.00 0.00 0.00 0.00 0.00 0.00 0.00 0.00 0.00 0.00 0.00 0.00 0.00 0.00 0.00 0.00 0.00 0.00 0.00 0.00 0.00 0.00 0.00 0.00 0.00 0.00 0.00 0.00 0.00 0.00 0.00 0.00 0.00 0.00 0.00
0.00 0.00 0.00 0.00 0.00 0.00 0.00 0.00 0.00 0.00 0.00 0.00 0.00 0.00 0.00 0.00 0.00 0.00 0.00 0.00 0.00 0.00 0.00 0.00 0.00 0.00 0.00 0.00 0.00 0.00 0.00 0.00 0.00 0.00 0.00 0.00 0.00 0.00 0.00 0.00 0.00 0.00 0.00 0.00 0.00 0.00 0.00 0.00 0.00 0.00 0.00 0.00 0.00 0.00
0.00 0.00 0.00 0.00 0.00 0.00 0.00 0.00 0.00 0.00 0.00 0.00 0.00 0.00 0.00 0.00 0.00 0.00 0.00 0.00 0.00 0.00 0.00 0.00 0.00 0.00 0.00 0.00 0.00 0.00 0.00 0.00 0.00 0.00 0.00 0.00 0.00 0.00 0.00 0.00 0.00 0.00 0.00 0.00 0.00 0.00 0.00 0.00 0.00 0.00 0.00 0.00 0.00 0.00
0.00 0.00 0.00 0.00 0.00 0.00 0.00 0.00 0.00 0.00 0.00 0.00 0.00 0.00 0.00 0.00 0.00 0.00 0.00 0.00 0.00 0.00 0.00 0.00 0.00 0.00 0.00 0.00 0.00 0.00 0.00 0.00 0.00 0.00 0.00 0.00 0.00 0.00 0.00 0.00 0.00 0.00 0.00 0.00 0.00 0.00 0.00 0.00 0.01 0.00 0.00 0.00 0.00 0.00
0.00 0.00 0.00 0.00 0.00 0.00 0.00 0.00 0.00 0.00 0.00 0.00 0.00 0.00 0.00 0.00 0.00 0.00 0.00 0.00 0.00 0.00 0.00 0.00 0.00 0.00 0.00 0.00 0.00 0.00 0.00 0.00 0.00 0.01 0.00 0.01 0.01 0.01 0.01 0.01 0.01 0.00 0.01 0.00 0.00 0.00 0.01 0.01 0.01 0.01 0.01 0.01 0.00 0.00

GFSWCAN_prec_precacc24_090.txt.gz
Total_Precipitation_Accumulation
0.71 0.92 1.11 1.11 0.89 0.83 0.89 0.79 0.49 0.20 0.08 0.01 0.00 0.00 0.00 0.00 0.00 0.00 0.00 0.00 0.00 0.00 0.00 0.00 0.00 0.00 0.00 0.00 0.01 0.02 0.09 0.14 0.15 0.32 0.44 0.30 0.11 0.04 0.04 0.07 0.04 0.07 0.17 0.17 0.13 0.16 0.03 0.00 0.00 0.00 0.00 0.00 0.00 0.00
0.84 0.86 0.97 1.00 1.01 1.20 0.96 0.54 0.37 0.19 0.06 0.01 0.00 0.00 0.00 0.00 0.00 0.01 0.00 0.00 0.00 0.01 0.00 0.00 0.00 0.00 0.00 0.00 0.00 0.01 0.06 0.14 0.29 0.32 0.35 0.31 0.26 0.23 0.09 0.06 0.02 0.03 0.03 0.06 0.05 0.04 0.00 0.00 0.00 0.00 0.00 0.00 0.00 0.00
0.81 0.91 0.93 0.89 0.84 0.90 1.35 0.78 0.36 0.17 0.06 0.03 0.01 0.00 0.00 0.00 0.00 0.02 0.00 0.00 0.01 0.03 0.01 0.00 0.00 0.00 0.00 0.00 0.00 0.01 0.01 0.11 0.27 0.35 0.29 0.21 0.19 0.17 0.12 0.11 0.06 0.07 0.03 0.01 0.00 0.01 0.00 0.00 0.00 0.00 0.00 0.00 0.00 0.00
0.71 0.89 0.96 0.86 0.90 0.78 0.99 0.97 0.48 0.19 0.06 0.02 0.02 0.02 0.01 0.01 0.02 0.02 0.01 0.00 0.03 0.07 0.11 0.00 0.00 0.00 0.00 0.00 0.00 0.00 0.00 0.04 0.13 0.23 0.28 0.23 0.15 0.12 0.08 0.04 0.03 0.02 0.02 0.02 0.00 0.00 0.00 0.00 0.00 0.00 0.00 0.00 0.00 0.00
0.74 0.81 0.95 0.98 0.93 0.99 0.78 0.80 0.48 0.21 0.11 0.04 0.03 0.04 0.06 0.06 0.06 0.04 0.02 0.01 0.01 0.06 0.05 0.01 0.00 0.00 0.00 0.00 0.00 0.00 0.00 0.00 0.09 0.16 0.24 0.21 0.13 0.14 0.05 0.03 0.01 0.00 0.00 0.01 0.01 0.01 0.00 0.00 0.00 0.00 0.00 0.00 0.00 0.00
0.79 0.78 0.95 1.03 1.12 1.06 0.91 0.64 0.48 0.24 0.14 0.05 0.03 0.07 0.11 0.15 0.11 0.07 0.05 0.01 0.01 0.03 0.10 0.04 0.00 0.00 0.00 0.00 0.00 0.00 0.00 0.01 0.11 0.24 0.15 0.09 0.09 0.26 0.14 0.06 0.00 0.00 0.00 0.00 0.00 0.00 0.00 0.00 0.00 0.00 0.00 0.00 0.00 0.00
0.68 0.76 0.83 0.99 1.15 1.19 0.87 0.56 0.46 0.27 0.15 0.08 0.07 0.09 0.14 0.12 0.06 0.04 0.02 0.00 0.00 0.01 0.04 0.02 0.00 0.00 0.00 0.00 0.00 0.00 0.01 0.04 0.09 0.23 0.19 0.10 0.09 0.40 0.33 0.06 0.00 0.00 0.00 0.00 0.00 0.00 0.00 0.00 0.00 0.00 0.00 0.00 0.00 0.00
0.70 0.80 0.81 0.87 0.98 1.09 0.84 0.54 0.41 0.27 0.16 0.13 0.12 0.13 0.14 0.15 0.13 0.06 0.03 0.03 0.01 0.01 0.02 0.02 0.00 0.00 0.01 0.03 0.01 0.01 0.06 0.13 0.16 0.19 0.19 0.12 0.12 0.18 0.11 0.00 0.00 0.00 0.01 0.00 0.00 0.00 0.00 0.00 0.00 0.00 0.00 0.00 0.00 0.00
0.70 0.81 0.85 0.89 0.99 0.79 0.64 0.49 0.33 0.23 0.17 0.18 0.18 0.19 0.14 0.10 0.07 0.04 0.04 0.04 0.01 0.02 0.03 0.03 0.01 0.01 0.06 0.16 0.10 0.06 0.12 0.16 0.10 0.20 0.13 0.22 0.20 0.22 0.03 0.01 0.01 0.01 0.01 0.01 0.00 0.00 0.00 0.01 0.00 0.00 0.00 0.00 0.00 0.00
0.68 0.76 0.80 0.89 0.98 0.72 0.55 0.42 0.29 0.22 0.19 0.22 0.13 0.07 0.08 0.05 0.05 0.04 0.04 0.09 0.16 0.22 0.12 0.04 0.00 0.00 0.04 0.13 0.21 0.14 0.19 0.27 0.18 0.05 0.11 0.16 0.08 0.01 0.03 0.06 0.03 0.00 0.00 0.00 0.00 0.01 0.00 0.00 0.00 0.00 0.00 0.00 0.00 0.00
0.77 0.75 0.78 0.89 0.79 0.62 0.50 0.32 0.21 0.15 0.17 0.09 0.09 0.13 0.17 0.12 0.09 0.06 0.07 0.07 0.07 0.05 0.03 0.01 0.03 0.06 0.06 0.25 0.36 0.36 0.52 0.36 0.64 0.23 0.21 0.30 0.24 0.22 0.08 0.04 0.00 0.00 0.00 0.00 0.00 0.00 0.00 0.00 0.01 0.01 0.00 0.00 0.00 0.00
0.95 0.77 0.72 0.75 0.60 0.47 0.32 0.20 0.16 0.12 0.09 0.09 0.10 0.17 0.17 0.14 0.13 0.09 0.08 0.05 0.03 0.00 0.01 0.07 0.16 0.20 0.16 0.36 0.32 0.23 0.43 0.44 0.38 0.17 0.19 0.35 0.46 0.34 0.14 0.03 0.01 0.00 0.00 0.00 0.01 0.02 0.01 0.02 0.04 0.06 0.06 0.05 0.02 0.01
1.01 0.74 0.62 0.52 0.45 0.36 0.21 0.19 0.09 0.03 0.11 0.22 0.21 0.18 0.16 0.17 0.14 0.06 0.02 0.02 0.01 0.01 0.08 0.25 0.30 0.28 0.31 0.45 0.32 0.21 0.17 0.21 0.23 0.21 0.16 0.16 0.11 0.11 0.19 0.12 0.03 0.01 0.00 0.00 0.03 0.08 0.07 0.09 0.13 0.14 0.16 0.18 0.13 0.06
0.87 0.67 0.52 0.44 0.38 0.27 0.23 0.22 0.08 0.03 0.13 0.17 0.11 0.10 0.06 0.07 0.01 0.00 0.00 0.00 0.01 0.04 0.09 0.09 0.20 0.29 0.26 0.33 0.32 0.24 0.12 0.16 0.14 0.05 0.03 0.02 0.01 0.02 0.03 0.13 0.18 0.11 0.06 0.06 0.10 0.15 0.15 0.13 0.13 0.11 0.06 0.03 0.02 0.01
0.78 0.67 0.51 0.39 0.29 0.27 0.19 0.13 0.11 0.12 0.13 0.08 0.05 0.04 0.02 0.00 0.02 0.00 0.02 0.03 0.01 0.01 0.01 0.04 0.12 0.20 0.25 0.31 0.23 0.15 0.11 0.10 0.06 0.05 0.01 0.00 0.02 0.01 0.03 0.13 0.38 0.32 0.21 0.11 0.07 0.08 0.10 0.11 0.08 0.04 0.01 0.00 0.00 0.00
0.88 0.80 0.61 0.36 0.22 0.29 0.25 0.14 0.08 0.15 0.21 0.09 0.04 0.02 0.01 0.01 0.01 0.00 0.02 0.04 0.04 0.05 0.09 0.16 0.20 0.17 0.17 0.17 0.14 0.11 0.11 0.06 0.09 0.04 0.00 0.00 0.02 0.03 0.08 0.22 0.33 0.21 0.15 0.16 0.12 0.05 0.02 0.01 0.00 0.00 0.00 0.00 0.00 0.00
0.81 0.99 0.75 0.43 0.34 0.40 0.24 0.14 0.19 0.22 0.18 0.10 0.03 0.02 0.02 0.01 0.00 0.00 0.01 0.04 0.05 0.05 0.10 0.22 0.27 0.16 0.14 0.11 0.03 0.03 0.06 0.06 0.04 0.02 0.00 0.00 0.00 0.02 0.08 0.19 0.30 0.18 0.19 0.25 0.21 0.09 0.03 0.01 0.00 0.00 0.00 0.00 0.00 0.00
0.76 0.73 0.54 0.44 0.39 0.31 0.31 0.29 0.25 0.24 0.16 0.04 0.03 0.04 0.01 0.00 0.00 0.00 0.00 0.02 0.06 0.10 0.10 0.18 0.13 0.06 0.05 0.06 0.03 0.03 0.02 0.00 0.01 0.00 0.00 0.00 0.00 0.00 0.02 0.11 0.20 0.22 0.21 0.17 0.11 0.05 0.03 0.01 0.00 0.00 0.00 0.00 0.00 0.00
0.55 0.52 0.48 0.41 0.21 0.18 0.37 0.41 0.27 0.17 0.06 0.05 0.04 0.01 0.00 0.00 0.00 0.00 0.00 0.00 0.03 0.08 0.13 0.17 0.15 0.05 0.00 0.02 0.04 0.02 0.01 0.01 0.01 0.00 0.00 0.00 0.00 0.00 0.00 0.00 0.01 0.03 0.06 0.08 0.09 0.08 0.06 0.05 0.03 0.01 0.00 0.00 0.00 0.00
0.62 0.71 0.66 0.38 0.18 0.19 0.21 0.27 0.13 0.04 0.04 0.03 0.02 0.00 0.00 0.00 0.00 0.00 0.00 0.00 0.00 0.02 0.05 0.05 0.02 0.00 0.01 0.01 0.00 0.00 0.00 0.00 0.00 0.00 0.00 0.00 0.00 0.00 0.00 0.00 0.00 0.00 0.00 0.00 0.00 0.01 0.01 0.01 0.01 0.01 0.00 0.00 0.00 0.00
0.67 0.82 0.74 0.46 0.38 0.18 0.08 0.07 0.04 0.02 0.01 0.01 0.01 0.00 0.00 0.00 0.00 0.00 0.01 0.01 0.04 0.02 0.00 0.00 0.00 0.00 0.00 0.01 0.02 0.00 0.00 0.00 0.00 0.00 0.00 0.00 0.00 0.00 0.00 0.00 0.00 0.00 0.00 0.00 0.00 0.00 0.00 0.00 0.00 0.00 0.00 0.00 0.00 0.00
0.59 0.55 0.52 0.63 0.52 0.24 0.07 0.04 0.02 0.01 0.01 0.01 0.01 0.01 0.01 0.01 0.01 0.01 0.02 0.04 0.02 0.00 0.00 0.00 0.00 0.00 0.00 0.00 0.00 0.00 0.00 0.00 0.00 0.00 0.00 0.00 0.00 0.00 0.00 0.00 0.00 0.00 0.00 0.00 0.00 0.00 0.00 0.00 0.00 0.00 0.00 0.00 0.00 0.00
0.39 0.35 0.42 0.45 0.28 0.13 0.15 0.05 0.03 0.01 0.00 0.02 0.01 0.01 0.01 0.01 0.01 0.02 0.02 0.01 0.00 0.00 0.00 0.00 0.00 0.00 0.00 0.00 0.00 0.00 0.00 0.00 0.00 0.00 0.00 0.00 0.00 0.00 0.00 0.00 0.00 0.00 0.00 0.00 0.00 0.00 0.00 0.00 0.00 0.00 0.00 0.00 0.00 0.00
0.19 0.35 0.31 0.23 0.12 0.12 0.08 0.04 0.02 0.02 0.01 0.01 0.01 0.01 0.01 0.01 0.01 0.01 0.00 0.00 0.00 0.00 0.00 0.00 0.00 0.00 0.00 0.00 0.00 0.00 0.00 0.00 0.00 0.00 0.00 0.00 0.00 0.00 0.00 0.00 0.00 0.00 0.00 0.00 0.00 0.00 0.00 0.00 0.00 0.00 0.00 0.00 0.00 0.00
0.26 0.31 0.18 0.12 0.06 0.02 0.01 0.01 0.00 0.01 0.01 0.01 0.01 0.00 0.00 0.01 0.00 0.00 0.00 0.00 0.00 0.00 0.00 0.00 0.00 0.00 0.00 0.00 0.00 0.00 0.00 0.00 0.00 0.00 0.00 0.00 0.00 0.00 0.00 0.00 0.00 0.00 0.00 0.00 0.00 0.00 0.00 0.00 0.00 0.00 0.00 0.00 0.00 0.00
0.08 0.06 0.03 0.02 0.02 0.00 0.00 0.00 0.00 0.00 0.00 0.01 0.00 0.00 0.00 0.00 0.00 0.00 0.00 0.00 0.00 0.00 0.00 0.00 0.00 0.00 0.00 0.00 0.00 0.00 0.00 0.00 0.00 0.00 0.00 0.00 0.00 0.00 0.00 0.00 0.00 0.00 0.00 0.00 0.00 0.00 0.00 0.00 0.00 0.00 0.00 0.00 0.00 0.00
0.01 0.01 0.00 0.00 0.00 0.00 0.00 0.00 0.00 0.01 0.00 0.00 0.00 0.00 0.00 0.00 0.00 0.00 0.00 0.00 0.00 0.00 0.00 0.00 0.00 0.00 0.00 0.00 0.00 0.00 0.00 0.00 0.00 0.00 0.00 0.00 0.00 0.00 0.00 0.00 0.00 0.00 0.00 0.00 0.00 0.00 0.00 0.00 0.00 0.00 0.00 0.00 0.00 0.00
0.00 0.00 0.00 0.00 0.01 0.01 0.01 0.01 0.00 0.00 0.00 0.00 0.00 0.00 0.00 0.00 0.00 0.00 0.00 0.00 0.00 0.00 0.00 0.00 0.00 0.00 0.00 0.00 0.00 0.00 0.00 0.00 0.00 0.00 0.00 0.00 0.00 0.00 0.00 0.00 0.00 0.00 0.00 0.00 0.00 0.00 0.00 0.00 0.00 0.00 0.00 0.00 0.00 0.00
0.00 0.00 0.00 0.01 0.02 0.01 0.00 0.00 0.00 0.00 0.00 0.00 0.00 0.00 0.00 0.00 0.00 0.00 0.00 0.00 0.00 0.00 0.00 0.00 0.00 0.00 0.00 0.00 0.00 0.00 0.00 0.00 0.00 0.00 0.00 0.00 0.00 0.00 0.00 0.00 0.00 0.00 0.00 0.00 0.00 0.00 0.00 0.00 0.00 0.00 0.00 0.00 0.00 0.00
0.00 0.00 0.00 0.00 0.00 0.00 0.00 0.00 0.00 0.00 0.00 0.00 0.00 0.00 0.00 0.00 0.00 0.00 0.00 0.00 0.00 0.00 0.00 0.00 0.00 0.00 0.00 0.00 0.00 0.00 0.00 0.00 0.00 0.00 0.00 0.00 0.00 0.00 0.00 0.00 0.00 0.00 0.00 0.00 0.00 0.00 0.00 0.00 0.00 0.00 0.00 0.00 0.00 0.00
0.00 0.00 0.00 0.00 0.00 0.00 0.00 0.00 0.00 0.00 0.00 0.00 0.00 0.00 0.00 0.00 0.00 0.00 0.00 0.00 0.00 0.00 0.00 0.00 0.00 0.00 0.00 0.00 0.00 0.00 0.00 0.00 0.00 0.00 0.00 0.00 0.00 0.00 0.00 0.00 0.00 0.00 0.00 0.00 0.00 0.00 0.00 0.00 0.00 0.00 0.00 0.00 0.00 0.00
0.00 0.00 0.00 0.00 0.00 0.00 0.00 0.00 0.00 0.00 0.00 0.00 0.00 0.00 0.00 0.00 0.00 0.00 0.00 0.00 0.00 0.00 0.00 0.00 0.00 0.00 0.00 0.00 0.00 0.00 0.00 0.00 0.00 0.00 0.00 0.00 0.01 0.00 0.00 0.00 0.00 0.00 0.01 0.01 0.01 0.00 0.00 0.01 0.01 0.00 0.00 0.00 0.00 0.00
0.00 0.00 0.00 0.00 0.00 0.00 0.00 0.00 0.00 0.00 0.00 0.00 0.00 0.00 0.00 0.00 0.00 0.00 0.00 0.00 0.00 0.00 0.00 0.00 0.00 0.00 0.00 0.00 0.00 0.00 0.00 0.00 0.00 0.01 0.01 0.01 0.01 0.02 0.02 0.02 0.02 0.02 0.02 0.01 0.01 0.01 0.01 0.01 0.01 0.01 0.01 0.00 0.00 0.00

GFSWCAN_prec_precacc24_093.txt.gz
Total_Precipitation_Accumulation
0.71 0.92 1.11 1.11 0.89 0.83 0.95 0.96 0.78 0.34 0.34 0.43 0.26 0.05 0.00 0.00 0.00 0.00 0.00 0.00 0.00 0.00 0.00 0.00 0.00 0.00 0.00 0.00 0.00 0.00 0.01 0.04 0.14 0.31 0.42 0.30 0.11 0.04 0.04 0.07 0.04 0.07 0.17 0.18 0.13 0.17 0.03 0.00 0.00 0.00 0.00 0.00 0.00 0.00
0.84 0.87 0.97 1.01 1.01 1.20 0.98 0.62 0.58 0.54 0.32 0.21 0.15 0.02 0.00 0.00 0.00 0.00 0.00 0.00 0.00 0.00 0.00 0.00 0.00 0.00 0.00 0.00 0.00 0.00 0.01 0.06 0.24 0.31 0.35 0.31 0.26 0.23 0.09 0.06 0.02 0.03 0.03 0.07 0.06 0.05 0.01 0.00 0.00 0.00 0.00 0.00 0.00 0.00
0.81 0.92 0.94 0.89 0.83 0.92 1.39 0.89 0.56 0.47 0.31 0.17 0.07 0.02 0.00 0.00 0.00 0.00 0.00 0.00 0.00 0.01 0.00 0.00 0.00 0.00 0.00 0.00 0.00 0.01 0.00 0.00 0.09 0.31 0.27 0.20 0.19 0.17 0.12 0.11 0.06 0.07 0.03 0.01 0.00 0.01 0.04 0.11 0.02 0.00 0.00 0.00 0.00 0.00
0.71 0.89 0.96 0.87 0.90 0.79 1.10 1.40 0.84 0.51 0.25 0.13 0.07 0.03 0.01 0.00 0.01 0.01 0.00 0.00 0.00 0.03 0.08 0.00 0.00 0.00 0.00 0.00 0.00 0.00 0.00 0.00 0.01 0.11 0.24 0.21 0.14 0.12 0.08 0.04 0.03 0.02 0.02 0.02 0.00 0.00 0.00 0.00 0.00 0.00 0.00 0.00 0.00 0.00
0.75 0.82 0.96 0.98 0.93 1.02 0.89 1.10 1.05 0.58 0.29 0.13 0.07 0.05 0.05 0.05 0.05 0.03 0.02 0.01 0.00 0.03 0.04 0.01 0.00 0.00 0.00 0.00 0.00 0.00 0.00 0.00 0.01 0.05 0.15 0.19 0.13 0.14 0.05 0.03 0.01 0.00 0.00 0.01 0.01 0.01 0.00 0.00 0.00 0.00 0.00 0.00 0.00 0.00
0.80 0.79 0.95 1.03 1.12 1.09 1.04 0.81 0.74 0.54 0.31 0.13 0.05 0.05 0.09 0.14 0.10 0.07 0.05 0.01 0.01 0.01 0.07 0.02 0.00 0.00 0.00 0.00 0.00 0.00 0.00 0.00 0.05 0.08 0.06 0.06 0.08 0.26 0.14 0.06 0.00 0.00 0.00 0.00 0.00 0.00 0.00 0.00 0.00 0.00 0.00 0.00 0.00 0.00
0.69 0.76 0.83 0.99 1.16 1.24 1.04 0.78 0.61 0.44 0.29 0.15 0.05 0.05 0.11 0.11 0.06 0.04 0.02 0.00 0.00 0.01 0.03 0.01 0.00 0.00 0.00 0.00 0.00 0.00 0.01 0.03 0.06 0.10 0.05 0.01 0.05 0.38 0.32 0.06 0.00 0.00 0.00 0.00 0.00 0.00 0.00 0.00 0.00 0.00 0.01 0.01 0.00 0.00
0.71 0.80 0.81 0.88 1.02 1.21 1.06 0.81 0.63 0.39 0.29 0.17 0.08 0.08 0.11 0.14 0.12 0.06 0.03 0.03 0.01 0.01 0.01 0.01 0.00 0.00 0.00 0.02 0.01 0.00 0.04 0.11 0.12 0.07 0.05 0.03 0.07 0.16 0.10 0.00 0.00 0.00 0.01 0.00 0.00 0.00 0.00 0.00 0.00 0.00 0.01 0.02 0.00 0.00
0.70 0.81 0.85 0.90 1.05 1.02 0.85 0.78 0.60 0.35 0.27 0.16 0.11 0.14 0.12 0.10 0.07 0.04 0.04 0.04 0.01 0.01 0.01 0.01 0.00 0.00 0.01 0.09 0.06 0.05 0.08 0.12 0.07 0.10 0.03 0.09 0.17 0.21 0.03 0.01 0.01 0.02 0.02 0.01 0.00 0.00 0.00 0.01 0.00 0.00 0.01 0.03 0.02 0.00
0.68 0.76 0.80 0.91 1.10 1.04 0.76 0.68 0.48 0.28 0.21 0.16 0.10 0.06 0.07 0.05 0.05 0.04 0.04 0.06 0.11 0.17 0.10 0.03 0.00 0.00 0.00 0.06 0.15 0.11 0.10 0.13 0.13 0.02 0.08 0.11 0.06 0.01 0.03 0.06 0.03 0.00 0.01 0.00 0.00 0.01 0.00 0.00 0.00 0.00 0.00 0.00 0.01 0.01
0.77 0.75 0.79 0.96 1.02 0.89 0.71 0.51 0.33 0.18 0.19 0.18 0.16 0.12 0.16 0.10 0.05 0.04 0.03 0.04 0.05 0.03 0.02 0.01 0.03 0.05 0.02 0.10 0.20 0.18 0.28 0.32 0.57 0.21 0.18 0.28 0.24 0.22 0.08 0.04 0.00 0.00 0.01 0.00 0.00 0.00 0.00 0.00 0.01 0.01 0.01 0.01 0.01 0.00
0.95 0.78 0.78 0.93 0.85 0.66 0.47 0.31 0.18 0.12 0.11 0.09 0.05 0.13 0.14 0.10 0.08 0.05 0.04 0.03 0.01 0.00 0.01 0.06 0.14 0.15 0.09 0.19 0.21 0.18 0.34 0.39 0.38 0.16 0.18 0.35 0.46 0.34 0.14 0.03 0.01 0.00 0.00 0.00 0.01 0.02 0.01 0.02 0.05 0.07 0.08 0.07 0.05 0.04
1.02 0.78 0.76 0.77 0.62 0.50 0.30 0.20 0.08 0.02 0.03 0.09 0.15 0.16 0.14 0.11 0.09 0.02 0.01 0.01 0.00 0.00 0.07 0.23 0.23 0.19 0.21 0.38 0.28 0.19 0.17 0.21 0.23 0.21 0.15 0.16 0.11 0.11 0.19 0.12 0.03 0.01 0.00 0.00 0.03 0.09 0.07 0.09 0.13 0.15 0.18 0.22 0.23 0.23
0.91 0.78 0.79 0.62 0.52 0.39 0.30 0.23 0.06 0.03 0.07 0.11 0.05 0.04 0.05 0.05 0.01 0.00 0.00 0.00 0.00 0.02 0.08 0.09 0.10 0.13 0.16 0.28 0.30 0.23 0.11 0.15 0.13 0.05 0.03 0.02 0.01 0.02 0.03 0.13 0.17 0.11 0.04 0.03 0.05 0.10 0.12 0.11 0.12 0.14 0.12 0.07 0.05 0.03
0.89 0.95 0.77 0.57 0.47 0.38 0.25 0.12 0.05 0.05 0.09 0.08 0.05 0.04 0.01 0.00 0.02 0.01 0.00 0.01 0.01 0.01 0.01 0.02 0.06 0.11 0.16 0.24 0.21 0.14 0.11 0.09 0.06 0.05 0.01 0.00 0.02 0.01 0.03 0.13 0.38 0.31 0.19 0.10 0.07 0.08 0.10 0.11 0.08 0.04 0.01 0.00 0.00 0.00
1.19 1.22 0.90 0.62 0.40 0.31 0.23 0.17 0.13 0.14 0.19 0.09 0.05 0.02 0.01 0.01 0.04 0.02 0.00 0.00 0.01 0.02 0.04 0.10 0.15 0.12 0.11 0.14 0.13 0.10 0.11 0.06 0.09 0.04 0.00 0.00 0.02 0.03 0.08 0.22 0.33 0.21 0.15 0.16 0.12 0.05 0.02 0.01 0.00 0.00 0.00 0.00 0.00 0.00
1.32 1.50 1.09 0.62 0.44 0.35 0.26 0.20 0.23 0.27 0.25 0.12 0.03 0.02 0.03 0.04 0.02 0.00 0.00 0.01 0.01 0.03 0.05 0.13 0.21 0.12 0.10 0.09 0.02 0.02 0.05 0.06 0.04 0.02 0.00 0.00 0.00 0.02 0.08 0.19 0.30 0.18 0.19 0.25 0.21 0.09 0.03 0.01 0.00 0.00 0.00 0.00 0.00 0.00
1.16 1.09 0.72 0.59 0.51 0.44 0.42 0.32 0.28 0.29 0.19 0.05 0.05 0.10 0.07 0.03 0.00 0.00 0.00 0.00 0.01 0.04 0.05 0.09 0.08 0.03 0.03 0.02 0.01 0.03 0.02 0.00 0.01 0.00 0.00 0.00 0.00 0.00 0.02 0.11 0.20 0.22 0.21 0.17 0.12 0.06 0.03 0.02 0.01 0.00 0.00 0.00 0.00 0.00
0.73 0.64 0.57 0.48 0.28 0.25 0.43 0.44 0.26 0.17 0.07 0.07 0.14 0.12 0.03 0.00 0.00 0.00 0.00 0.00 0.00 0.02 0.05 0.08 0.08 0.04 0.00 0.00 0.01 0.02 0.01 0.01 0.01 0.00 0.00 0.00 0.00 0.00 0.00 0.00 0.01 0.03 0.06 0.08 0.09 0.08 0.06 0.05 0.03 0.02 0.02 0.01 0.00 0.00
0.76 0.85 0.78 0.49 0.25 0.24 0.23 0.32 0.15 0.06 0.08 0.13 0.12 0.06 0.01 0.00 0.00 0.00 0.00 0.00 0.00 0.01 0.03 0.02 0.01 0.00 0.00 0.00 0.00 0.00 0.00 0.00 0.00 0.00 0.00 0.00 0.00 0.00 0.00 0.00 0.00 0.00 0.00 0.00 0.00 0.01 0.01 0.01 0.01 0.01 0.00 0.00 0.00 0.00
0.94 1.09 0.96 0.60 0.47 0.22 0.12 0.12 0.09 0.09 0.07 0.08 0.07 0.02 0.01 0.01 0.01 0.00 0.01 0.01 0.04 0.02 0.00 0.00 0.00 0.00 0.00 0.01 0.02 0.00 0.00 0.00 0.00 0.00 0.00 0.00 0.00 0.00 0.00 0.00 0.00 0.00 0.00 0.00 0.00 0.00 0.00 0.00 0.00 0.00 0.00 0.00 0.00 0.00
0.86 0.73 0.66 0.72 0.61 0.35 0.19 0.13 0.08 0.07 0.05 0.05 0.03 0.01 0.01 0.01 0.01 0.02 0.02 0.04 0.02 0.00 0.00 0.00 0.00 0.00 0.00 0.00 0.00 0.00 0.00 0.00 0.00 0.00 0.00 0.00 0.00 0.00 0.00 0.00 0.00 0.00 0.00 0.00 0.00 0.00 0.00 0.00 0.00 0.00 0.00 0.00 0.00 0.00
0.51 0.47 0.57 0.62 0.43 0.25 0.27 0.11 0.07 0.04 0.02 0.03 0.01 0.01 0.01 0.01 0.01 0.02 0.02 0.01 0.00 0.00 0.00 0.00 0.00 0.00 0.00 0.00 0.00 0.00 0.00 0.00 0.00 0.00 0.00 0.00 0.00 0.00 0.00 0.00 0.00 0.00 0.00 0.00 0.00 0.00 0.00 0.00 0.00 0.00 0.00 0.00 0.00 0.00
0.30 0.48 0.45 0.34 0.18 0.17 0.11 0.05 0.02 0.02 0.02 0.01 0.01 0.01 0.01 0.01 0.01 0.01 0.00 0.00 0.00 0.00 0.00 0.00 0.00 0.00 0.00 0.00 0.00 0.00 0.00 0.00 0.00 0.00 0.00 0.00 0.00 0.00 0.00 0.00 0.00 0.00 0.00 0.00 0.00 0.00 0.00 0.00 0.00 0.00 0.00 0.00 0.00 0.00
0.32 0.38 0.23 0.15 0.06 0.02 0.01 0.01 0.00 0.01 0.01 0.01 0.01 0.00 0.00 0.01 0.00 0.00 0.00 0.00 0.00 0.00 0.00 0.00 0.00 0.00 0.00 0.00 0.00 0.00 0.00 0.00 0.00 0.00 0.00 0.00 0.00 0.00 0.00 0.00 0.00 0.00 0.00 0.00 0.00 0.00 0.00 0.00 0.00 0.00 0.00 0.00 0.00 0.00
0.11 0.08 0.03 0.02 0.02 0.00 0.00 0.00 0.00 0.00 0.00 0.01 0.00 0.00 0.00 0.00 0.00 0.00 0.00 0.00 0.00 0.00 0.00 0.00 0.00 0.00 0.00 0.00 0.00 0.00 0.00 0.00 0.00 0.00 0.00 0.00 0.00 0.00 0.00 0.00 0.00 0.00 0.00 0.00 0.00 0.00 0.00 0.00 0.00 0.00 0.00 0.00 0.00 0.00
0.02 0.01 0.00 0.00 0.00 0.00 0.00 0.00 0.00 0.01 0.00 0.00 0.00 0.00 0.00 0.00 0.00 0.00 0.00 0.00 0.00 0.00 0.00 0.00 0.00 0.00 0.00 0.00 0.00 0.00 0.00 0.00 0.00 0.00 0.00 0.00 0.00 0.00 0.00 0.00 0.00 0.00 0.00 0.00 0.00 0.00 0.00 0.00 0.00 0.00 0.00 0.00 0.00 0.00
0.00 0.00 0.00 0.00 0.01 0.01 0.01 0.01 0.00 0.00 0.00 0.00 0.00 0.00 0.00 0.00 0.00 0.00 0.00 0.00 0.00 0.00 0.00 0.00 0.00 0.00 0.00 0.00 0.00 0.00 0.00 0.00 0.00 0.00 0.00 0.00 0.00 0.00 0.00 0.00 0.00 0.00 0.00 0.00 0.00 0.00 0.00 0.00 0.00 0.00 0.00 0.00 0.00 0.00
0.00 0.00 0.00 0.01 0.02 0.01 0.00 0.00 0.00 0.00 0.00 0.00 0.00 0.00 0.00 0.00 0.00 0.00 0.00 0.00 0.00 0.00 0.00 0.00 0.00 0.00 0.00 0.00 0.00 0.00 0.00 0.00 0.00 0.00 0.00 0.00 0.00 0.00 0.00 0.00 0.00 0.00 0.00 0.00 0.00 0.00 0.00 0.00 0.00 0.00 0.00 0.00 0.00 0.00
0.00 0.00 0.00 0.00 0.00 0.00 0.00 0.00 0.00 0.00 0.00 0.00 0.00 0.00 0.00 0.00 0.00 0.00 0.00 0.00 0.00 0.00 0.00 0.00 0.00 0.00 0.00 0.00 0.00 0.00 0.00 0.00 0.00 0.00 0.00 0.00 0.00 0.00 0.00 0.00 0.00 0.00 0.00 0.00 0.00 0.00 0.00 0.00 0.00 0.00 0.00 0.00 0.00 0.00
0.00 0.00 0.00 0.00 0.00 0.00 0.00 0.00 0.00 0.00 0.00 0.00 0.00 0.00 0.00 0.00 0.00 0.00 0.00 0.00 0.00 0.00 0.00 0.00 0.00 0.00 0.00 0.00 0.00 0.00 0.00 0.00 0.00 0.00 0.00 0.00 0.00 0.00 0.00 0.00 0.00 0.00 0.00 0.01 0.01 0.00 0.00 0.01 0.00 0.00 0.00 0.00 0.00 0.01
0.00 0.00 0.00 0.00 0.00 0.00 0.00 0.00 0.00 0.00 0.00 0.00 0.00 0.00 0.00 0.00 0.00 0.00 0.00 0.00 0.00 0.00 0.00 0.00 0.00 0.00 0.00 0.00 0.00 0.00 0.00 0.00 0.00 0.00 0.00 0.00 0.01 0.00 0.00 0.00 0.00 0.00 0.01 0.01 0.01 0.01 0.01 0.01 0.01 0.00 0.01 0.00 0.00 0.00
0.00 0.00 0.00 0.00 0.00 0.00 0.00 0.00 0.00 0.00 0.00 0.00 0.00 0.00 0.00 0.00 0.00 0.00 0.00 0.00 0.00 0.00 0.00 0.00 0.00 0.00 0.00 0.00 0.00 0.00 0.00 0.00 0.00 0.01 0.01 0.01 0.02 0.02 0.03 0.03 0.02 0.02 0.02 0.02 0.01 0.01 0.01 0.01 0.01 0.01 0.01 0.00 0.01 0.01

GFSWCAN_prec_precacc24_096.txt.gz
Total_Precipitation_Accumulation
0.72 0.93 1.11 1.11 0.89 0.82 0.94 0.95 0.78 0.35 0.36 0.62 0.62 0.33 0.16 0.03 0.00 0.00 0.00 0.00 0.00 0.00 0.00 0.00 0.00 0.00 0.00 0.00 0.00 0.00 0.00 0.01 0.08 0.27 0.42 0.29 0.11 0.04 0.04 0.07 0.04 0.07 0.17 0.18 0.13 0.16 0.03 0.00 0.00 0.00 0.00 0.00 0.00 0.00
0.85 0.87 0.97 1.00 1.01 1.19 0.97 0.61 0.58 0.54 0.34 0.28 0.42 0.34 0.18 0.02 0.00 0.00 0.00 0.00 0.00 0.00 0.00 0.00 0.00 0.00 0.00 0.00 0.00 0.00 0.00 0.01 0.06 0.15 0.31 0.31 0.26 0.23 0.09 0.06 0.02 0.03 0.03 0.08 0.07 0.05 0.01 0.01 0.00 0.00 0.00 0.00 0.00 0.01
0.82 0.92 0.94 0.89 0.83 0.91 1.38 0.89 0.55 0.48 0.38 0.28 0.19 0.17 0.11 0.03 0.00 0.00 0.00 0.00 0.00 0.01 0.00 0.00 0.00 0.00 0.00 0.00 0.00 0.01 0.00 0.00 0.00 0.02 0.09 0.16 0.18 0.17 0.12 0.11 0.06 0.07 0.03 0.01 0.00 0.01 0.04 0.16 0.17 0.07 0.01 0.00 0.00 0.00
0.73 0.90 0.97 0.87 0.90 0.79 1.10 1.40 0.84 0.54 0.36 0.28 0.20 0.10 0.05 0.01 0.00 0.00 0.00 0.00 0.00 0.01 0.04 0.00 0.00 0.00 0.00 0.00 0.00 0.00 0.00 0.00 0.00 0.01 0.05 0.10 0.11 0.12 0.08 0.04 0.03 0.02 0.02 0.02 0.00 0.00 0.00 0.00 0.02 0.05 0.05 0.01 0.00 0.00
0.76 0.82 0.96 0.99 0.94 1.03 0.91 1.20 1.14 0.67 0.41 0.27 0.19 0.09 0.05 0.03 0.05 0.03 0.02 0.01 0.00 0.01 0.02 0.00 0.00 0.00 0.00 0.00 0.00 0.00 0.00 0.00 0.01 0.04 0.03 0.03 0.04 0.13 0.05 0.03 0.01 0.00 0.00 0.01 0.01 0.01 0.00 0.00 0.00 0.00 0.00 0.01 0.00 0.00
0.81 0.79 0.96 1.04 1.12 1.09 1.07 0.94 0.97 0.71 0.45 0.25 0.15 0.08 0.07 0.11 0.10 0.06 0.05 0.01 0.00 0.00 0.04 0.01 0.00 0.00 0.00 0.00 0.00 0.00 0.00 0.00 0.04 0.07 0.04 0.01 0.02 0.17 0.14 0.06 0.00 0.00 0.00 0.00 0.00 0.00 0.00 0.00 0.00 0.00 0.00 0.00 0.00 0.00
0.70 0.77 0.84 0.99 1.16 1.25 1.08 0.89 0.88 0.61 0.43 0.26 0.17 0.10 0.10 0.09 0.05 0.04 0.02 0.00 0.00 0.00 0.02 0.01 0.00 0.00 0.00 0.00 0.00 0.00 0.01 0.02 0.05 0.09 0.05 0.01 0.03 0.27 0.28 0.06 0.00 0.00 0.00 0.00 0.00 0.00 0.00 0.00 0.00 0.00 0.01 0.01 0.01 0.01
0.72 0.81 0.81 0.88 1.02 1.21 1.13 0.92 0.88 0.56 0.48 0.34 0.22 0.14 0.11 0.10 0.08 0.05 0.02 0.03 0.01 0.01 0.00 0.00 0.00 0.00 0.00 0.01 0.01 0.00 0.04 0.08 0.10 0.06 0.04 0.02 0.03 0.07 0.07 0.00 0.00 0.00 0.01 0.00 0.00 0.00 0.00 0.00 0.00 0.00 0.01 0.02 0.03 0.03
0.71 0.82 0.85 0.90 1.05 1.04 1.01 0.93 0.81 0.58 0.47 0.31 0.19 0.10 0.08 0.07 0.06 0.05 0.04 0.04 0.01 0.01 0.00 0.01 0.00 0.00 0.00 0.02 0.03 0.05 0.08 0.10 0.06 0.10 0.02 0.05 0.06 0.11 0.02 0.01 0.01 0.02 0.03 0.01 0.00 0.00 0.00 0.01 0.00 0.00 0.01 0.04 0.06 0.03
0.69 0.77 0.80 0.91 1.10 1.09 1.00 0.78 0.67 0.46 0.35 0.25 0.16 0.11 0.09 0.06 0.05 0.03 0.03 0.04 0.06 0.10 0.06 0.02 0.00 0.00 0.00 0.01 0.05 0.07 0.08 0.07 0.08 0.02 0.04 0.06 0.01 0.00 0.03 0.06 0.03 0.00 0.01 0.00 0.00 0.01 0.00 0.00 0.00 0.00 0.00 0.03 0.06 0.11
0.78 0.75 0.79 0.97 1.09 1.06 0.91 0.60 0.47 0.34 0.32 0.25 0.19 0.12 0.13 0.09 0.02 0.02 0.02 0.02 0.03 0.02 0.01 0.00 0.03 0.05 0.02 0.05 0.08 0.10 0.12 0.17 0.31 0.16 0.14 0.24 0.24 0.22 0.08 0.04 0.00 0.00 0.01 0.01 0.00 0.00 0.00 0.00 0.01 0.01 0.01 0.02 0.02 0.02
0.95 0.78 0.78 0.98 1.04 0.87 0.57 0.37 0.30 0.25 0.19 0.12 0.05 0.09 0.09 0.04 0.03 0.03 0.02 0.01 0.01 0.00 0.00 0.02 0.08 0.08 0.04 0.11 0.13 0.10 0.19 0.32 0.34 0.15 0.18 0.35 0.46 0.34 0.14 0.03 0.01 0.00 0.00 0.01 0.01 0.02 0.02 0.03 0.06 0.08 0.09 0.08 0.08 0.08
1.02 0.78 0.78 0.91 0.86 0.62 0.34 0.21 0.11 0.03 0.03 0.08 0.14 0.12 0.06 0.05 0.04 0.01 0.01 0.00 0.00 0.00 0.01 0.09 0.10 0.07 0.11 0.27 0.19 0.16 0.16 0.19 0.21 0.20 0.15 0.16 0.11 0.11 0.19 0.12 0.03 0.01 0.01 0.00 0.04 0.09 0.07 0.09 0.13 0.16 0.19 0.23 0.24 0.24
0.91 0.80 0.88 0.92 0.65 0.45 0.36 0.27 0.12 0.08 0.09 0.14 0.07 0.04 0.04 0.04 0.01 0.00 0.00 0.00 0.00 0.00 0.00 0.01 0.02 0.03 0.06 0.16 0.23 0.20 0.10 0.15 0.13 0.05 0.03 0.02 0.01 0.02 0.03 0.13 0.15 0.08 0.03 0.02 0.03 0.06 0.07 0.05 0.06 0.09 0.10 0.08 0.07 0.05
0.90 1.04 0.97 0.78 0.55 0.48 0.32 0.18 0.11 0.11 0.15 0.09 0.05 0.04 0.01 0.00 0.02 0.01 0.00 0.00 0.00 0.00 0.00 0.01 0.02 0.04 0.07 0.14 0.15 0.12 0.09 0.08 0.06 0.05 0.01 0.00 0.02 0.01 0.03 0.13 0.35 0.26 0.16 0.08 0.06 0.07 0.10 0.11 0.08 0.04 0.01 0.00 0.00 0.00
1.27 1.47 1.12 0.80 0.53 0.41 0.35 0.28 0.25 0.25 0.22 0.10 0.06 0.03 0.01 0.01 0.05 0.03 0.00 0.00 0.00 0.00 0.00 0.03 0.07 0.07 0.07 0.09 0.10 0.08 0.08 0.05 0.08 0.04 0.00 0.00 0.02 0.03 0.08 0.22 0.32 0.19 0.15 0.16 0.12 0.05 0.02 0.01 0.00 0.00 0.00 0.00 0.00 0.00
1.62 1.87 1.34 0.79 0.60 0.49 0.42 0.34 0.34 0.36 0.31 0.13 0.04 0.02 0.04 0.07 0.07 0.02 0.00 0.00 0.00 0.00 0.00 0.02 0.10 0.09 0.07 0.07 0.01 0.01 0.02 0.02 0.04 0.02 0.00 0.00 0.00 0.02 0.08 0.19 0.30 0.18 0.19 0.25 0.21 0.09 0.03 0.01 0.00 0.00 0.00 0.00 0.00 0.00
1.54 1.37 0.88 0.73 0.66 0.59 0.55 0.43 0.39 0.37 0.21 0.06 0.06 0.14 0.15 0.11 0.03 0.00 0.00 0.00 0.00 0.00 0.01 0.04 0.03 0.01 0.02 0.01 0.00 0.01 0.01 0.00 0.01 0.00 0.00 0.00 0.00 0.00 0.02 0.11 0.20 0.22 0.21 0.17 0.12 0.06 0.03 0.02 0.02 0.02 0.02 0.02 0.02 0.01
0.92 0.71 0.61 0.52 0.31 0.34 0.58 0.59 0.26 0.15 0.08 0.10 0.20 0.23 0.13 0.07 0.01 0.00 0.00 0.00 0.00 0.01 0.01 0.02 0.02 0.01 0.00 0.00 0.00 0.01 0.00 0.01 0.01 0.00 0.00 0.00 0.00 0.00 0.00 0.00 0.01 0.03 0.06 0.08 0.09 0.08 0.06 0.05 0.04 0.03 0.04 0.06 0.06 0.07
0.82 0.84 0.80 0.55 0.34 0.34 0.28 0.37 0.15 0.06 0.12 0.20 0.24 0.18 0.06 0.04 0.01 0.00 0.00 0.00 0.00 0.01 0.02 0.01 0.00 0.00 0.00 0.00 0.00 0.00 0.00 0.00 0.00 0.00 0.00 0.00 0.00 0.00 0.00 0.00 0.00 0.00 0.00 0.00 0.00 0.01 0.01 0.01 0.01 0.01 0.00 0.00 0.01 0.01
1.16 1.34 1.17 0.78 0.61 0.25 0.13 0.15 0.11 0.12 0.13 0.19 0.21 0.09 0.04 0.02 0.02 0.01 0.01 0.01 0.04 0.02 0.00 0.00 0.00 0.00 0.00 0.00 0.02 0.00 0.00 0.00 0.00 0.00 0.00 0.00 0.00 0.00 0.00 0.00 0.00 0.00 0.00 0.00 0.00 0.00 0.00 0.00 0.00 0.00 0.00 0.00 0.00 0.00
1.13 0.91 0.77 0.77 0.60 0.38 0.22 0.16 0.12 0.15 0.13 0.19 0.14 0.07 0.05 0.02 0.02 0.02 0.02 0.04 0.02 0.00 0.00 0.00 0.00 0.00 0.00 0.00 0.00 0.00 0.00 0.00 0.00 0.00 0.00 0.00 0.00 0.00 0.00 0.00 0.00 0.00 0.00 0.00 0.00 0.00 0.00 0.00 0.00 0.00 0.00 0.00 0.00 0.00
0.67 0.60 0.71 0.77 0.59 0.37 0.36 0.20 0.18 0.16 0.13 0.14 0.08 0.04 0.03 0.02 0.02 0.02 0.02 0.01 0.00 0.00 0.00 0.00 0.00 0.00 0.00 0.00 0.00 0.00 0.00 0.00 0.00 0.00 0.00 0.00 0.00 0.00 0.00 0.00 0.00 0.00 0.00 0.00 0.00 0.00 0.00 0.00 0.00 0.00 0.00 0.00 0.00 0.00
0.55 0.76 0.72 0.56 0.32 0.27 0.18 0.12 0.10 0.09 0.08 0.06 0.03 0.01 0.01 0.01 0.02 0.01 0.00 0.00 0.00 0.00 0.00 0.00 0.00 0.00 0.00 0.00 0.00 0.00 0.00 0.00 0.00 0.00 0.00 0.00 0.00 0.00 0.00 0.00 0.00 0.00 0.00 0.00 0.00 0.00 0.00 0.00 0.00 0.00 0.00 0.00 0.00 0.00
0.49 0.58 0.38 0.25 0.12 0.07 0.05 0.06 0.06 0.04 0.03 0.02 0.01 0.00 0.01 0.01 0.00 0.00 0.00 0.00 0.00 0.00 0.00 0.00 0.00 0.00 0.00 0.00 0.00 0.00 0.00 0.00 0.00 0.00 0.00 0.00 0.00 0.00 0.00 0.00 0.00 0.00 0.00 0.00 0.00 0.00 0.00 0.00 0.00 0.00 0.00 0.00 0.00 0.00
0.19 0.13 0.06 0.04 0.03 0.01 0.02 0.01 0.01 0.01 0.01 0.01 0.01 0.00 0.01 0.00 0.00 0.00 0.00 0.00 0.00 0.00 0.00 0.00 0.00 0.00 0.00 0.00 0.00 0.00 0.00 0.00 0.00 0.00 0.00 0.00 0.00 0.00 0.00 0.00 0.00 0.00 0.00 0.00 0.00 0.00 0.00 0.00 0.00 0.00 0.00 0.00 0.00 0.00
0.05 0.01 0.00 0.00 0.00 0.00 0.00 0.00 0.00 0.01 0.00 0.00 0.00 0.00 0.00 0.00 0.00 0.00 0.00 0.00 0.00 0.00 0.00 0.00 0.00 0.00 0.00 0.00 0.00 0.00 0.00 0.00 0.00 0.00 0.00 0.00 0.00 0.00 0.00 0.00 0.00 0.00 0.00 0.00 0.00 0.00 0.00 0.00 0.00 0.00 0.00 0.00 0.00 0.00
0.00 0.00 0.00 0.00 0.01 0.01 0.01 0.01 0.00 0.00 0.00 0.00 0.00 0.00 0.00 0.00 0.00 0.00 0.00 0.00 0.00 0.00 0.00 0.00 0.00 0.00 0.00 0.00 0.00 0.00 0.00 0.00 0.00 0.00 0.00 0.00 0.00 0.00 0.00 0.00 0.00 0.00 0.00 0.00 0.00 0.00 0.00 0.00 0.00 0.00 0.00 0.00 0.00 0.00
0.00 0.00 0.00 0.02 0.03 0.01 0.01 0.00 0.00 0.00 0.00 0.00 0.00 0.00 0.00 0.00 0.00 0.00 0.00 0.00 0.00 0.00 0.00 0.00 0.00 0.00 0.00 0.00 0.00 0.00 0.00 0.00 0.00 0.00 0.00 0.00 0.00 0.00 0.00 0.00 0.00 0.00 0.00 0.00 0.00 0.00 0.00 0.00 0.00 0.00 0.01 0.00 0.00 0.00
0.00 0.00 0.01 0.01 0.00 0.00 0.00 0.00 0.00 0.00 0.00 0.00 0.00 0.00 0.00 0.00 0.00 0.00 0.00 0.00 0.00 0.00 0.00 0.00 0.00 0.00 0.00 0.00 0.00 0.00 0.00 0.00 0.00 0.00 0.00 0.00 0.00 0.00 0.00 0.00 0.00 0.00 0.00 0.00 0.00 0.00 0.00 0.00 0.00 0.00 0.00 0.00 0.00 0.00
0.01 0.00 0.00 0.00 0.00 0.00 0.00 0.00 0.00 0.00 0.00 0.00 0.00 0.00 0.00 0.00 0.00 0.00 0.00 0.00 0.00 0.00 0.00 0.00 0.00 0.00 0.00 0.00 0.00 0.00 0.00 0.00 0.00 0.00 0.00 0.00 0.00 0.00 0.00 0.00 0.00 0.00 0.00 0.01 0.01 0.01 0.01 0.01 0.00 0.00 0.01 0.01 0.00 0.01
0.00 0.00 0.00 0.00 0.00 0.00 0.00 0.00 0.00 0.00 0.00 0.00 0.00 0.00 0.00 0.00 0.00 0.00 0.00 0.00 0.00 0.00 0.00 0.00 0.00 0.00 0.00 0.00 0.00 0.00 0.00 0.00 0.00 0.00 0.00 0.01 0.01 0.01 0.00 0.00 0.00 0.01 0.01 0.02 0.01 0.01 0.01 0.01 0.01 0.01 0.01 0.01 0.01 0.00
0.00 0.00 0.00 0.00 0.00 0.00 0.00 0.00 0.00 0.00 0.00 0.00 0.00 0.00 0.00 0.00 0.00 0.00 0.00 0.00 0.00 0.00 0.00 0.00 0.00 0.00 0.00 0.00 0.00 0.00 0.00 0.00 0.00 0.01 0.01 0.02 0.02 0.02 0.03 0.03 0.02 0.03 0.03 0.02 0.01 0.01 0.01 0.01 0.01 0.01 0.01 0.00 0.01 0.01

GFSWCAN_prec_precacc24_099.txt.gz
Total_Precipitation_Accumulation
0.71 0.93 1.12 1.12 0.90 0.83 0.95 0.95 0.78 0.35 0.36 0.63 0.76 0.55 0.32 0.22 0.03 0.00 0.00 0.00 0.00 0.00 0.00 0.00 0.00 0.00 0.00 0.00 0.00 0.00 0.00 0.00 0.01 0.10 0.27 0.24 0.11 0.04 0.04 0.07 0.04 0.07 0.17 0.17 0.12 0.15 0.03 0.00 0.00 0.00 0.00 0.00 0.00 0.00
0.85 0.88 0.98 1.01 1.01 1.20 0.98 0.60 0.58 0.54 0.33 0.30 0.58 0.58 0.42 0.17 0.03 0.00 0.00 0.00 0.00 0.00 0.00 0.00 0.00 0.00 0.00 0.00 0.00 0.00 0.00 0.00 0.01 0.05 0.17 0.18 0.23 0.23 0.09 0.06 0.02 0.03 0.03 0.08 0.07 0.05 0.01 0.01 0.00 0.00 0.00 0.00 0.00 0.01
0.83 0.93 0.95 0.90 0.84 0.91 1.38 0.88 0.55 0.48 0.38 0.31 0.30 0.36 0.35 0.19 0.03 0.00 0.00 0.00 0.00 0.00 0.00 0.00 0.00 0.00 0.00 0.00 0.00 0.01 0.00 0.00 0.00 0.00 0.00 0.02 0.06 0.15 0.12 0.11 0.06 0.07 0.03 0.01 0.00 0.01 0.04 0.16 0.17 0.08 0.04 0.01 0.00 0.00
0.74 0.91 0.97 0.88 0.91 0.79 1.09 1.40 0.84 0.54 0.36 0.31 0.29 0.21 0.20 0.17 0.03 0.00 0.00 0.00 0.00 0.01 0.02 0.00 0.00 0.00 0.00 0.00 0.00 0.00 0.00 0.00 0.00 0.01 0.02 0.02 0.01 0.05 0.06 0.04 0.03 0.02 0.02 0.02 0.00 0.00 0.00 0.00 0.02 0.05 0.07 0.07 0.05 0.02
0.78 0.84 0.97 1.00 0.94 1.03 0.91 1.20 1.14 0.67 0.43 0.33 0.30 0.20 0.17 0.10 0.04 0.03 0.02 0.01 0.00 0.01 0.01 0.00 0.00 0.00 0.00 0.00 0.00 0.00 0.00 0.00 0.01 0.03 0.03 0.02 0.00 0.01 0.01 0.02 0.01 0.00 0.00 0.01 0.01 0.01 0.00 0.00 0.00 0.00 0.00 0.01 0.03 0.03
0.84 0.83 0.99 1.06 1.14 1.10 1.07 0.94 0.97 0.71 0.48 0.33 0.27 0.24 0.14 0.09 0.07 0.06 0.04 0.01 0.00 0.00 0.01 0.01 0.00 0.00 0.00 0.00 0.00 0.00 0.00 0.00 0.04 0.06 0.03 0.01 0.00 0.04 0.03 0.02 0.00 0.00 0.00 0.00 0.00 0.00 0.00 0.00 0.00 0.00 0.00 0.00 0.00 0.01
0.73 0.80 0.87 1.01 1.18 1.25 1.08 0.90 0.92 0.64 0.50 0.36 0.27 0.18 0.13 0.08 0.04 0.01 0.00 0.00 0.00 0.00 0.01 0.00 0.00 0.00 0.00 0.00 0.00 0.00 0.01 0.02 0.05 0.08 0.04 0.01 0.01 0.14 0.13 0.01 0.00 0.00 0.00 0.00 0.00 0.00 0.01 0.00 0.00 0.00 0.01 0.01 0.01 0.01
0.76 0.85 0.84 0.89 1.02 1.21 1.13 0.95 1.05 0.66 0.61 0.43 0.30 0.22 0.14 0.07 0.05 0.02 0.02 0.02 0.01 0.00 0.00 0.00 0.00 0.00 0.00 0.00 0.00 0.00 0.04 0.07 0.07 0.04 0.03 0.02 0.02 0.04 0.03 0.00 0.00 0.00 0.01 0.00 0.00 0.00 0.00 0.00 0.00 0.00 0.01 0.02 0.03 0.03
0.75 0.85 0.88 0.91 1.05 1.04 1.01 1.03 1.07 0.71 0.58 0.39 0.27 0.19 0.15 0.11 0.07 0.04 0.04 0.04 0.01 0.00 0.00 0.00 0.00 0.00 0.00 0.00 0.01 0.04 0.07 0.08 0.06 0.08 0.02 0.04 0.04 0.05 0.00 0.01 0.01 0.02 0.03 0.01 0.00 0.00 0.00 0.01 0.00 0.00 0.01 0.04 0.07 0.09
0.74 0.80 0.82 0.92 1.11 1.10 1.04 1.04 0.83 0.55 0.40 0.31 0.26 0.27 0.26 0.16 0.07 0.04 0.03 0.03 0.03 0.04 0.02 0.01 0.00 0.00 0.00 0.00 0.02 0.04 0.06 0.04 0.05 0.01 0.03 0.05 0.01 0.00 0.03 0.06 0.03 0.00 0.01 0.00 0.00 0.01 0.00 0.00 0.00 0.00 0.00 0.03 0.06 0.15
0.81 0.77 0.80 0.97 1.10 1.10 1.10 0.83 0.52 0.37 0.37 0.33 0.30 0.18 0.18 0.12 0.04 0.02 0.02 0.01 0.01 0.01 0.00 0.00 0.01 0.02 0.01 0.03 0.03 0.04 0.05 0.06 0.08 0.08 0.07 0.10 0.20 0.22 0.08 0.04 0.00 0.00 0.01 0.01 0.00 0.00 0.00 0.00 0.01 0.01 0.02 0.02 0.03 0.07
0.98 0.79 0.78 0.98 1.06 1.08 0.83 0.43 0.31 0.28 0.25 0.16 0.06 0.09 0.12 0.07 0.03 0.02 0.01 0.01 0.00 0.00 0.00 0.00 0.01 0.01 0.01 0.05 0.06 0.03 0.09 0.15 0.16 0.12 0.13 0.27 0.42 0.33 0.14 0.03 0.01 0.00 0.00 0.01 0.01 0.03 0.02 0.03 0.06 0.09 0.10 0.09 0.09 0.10
1.03 0.79 0.78 0.92 1.01 0.94 0.42 0.22 0.11 0.04 0.04 0.10 0.19 0.16 0.08 0.05 0.02 0.01 0.00 0.00 0.00 0.00 0.00 0.01 0.01 0.01 0.03 0.11 0.06 0.09 0.12 0.13 0.16 0.14 0.10 0.14 0.11 0.11 0.19 0.12 0.03 0.01 0.01 0.00 0.04 0.09 0.07 0.09 0.13 0.16 0.20 0.24 0.26 0.26
0.92 0.80 0.89 0.98 0.97 0.59 0.39 0.31 0.16 0.10 0.11 0.19 0.12 0.07 0.04 0.03 0.01 0.00 0.00 0.00 0.00 0.00 0.00 0.00 0.01 0.01 0.02 0.06 0.09 0.13 0.06 0.14 0.12 0.04 0.02 0.02 0.01 0.02 0.03 0.13 0.13 0.06 0.02 0.02 0.03 0.07 0.07 0.05 0.05 0.08 0.09 0.07 0.07 0.06
0.91 1.05 1.07 0.96 0.80 0.58 0.42 0.24 0.15 0.17 0.23 0.11 0.05 0.04 0.01 0.00 0.02 0.01 0.00 0.00 0.00 0.00 0.00 0.00 0.01 0.02 0.04 0.06 0.07 0.09 0.08 0.07 0.05 0.04 0.01 0.00 0.02 0.01 0.03 0.10 0.25 0.20 0.15 0.08 0.06 0.07 0.09 0.10 0.08 0.04 0.01 0.00 0.00 0.00
1.30 1.58 1.42 1.02 0.78 0.58 0.53 0.42 0.41 0.41 0.27 0.10 0.06 0.03 0.01 0.01 0.05 0.03 0.00 0.00 0.00 0.00 0.00 0.01 0.03 0.05 0.06 0.06 0.06 0.05 0.06 0.03 0.05 0.04 0.00 0.00 0.02 0.03 0.08 0.21 0.28 0.17 0.15 0.16 0.12 0.05 0.02 0.01 0.00 0.00 0.00 0.00 0.00 0.00
1.73 2.15 1.75 1.05 0.87 0.74 0.64 0.52 0.47 0.46 0.38 0.14 0.04 0.02 0.04 0.07 0.07 0.02 0.00 0.00 0.00 0.00 0.00 0.01 0.03 0.04 0.06 0.06 0.01 0.01 0.02 0.01 0.01 0.02 0.00 0.00 0.00 0.02 0.08 0.19 0.27 0.17 0.19 0.25 0.21 0.09 0.03 0.01 0.00 0.00 0.00 0.00 0.00 0.00
1.73 1.69 1.22 1.02 0.91 0.83 0.77 0.62 0.54 0.48 0.26 0.08 0.06 0.14 0.16 0.12 0.03 0.01 0.00 0.00 0.00 0.00 0.00 0.01 0.01 0.00 0.01 0.01 0.00 0.01 0.01 0.00 0.00 0.00 0.00 0.00 0.00 0.00 0.02 0.11 0.20 0.22 0.21 0.17 0.12 0.06 0.04 0.02 0.02 0.02 0.03 0.03 0.02 0.03
1.28 0.94 0.79 0.62 0.40 0.51 0.83 0.81 0.31 0.14 0.10 0.11 0.24 0.29 0.19 0.11 0.02 0.00 0.00 0.00 0.00 0.01 0.01 0.01 0.00 0.00 0.00 0.00 0.00 0.00 0.00 0.00 0.01 0.00 0.00 0.00 0.00 0.00 0.00 0.00 0.01 0.03 0.06 0.08 0.09 0.08 0.06 0.05 0.04 0.03 0.04 0.06 0.06 0.10
1.18 0.99 0.88 0.67 0.49 0.47 0.34 0.44 0.15 0.06 0.13 0.23 0.31 0.26 0.13 0.07 0.02 0.00 0.00 0.00 0.00 0.01 0.02 0.01 0.00 0.00 0.00 0.00 0.00 0.00 0.00 0.00 0.00 0.00 0.00 0.00 0.00 0.00 0.00 0.00 0.00 0.00 0.00 0.00 0.00 0.01 0.01 0.01 0.01 0.01 0.00 0.00 0.01 0.01
1.50 1.54 1.35 0.95 0.72 0.27 0.16 0.17 0.12 0.14 0.17 0.27 0.32 0.18 0.12 0.06 0.04 0.01 0.01 0.01 0.03 0.02 0.00 0.00 0.00 0.00 0.00 0.00 0.00 0.00 0.00 0.00 0.00 0.00 0.00 0.00 0.00 0.00 0.00 0.00 0.00 0.00 0.00 0.00 0.00 0.00 0.00 0.00 0.00 0.00 0.00 0.00 0.00 0.00
1.40 1.10 0.88 0.78 0.57 0.38 0.24 0.18 0.14 0.18 0.18 0.28 0.24 0.14 0.10 0.06 0.05 0.03 0.02 0.03 0.02 0.00 0.00 0.00 0.00 0.00 0.00 0.00 0.00 0.00 0.00 0.00 0.00 0.00 0.00 0.00 0.00 0.00 0.00 0.00 0.00 0.00 0.00 0.00 0.00 0.00 0.00 0.00 0.00 0.00 0.00 0.00 0.00 0.00
0.74 0.67 0.81 0.87 0.68 0.42 0.39 0.27 0.25 0.23 0.23 0.27 0.21 0.12 0.08 0.05 0.03 0.03 0.01 0.01 0.00 0.00 0.00 0.00 0.00 0.00 0.00 0.00 0.00 0.00 0.00 0.00 0.00 0.00 0.00 0.00 0.00 0.00 0.00 0.00 0.00 0.00 0.00 0.00 0.00 0.00 0.00 0.00 0.00 0.00 0.00 0.00 0.00 0.00
0.69 0.96 0.94 0.71 0.39 0.29 0.21 0.18 0.15 0.14 0.17 0.16 0.11 0.06 0.04 0.03 0.03 0.01 0.00 0.00 0.00 0.00 0.00 0.00 0.00 0.00 0.00 0.00 0.00 0.00 0.00 0.00 0.00 0.00 0.00 0.00 0.00 0.00 0.00 0.00 0.00 0.00 0.00 0.00 0.00 0.00 0.00 0.00 0.00 0.00 0.00 0.00 0.00 0.00
0.72 0.76 0.49 0.33 0.16 0.09 0.07 0.09 0.12 0.11 0.10 0.08 0.06 0.03 0.02 0.02 0.01 0.00 0.00 0.00 0.00 0.00 0.00 0.00 0.00 0.00 0.00 0.00 0.00 0.00 0.00 0.00 0.00 0.00 0.00 0.00 0.00 0.00 0.00 0.00 0.00 0.00 0.00 0.00 0.00 0.00 0.00 0.00 0.00 0.00 0.00 0.00 0.00 0.00
0.32 0.20 0.11 0.07 0.04 0.03 0.05 0.06 0.08 0.07 0.07 0.07 0.03 0.01 0.01 0.00 0.00 0.00 0.00 0.00 0.00 0.00 0.00 0.00 0.00 0.00 0.00 0.00 0.00 0.00 0.00 0.00 0.00 0.00 0.00 0.00 0.00 0.00 0.00 0.00 0.00 0.00 0.00 0.00 0.00 0.00 0.00 0.00 0.00 0.00 0.00 0.00 0.00 0.00
0.10 0.02 0.00 0.00 0.00 0.01 0.01 0.02 0.03 0.04 0.04 0.01 0.00 0.00 0.00 0.00 0.00 0.00 0.00 0.00 0.00 0.00 0.00 0.00 0.00 0.00 0.00 0.00 0.00 0.00 0.00 0.00 0.00 0.00 0.00 0.00 0.00 0.00 0.00 0.00 0.00 0.00 0.00 0.00 0.00 0.00 0.00 0.00 0.00 0.00 0.00 0.00 0.00 0.00
0.01 0.00 0.00 0.00 0.00 0.01 0.01 0.02 0.02 0.01 0.00 0.00 0.00 0.00 0.00 0.00 0.00 0.00 0.00 0.00 0.00 0.00 0.00 0.00 0.00 0.00 0.00 0.00 0.00 0.00 0.00 0.00 0.00 0.00 0.00 0.00 0.00 0.00 0.00 0.00 0.00 0.00 0.00 0.00 0.00 0.00 0.00 0.00 0.00 0.00 0.00 0.00 0.00 0.00
0.00 0.00 0.01 0.03 0.04 0.03 0.03 0.02 0.00 0.00 0.00 0.00 0.00 0.00 0.00 0.00 0.00 0.00 0.00 0.00 0.00 0.00 0.00 0.00 0.00 0.00 0.00 0.00 0.00 0.00 0.00 0.00 0.00 0.00 0.00 0.00 0.00 0.00 0.00 0.00 0.00 0.00 0.00 0.00 0.00 0.00 0.00 0.00 0.00 0.01 0.02 0.01 0.00 0.00
0.01 0.02 0.03 0.04 0.02 0.01 0.01 0.00 0.00 0.00 0.00 0.00 0.00 0.00 0.00 0.00 0.00 0.00 0.00 0.00 0.00 0.00 0.00 0.00 0.00 0.00 0.00 0.00 0.00 0.00 0.00 0.00 0.00 0.00 0.00 0.00 0.00 0.00 0.00 0.00 0.00 0.00 0.00 0.00 0.00 0.00 0.00 0.00 0.00 0.00 0.00 0.00 0.00 0.00
0.03 0.02 0.02 0.01 0.00 0.00 0.00 0.00 0.00 0.00 0.00 0.00 0.00 0.00 0.00 0.00 0.00 0.00 0.00 0.00 0.00 0.00 0.00 0.00 0.00 0.00 0.00 0.00 0.00 0.00 0.00 0.00 0.00 0.00 0.00 0.00 0.00 0.00 0.00 0.00 0.00 0.00 0.00 0.01 0.01 0.01 0.01 0.01 0.00 0.00 0.01 0.01 0.00 0.01
0.03 0.02 0.00 0.00 0.01 0.01 0.00 0.00 0.00 0.00 0.00 0.00 0.00 0.00 0.00 0.00 0.00 0.00 0.00 0.00 0.00 0.00 0.00 0.00 0.00 0.00 0.00 0.00 0.00 0.00 0.00 0.00 0.00 0.00 0.00 0.01 0.01 0.01 0.00 0.00 0.00 0.01 0.01 0.02 0.02 0.01 0.01 0.01 0.01 0.01 0.01 0.01 0.01 0.00
0.02 0.01 0.00 0.00 0.00 0.00 0.00 0.00 0.00 0.00 0.00 0.00 0.00 0.00 0.00 0.00 0.00 0.00 0.00 0.00 0.00 0.00 0.00 0.00 0.00 0.00 0.00 0.00 0.00 0.00 0.00 0.00 0.00 0.01 0.01 0.02 0.02 0.03 0.03 0.03 0.02 0.03 0.03 0.02 0.01 0.01 0.01 0.01 0.01 0.01 0.01 0.00 0.01 0.01

GFSWCAN_prec_precacc24_102.txt.gz
Total_Precipitation_Accumulation
0.53 0.78 1.10 1.13 0.91 0.84 0.96 0.96 0.78 0.35 0.36 0.63 0.78 0.75 0.58 0.32 0.13 0.01 0.00 0.00 0.00 0.00 0.00 0.00 0.00 0.00 0.00 0.00 0.00 0.00 0.00 0.00 0.00 0.01 0.11 0.10 0.05 0.03 0.04 0.07 0.04 0.07 0.16 0.15 0.11 0.14 0.03 0.00 0.00 0.00 0.00 0.00 0.00 0.01
0.58 0.70 0.94 1.02 1.03 1.21 0.99 0.61 0.58 0.54 0.33 0.30 0.60 0.66 0.68 0.32 0.13 0.00 0.00 0.00 0.00 0.00 0.00 0.00 0.00 0.00 0.00 0.00 0.00 0.00 0.00 0.00 0.00 0.00 0.01 0.04 0.11 0.17 0.09 0.06 0.02 0.03 0.03 0.08 0.07 0.05 0.01 0.01 0.00 0.00 0.00 0.00 0.00 0.01
0.63 0.75 0.88 0.91 0.85 0.93 1.39 0.88 0.55 0.47 0.38 0.30 0.32 0.42 0.50 0.37 0.08 0.00 0.00 0.00 0.00 0.00 0.00 0.00 0.00 0.00 0.00 0.00 0.00 0.01 0.00 0.00 0.00 0.00 0.00 0.00 0.02 0.04 0.06 0.10 0.06 0.07 0.03 0.01 0.00 0.01 0.04 0.16 0.17 0.08 0.04 0.01 0.00 0.00
0.59 0.79 0.93 0.86 0.92 0.81 1.11 1.40 0.83 0.54 0.35 0.31 0.30 0.29 0.32 0.32 0.07 0.00 0.00 0.00 0.00 0.00 0.00 0.00 0.00 0.00 0.00 0.00 0.00 0.00 0.00 0.00 0.00 0.01 0.01 0.01 0.00 0.00 0.00 0.01 0.02 0.02 0.02 0.02 0.00 0.00 0.00 0.00 0.02 0.05 0.07 0.07 0.05 0.03
0.61 0.78 0.93 0.98 0.95 1.05 0.92 1.20 1.13 0.67 0.43 0.33 0.31 0.29 0.29 0.23 0.07 0.02 0.01 0.01 0.00 0.01 0.00 0.00 0.00 0.00 0.00 0.00 0.00 0.00 0.00 0.00 0.01 0.02 0.02 0.01 0.00 0.00 0.00 0.00 0.00 0.00 0.00 0.01 0.01 0.01 0.00 0.00 0.00 0.00 0.00 0.01 0.03 0.03
0.60 0.73 0.97 1.07 1.16 1.13 1.08 0.94 0.97 0.71 0.48 0.33 0.31 0.35 0.28 0.17 0.07 0.05 0.03 0.00 0.00 0.00 0.00 0.00 0.00 0.00 0.00 0.00 0.00 0.00 0.00 0.00 0.02 0.04 0.02 0.01 0.00 0.00 0.00 0.01 0.00 0.00 0.00 0.00 0.00 0.00 0.00 0.00 0.00 0.00 0.00 0.00 0.00 0.01
0.61 0.74 0.85 1.02 1.20 1.27 1.08 0.90 0.93 0.65 0.50 0.39 0.35 0.28 0.20 0.12 0.06 0.02 0.00 0.00 0.00 0.00 0.00 0.00 0.00 0.00 0.00 0.00 0.00 0.00 0.01 0.02 0.04 0.06 0.03 0.01 0.00 0.07 0.06 0.00 0.00 0.00 0.00 0.00 0.00 0.00 0.01 0.00 0.00 0.00 0.01 0.01 0.01 0.01
0.72 0.84 0.85 0.92 1.05 1.23 1.13 0.95 1.05 0.67 0.64 0.50 0.43 0.32 0.26 0.14 0.08 0.02 0.01 0.00 0.00 0.00 0.00 0.00 0.00 0.00 0.00 0.00 0.00 0.00 0.03 0.05 0.05 0.03 0.02 0.01 0.01 0.03 0.03 0.00 0.00 0.00 0.01 0.00 0.00 0.00 0.00 0.00 0.00 0.00 0.01 0.02 0.03 0.04
0.74 0.88 0.91 0.95 1.08 1.05 1.01 1.03 1.09 0.80 0.71 0.54 0.38 0.28 0.23 0.16 0.11 0.05 0.02 0.01 0.00 0.00 0.00 0.00 0.00 0.00 0.00 0.00 0.00 0.03 0.05 0.04 0.03 0.04 0.01 0.03 0.03 0.03 0.00 0.01 0.01 0.02 0.03 0.01 0.00 0.00 0.00 0.01 0.00 0.00 0.01 0.04 0.07 0.09
0.77 0.84 0.87 0.96 1.12 1.10 1.04 1.12 0.99 0.71 0.54 0.39 0.30 0.34 0.40 0.25 0.09 0.03 0.02 0.01 0.01 0.01 0.00 0.00 0.00 0.00 0.00 0.00 0.01 0.02 0.04 0.03 0.03 0.01 0.02 0.04 0.01 0.00 0.03 0.06 0.03 0.00 0.01 0.00 0.00 0.01 0.00 0.00 0.00 0.00 0.00 0.03 0.07 0.16
0.87 0.82 0.85 1.00 1.10 1.11 1.14 1.14 0.69 0.50 0.44 0.37 0.35 0.25 0.24 0.15 0.11 0.05 0.02 0.01 0.01 0.00 0.00 0.00 0.00 0.00 0.00 0.00 0.01 0.01 0.03 0.03 0.02 0.02 0.05 0.03 0.09 0.20 0.08 0.04 0.00 0.00 0.01 0.01 0.00 0.00 0.00 0.00 0.01 0.01 0.02 0.03 0.03 0.07
1.01 0.82 0.80 0.99 1.08 1.09 1.06 0.76 0.43 0.34 0.31 0.18 0.07 0.11 0.15 0.18 0.14 0.05 0.02 0.01 0.00 0.00 0.00 0.00 0.00 0.00 0.00 0.01 0.02 0.01 0.05 0.07 0.04 0.05 0.06 0.07 0.18 0.21 0.12 0.03 0.01 0.00 0.00 0.01 0.01 0.03 0.02 0.03 0.06 0.09 0.10 0.09 0.09 0.10
1.05 0.81 0.80 0.94 1.02 1.01 0.74 0.37 0.18 0.08 0.04 0.10 0.20 0.18 0.15 0.09 0.02 0.00 0.00 0.00 0.00 0.00 0.00 0.00 0.00 0.01 0.02 0.05 0.03 0.03 0.06 0.07 0.10 0.07 0.04 0.09 0.06 0.08 0.16 0.11 0.03 0.01 0.01 0.00 0.04 0.09 0.07 0.10 0.13 0.16 0.20 0.24 0.26 0.26
0.94 0.82 0.90 0.98 0.98 0.73 0.62 0.47 0.20 0.11 0.11 0.19 0.13 0.08 0.04 0.03 0.00 0.00 0.00 0.00 0.00 0.00 0.00 0.00 0.00 0.01 0.01 0.04 0.04 0.05 0.03 0.11 0.11 0.04 0.02 0.01 0.01 0.02 0.03 0.12 0.13 0.06 0.02 0.02 0.03 0.07 0.07 0.05 0.05 0.08 0.09 0.07 0.07 0.06
0.93 1.05 1.07 0.98 0.88 0.75 0.55 0.34 0.19 0.19 0.24 0.12 0.05 0.04 0.01 0.00 0.02 0.01 0.00 0.00 0.00 0.00 0.00 0.00 0.00 0.01 0.02 0.04 0.04 0.05 0.06 0.06 0.04 0.02 0.00 0.00 0.01 0.01 0.03 0.06 0.15 0.16 0.12 0.08 0.06 0.07 0.09 0.10 0.07 0.04 0.01 0.00 0.00 0.00
1.30 1.58 1.44 1.20 0.96 0.75 0.70 0.57 0.49 0.48 0.30 0.11 0.06 0.03 0.01 0.01 0.05 0.03 0.00 0.00 0.00 0.00 0.00 0.00 0.01 0.02 0.03 0.04 0.04 0.03 0.04 0.02 0.02 0.01 0.00 0.00 0.02 0.03 0.07 0.16 0.19 0.13 0.14 0.16 0.12 0.05 0.02 0.01 0.00 0.00 0.00 0.00 0.00 0.00
1.73 2.15 1.86 1.38 1.17 0.99 0.82 0.66 0.59 0.54 0.44 0.15 0.04 0.02 0.04 0.07 0.07 0.02 0.00 0.00 0.00 0.00 0.00 0.00 0.01 0.01 0.03 0.04 0.01 0.01 0.02 0.00 0.00 0.00 0.00 0.00 0.00 0.02 0.08 0.15 0.20 0.15 0.19 0.25 0.21 0.09 0.03 0.01 0.00 0.00 0.00 0.00 0.00 0.00
1.74 1.71 1.33 1.37 1.23 1.07 0.94 0.79 0.69 0.56 0.30 0.09 0.07 0.15 0.16 0.12 0.03 0.01 0.00 0.00 0.00 0.00 0.00 0.00 0.00 0.00 0.00 0.00 0.00 0.01 0.01 0.00 0.00 0.00 0.00 0.00 0.00 0.00 0.02 0.09 0.16 0.21 0.21 0.17 0.12 0.06 0.04 0.02 0.02 0.02 0.03 0.03 0.02 0.03
1.36 1.07 0.92 0.76 0.48 0.66 1.04 1.00 0.40 0.13 0.10 0.12 0.28 0.34 0.22 0.12 0.02 0.00 0.00 0.00 0.00 0.00 0.00 0.00 0.00 0.00 0.00 0.00 0.00 0.00 0.00 0.00 0.00 0.00 0.00 0.00 0.00 0.00 0.00 0.00 0.01 0.03 0.06 0.08 0.09 0.08 0.06 0.05 0.04 0.03 0.04 0.06 0.06 0.10
1.39 1.13 0.94 0.75 0.58 0.58 0.40 0.52 0.17 0.05 0.13 0.26 0.37 0.36 0.21 0.13 0.04 0.00 0.00 0.00 0.00 0.01 0.02 0.01 0.00 0.00 0.00 0.00 0.00 0.00 0.00 0.00 0.00 0.00 0.00 0.00 0.00 0.00 0.00 0.00 0.00 0.00 0.00 0.00 0.00 0.01 0.01 0.01 0.01 0.01 0.00 0.00 0.01 0.01
1.85 1.75 1.42 1.03 0.77 0.31 0.18 0.20 0.13 0.15 0.20 0.32 0.39 0.28 0.22 0.15 0.08 0.02 0.01 0.01 0.03 0.02 0.00 0.00 0.00 0.00 0.00 0.00 0.00 0.00 0.00 0.00 0.00 0.00 0.00 0.00 0.00 0.00 0.00 0.00 0.00 0.00 0.00 0.00 0.00 0.00 0.00 0.00 0.00 0.00 0.00 0.00 0.00 0.00
1.58 1.27 0.98 0.80 0.58 0.41 0.27 0.19 0.14 0.19 0.21 0.34 0.31 0.20 0.16 0.11 0.08 0.04 0.02 0.03 0.01 0.00 0.00 0.00 0.00 0.00 0.00 0.00 0.00 0.00 0.00 0.00 0.00 0.00 0.00 0.00 0.00 0.00 0.00 0.00 0.00 0.00 0.00 0.00 0.00 0.00 0.00 0.00 0.00 0.00 0.00 0.00 0.00 0.00
0.75 0.70 0.86 0.95 0.77 0.47 0.42 0.29 0.28 0.29 0.30 0.35 0.30 0.19 0.14 0.08 0.05 0.04 0.01 0.00 0.00 0.00 0.00 0.00 0.00 0.00 0.00 0.00 0.00 0.00 0.00 0.00 0.00 0.00 0.00 0.00 0.00 0.00 0.00 0.00 0.00 0.00 0.00 0.00 0.00 0.00 0.00 0.00 0.00 0.00 0.00 0.00 0.00 0.00
0.74 1.07 1.10 0.81 0.44 0.29 0.23 0.21 0.20 0.19 0.24 0.25 0.19 0.11 0.07 0.05 0.06 0.03 0.00 0.00 0.00 0.00 0.00 0.00 0.00 0.00 0.00 0.00 0.00 0.00 0.00 0.00 0.00 0.00 0.00 0.00 0.00 0.00 0.00 0.00 0.00 0.00 0.00 0.00 0.00 0.00 0.00 0.00 0.00 0.00 0.00 0.00 0.00 0.00
0.89 0.90 0.55 0.36 0.17 0.09 0.08 0.11 0.16 0.14 0.14 0.14 0.11 0.07 0.05 0.05 0.02 0.00 0.00 0.00 0.00 0.00 0.00 0.00 0.00 0.00 0.00 0.00 0.00 0.00 0.00 0.00 0.00 0.00 0.00 0.00 0.00 0.00 0.00 0.00 0.00 0.00 0.00 0.00 0.00 0.00 0.00 0.00 0.00 0.00 0.00 0.00 0.00 0.00
0.41 0.25 0.15 0.09 0.05 0.03 0.05 0.07 0.10 0.10 0.12 0.13 0.08 0.05 0.04 0.02 0.00 0.00 0.00 0.00 0.00 0.00 0.00 0.00 0.00 0.00 0.00 0.00 0.00 0.00 0.00 0.00 0.00 0.00 0.00 0.00 0.00 0.00 0.00 0.00 0.00 0.00 0.00 0.00 0.00 0.00 0.00 0.00 0.00 0.00 0.00 0.00 0.00 0.00
0.13 0.03 0.00 0.00 0.01 0.01 0.02 0.05 0.08 0.11 0.11 0.06 0.03 0.02 0.02 0.01 0.00 0.00 0.00 0.00 0.00 0.00 0.00 0.00 0.00 0.00 0.00 0.00 0.00 0.00 0.00 0.00 0.00 0.00 0.00 0.00 0.00 0.00 0.00 0.00 0.00 0.00 0.00 0.00 0.00 0.00 0.00 0.00 0.00 0.00 0.00 0.00 0.00 0.00
0.02 0.00 0.00 0.00 0.01 0.01 0.02 0.05 0.06 0.06 0.04 0.02 0.02 0.02 0.01 0.00 0.00 0.00 0.00 0.00 0.00 0.00 0.00 0.00 0.00 0.00 0.00 0.00 0.00 0.00 0.00 0.00 0.00 0.00 0.00 0.00 0.00 0.00 0.00 0.00 0.00 0.00 0.00 0.00 0.00 0.00 0.00 0.00 0.00 0.00 0.00 0.00 0.00 0.00
0.00 0.00 0.01 0.04 0.06 0.07 0.08 0.05 0.02 0.01 0.00 0.00 0.00 0.00 0.00 0.00 0.00 0.00 0.00 0.00 0.00 0.00 0.00 0.00 0.00 0.00 0.00 0.00 0.00 0.00 0.00 0.00 0.00 0.00 0.00 0.00 0.00 0.00 0.00 0.00 0.00 0.00 0.00 0.00 0.00 0.00 0.00 0.01 0.01 0.02 0.02 0.01 0.00 0.00
0.03 0.03 0.05 0.07 0.06 0.05 0.04 0.03 0.02 0.00 0.00 0.00 0.00 0.00 0.00 0.00 0.00 0.00 0.00 0.00 0.00 0.00 0.00 0.00 0.00 0.00 0.00 0.00 0.00 0.00 0.00 0.00 0.00 0.00 0.00 0.00 0.00 0.00 0.00 0.00 0.00 0.00 0.00 0.00 0.00 0.00 0.00 0.00 0.00 0.00 0.00 0.00 0.00 0.00
0.07 0.06 0.05 0.04 0.03 0.02 0.03 0.03 0.02 0.01 0.00 0.00 0.00 0.00 0.00 0.00 0.00 0.00 0.00 0.00 0.00 0.00 0.00 0.00 0.00 0.00 0.00 0.00 0.00 0.00 0.00 0.00 0.00 0.00 0.00 0.00 0.00 0.00 0.00 0.00 0.00 0.00 0.00 0.01 0.01 0.01 0.01 0.01 0.01 0.01 0.01 0.00 0.00 0.01
0.06 0.04 0.02 0.02 0.03 0.03 0.02 0.01 0.00 0.00 0.00 0.00 0.00 0.00 0.00 0.00 0.00 0.00 0.00 0.00 0.00 0.00 0.00 0.00 0.00 0.00 0.00 0.00 0.00 0.00 0.00 0.00 0.00 0.00 0.00 0.01 0.01 0.01 0.00 0.00 0.00 0.01 0.02 0.02 0.02 0.01 0.01 0.02 0.01 0.01 0.01 0.01 0.01 0.00
0.04 0.02 0.01 0.01 0.02 0.01 0.01 0.00 0.00 0.00 0.00 0.00 0.00 0.00 0.00 0.00 0.00 0.00 0.00 0.00 0.00 0.00 0.00 0.00 0.00 0.00 0.00 0.00 0.00 0.00 0.00 0.00 0.00 0.01 0.01 0.02 0.02 0.02 0.03 0.03 0.03 0.03 0.03 0.02 0.02 0.01 0.01 0.01 0.01 0.01 0.01 0.01 0.01 0.01

GFSWCAN_prec_precacc24_105.txt.gz
Total_Precipitation_Accumulation
0.32 0.54 0.94 1.03 0.88 0.85 0.97 0.96 0.78 0.35 0.36 0.63 0.79 0.81 0.78 0.46 0.15 0.01 0.00 0.00 0.00 0.00 0.00 0.00 0.00 0.00 0.00 0.00 0.00 0.00 0.00 0.00 0.00 0.00 0.01 0.03 0.02 0.02 0.03 0.07 0.04 0.07 0.16 0.13 0.09 0.12 0.02 0.00 0.00 0.00 0.00 0.00 0.00 0.01
0.27 0.36 0.74 0.92 0.97 1.21 0.99 0.62 0.58 0.54 0.33 0.30 0.60 0.67 0.78 0.50 0.20 0.02 0.00 0.00 0.00 0.00 0.00 0.00 0.00 0.00 0.00 0.00 0.00 0.00 0.00 0.00 0.00 0.00 0.00 0.00 0.00 0.01 0.02 0.02 0.00 0.02 0.03 0.08 0.07 0.05 0.01 0.01 0.00 0.00 0.00 0.00 0.00 0.01
0.34 0.36 0.55 0.82 0.82 0.93 1.39 0.89 0.55 0.47 0.38 0.30 0.32 0.43 0.53 0.48 0.20 0.02 0.00 0.00 0.00 0.00 0.00 0.00 0.00 0.00 0.00 0.00 0.00 0.00 0.00 0.00 0.00 0.00 0.00 0.00 0.00 0.00 0.01 0.01 0.01 0.05 0.03 0.01 0.00 0.01 0.04 0.16 0.17 0.08 0.04 0.01 0.00 0.00
0.34 0.40 0.58 0.73 0.90 0.82 1.11 1.40 0.84 0.54 0.35 0.31 0.30 0.29 0.33 0.39 0.15 0.03 0.00 0.00 0.00 0.00 0.00 0.00 0.00 0.00 0.00 0.00 0.00 0.00 0.00 0.00 0.00 0.00 0.01 0.00 0.00 0.00 0.00 0.00 0.00 0.01 0.02 0.02 0.00 0.00 0.00 0.00 0.02 0.05 0.07 0.07 0.05 0.03
0.36 0.36 0.51 0.82 0.93 1.06 0.93 1.20 1.13 0.67 0.42 0.33 0.30 0.30 0.32 0.30 0.10 0.02 0.00 0.00 0.00 0.00 0.00 0.00 0.00 0.00 0.00 0.00 0.00 0.00 0.00 0.00 0.01 0.01 0.01 0.01 0.00 0.00 0.00 0.00 0.00 0.00 0.00 0.01 0.01 0.01 0.00 0.00 0.00 0.00 0.00 0.01 0.03 0.03
0.34 0.33 0.46 0.80 1.09 1.11 1.09 0.94 0.97 0.71 0.48 0.33 0.31 0.36 0.38 0.30 0.09 0.03 0.01 0.00 0.00 0.00 0.00 0.00 0.00 0.00 0.00 0.00 0.00 0.00 0.00 0.00 0.02 0.03 0.01 0.01 0.00 0.00 0.00 0.00 0.00 0.00 0.00 0.00 0.00 0.00 0.00 0.00 0.00 0.00 0.00 0.00 0.00 0.01
0.33 0.34 0.45 0.75 1.04 1.21 1.07 0.90 0.92 0.65 0.50 0.38 0.35 0.30 0.31 0.26 0.08 0.02 0.00 0.00 0.00 0.00 0.00 0.00 0.00 0.00 0.00 0.00 0.00 0.00 0.00 0.02 0.03 0.04 0.02 0.01 0.00 0.03 0.02 0.00 0.00 0.00 0.00 0.00 0.00 0.00 0.01 0.00 0.00 0.00 0.01 0.01 0.01 0.01
0.35 0.41 0.55 0.78 0.93 1.17 1.13 0.95 1.04 0.67 0.65 0.50 0.44 0.39 0.39 0.33 0.14 0.03 0.00 0.00 0.00 0.00 0.00 0.00 0.00 0.00 0.00 0.00 0.00 0.00 0.02 0.03 0.03 0.02 0.02 0.01 0.01 0.03 0.02 0.00 0.00 0.00 0.01 0.00 0.00 0.00 0.00 0.00 0.00 0.00 0.01 0.02 0.03 0.04
0.35 0.48 0.68 0.88 1.06 1.06 1.02 1.03 1.10 0.80 0.71 0.57 0.54 0.47 0.49 0.38 0.24 0.11 0.01 0.00 0.00 0.00 0.00 0.00 0.00 0.00 0.00 0.00 0.00 0.02 0.03 0.02 0.02 0.02 0.01 0.01 0.02 0.03 0.00 0.01 0.01 0.02 0.03 0.01 0.00 0.00 0.00 0.01 0.00 0.00 0.01 0.04 0.07 0.09
0.42 0.56 0.76 0.93 1.15 1.14 1.05 1.12 1.00 0.72 0.59 0.53 0.49 0.53 0.57 0.39 0.12 0.04 0.03 0.01 0.00 0.00 0.00 0.00 0.00 0.00 0.00 0.00 0.01 0.01 0.02 0.02 0.03 0.01 0.01 0.02 0.00 0.00 0.03 0.06 0.03 0.00 0.01 0.00 0.00 0.01 0.00 0.00 0.00 0.00 0.00 0.03 0.07 0.16
0.60 0.62 0.78 1.01 1.15 1.14 1.16 1.16 0.72 0.58 0.57 0.53 0.61 0.41 0.31 0.17 0.14 0.14 0.08 0.03 0.01 0.00 0.00 0.00 0.00 0.00 0.00 0.00 0.00 0.00 0.02 0.01 0.01 0.01 0.02 0.01 0.01 0.09 0.07 0.04 0.00 0.00 0.01 0.01 0.00 0.00 0.00 0.00 0.01 0.01 0.02 0.03 0.03 0.07
0.87 0.74 0.79 1.02 1.11 1.12 1.08 0.79 0.48 0.49 0.51 0.34 0.16 0.18 0.17 0.23 0.24 0.13 0.05 0.01 0.00 0.00 0.00 0.00 0.00 0.00 0.00 0.00 0.00 0.00 0.02 0.04 0.02 0.02 0.04 0.01 0.02 0.06 0.08 0.03 0.01 0.00 0.00 0.01 0.01 0.03 0.02 0.03 0.06 0.09 0.10 0.09 0.09 0.10
1.01 0.80 0.82 0.97 1.05 1.03 0.76 0.40 0.25 0.21 0.20 0.18 0.23 0.20 0.17 0.16 0.05 0.02 0.02 0.00 0.00 0.00 0.00 0.00 0.00 0.00 0.01 0.02 0.01 0.01 0.02 0.04 0.05 0.04 0.02 0.02 0.01 0.01 0.06 0.06 0.03 0.01 0.01 0.00 0.04 0.09 0.07 0.10 0.13 0.16 0.20 0.24 0.26 0.26
0.95 0.84 0.92 0.99 0.99 0.76 0.70 0.59 0.31 0.22 0.22 0.27 0.16 0.10 0.04 0.04 0.00 0.00 0.00 0.00 0.00 0.00 0.00 0.00 0.00 0.01 0.01 0.02 0.01 0.02 0.01 0.08 0.08 0.02 0.01 0.00 0.00 0.00 0.01 0.06 0.07 0.04 0.01 0.02 0.03 0.07 0.07 0.05 0.05 0.08 0.09 0.07 0.07 0.06
0.95 1.07 1.07 0.97 0.89 0.85 0.67 0.49 0.35 0.37 0.36 0.13 0.05 0.04 0.01 0.00 0.02 0.01 0.00 0.00 0.00 0.00 0.00 0.00 0.00 0.00 0.01 0.01 0.02 0.03 0.05 0.04 0.02 0.01 0.00 0.00 0.00 0.01 0.01 0.03 0.07 0.11 0.09 0.06 0.06 0.06 0.08 0.08 0.06 0.03 0.01 0.00 0.00 0.00
1.32 1.56 1.41 1.20 1.08 0.85 0.96 0.89 0.77 0.63 0.33 0.11 0.06 0.03 0.01 0.01 0.05 0.03 0.00 0.00 0.00 0.00 0.00 0.00 0.00 0.00 0.01 0.01 0.02 0.01 0.02 0.01 0.00 0.00 0.00 0.00 0.00 0.00 0.02 0.05 0.07 0.07 0.11 0.16 0.12 0.05 0.02 0.01 0.00 0.00 0.00 0.00 0.00 0.00
1.71 2.11 1.85 1.49 1.35 1.22 1.07 0.89 0.75 0.63 0.50 0.16 0.04 0.02 0.04 0.07 0.07 0.02 0.00 0.00 0.00 0.00 0.00 0.00 0.00 0.00 0.01 0.01 0.00 0.00 0.00 0.00 0.00 0.00 0.00 0.00 0.00 0.00 0.01 0.07 0.11 0.09 0.15 0.23 0.21 0.09 0.03 0.01 0.00 0.00 0.00 0.00 0.00 0.00
1.71 1.71 1.45 1.56 1.41 1.20 1.12 0.98 0.84 0.67 0.33 0.10 0.07 0.15 0.16 0.12 0.03 0.01 0.00 0.00 0.00 0.00 0.00 0.00 0.00 0.00 0.00 0.00 0.00 0.00 0.00 0.00 0.00 0.00 0.00 0.00 0.00 0.00 0.00 0.03 0.08 0.14 0.18 0.17 0.12 0.06 0.04 0.02 0.02 0.02 0.03 0.03 0.02 0.03
1.38 1.15 1.04 0.82 0.52 0.77 1.27 1.20 0.49 0.15 0.12 0.13 0.28 0.34 0.23 0.12 0.02 0.00 0.00 0.00 0.00 0.00 0.00 0.00 0.00 0.00 0.00 0.00 0.00 0.00 0.00 0.00 0.00 0.00 0.00 0.00 0.00 0.00 0.00 0.00 0.00 0.02 0.06 0.08 0.09 0.08 0.06 0.05 0.04 0.03 0.04 0.06 0.06 0.10
1.48 1.20 0.98 0.80 0.67 0.69 0.49 0.63 0.22 0.07 0.15 0.27 0.39 0.39 0.24 0.16 0.06 0.00 0.00 0.00 0.00 0.00 0.01 0.01 0.00 0.00 0.00 0.00 0.00 0.00 0.00 0.00 0.00 0.00 0.00 0.00 0.00 0.00 0.00 0.00 0.00 0.00 0.00 0.00 0.00 0.01 0.01 0.01 0.01 0.01 0.00 0.00 0.01 0.01
2.01 1.79 1.43 1.11 0.88 0.39 0.22 0.24 0.15 0.17 0.21 0.35 0.45 0.34 0.31 0.24 0.16 0.04 0.01 0.01 0.02 0.01 0.00 0.00 0.00 0.00 0.00 0.00 0.00 0.00 0.00 0.00 0.00 0.00 0.00 0.00 0.00 0.00 0.00 0.00 0.00 0.00 0.00 0.00 0.00 0.00 0.00 0.00 0.00 0.00 0.00 0.00 0.00 0.00
1.72 1.34 1.00 0.76 0.56 0.46 0.30 0.20 0.15 0.20 0.22 0.38 0.38 0.26 0.23 0.19 0.17 0.11 0.04 0.02 0.01 0.00 0.00 0.00 0.00 0.00 0.00 0.00 0.00 0.00 0.00 0.00 0.00 0.00 0.00 0.00 0.00 0.00 0.00 0.00 0.00 0.00 0.00 0.00 0.00 0.00 0.00 0.00 0.00 0.00 0.00 0.00 0.00 0.00
0.82 0.78 0.93 0.97 0.82 0.50 0.44 0.30 0.28 0.31 0.33 0.41 0.36 0.23 0.19 0.13 0.08 0.06 0.03 0.00 0.00 0.00 0.00 0.00 0.00 0.00 0.00 0.00 0.00 0.00 0.00 0.00 0.00 0.00 0.00 0.00 0.00 0.00 0.00 0.00 0.00 0.00 0.00 0.00 0.00 0.00 0.00 0.00 0.00 0.00 0.00 0.00 0.00 0.00
0.82 1.18 1.18 0.86 0.47 0.29 0.23 0.22 0.21 0.21 0.29 0.31 0.24 0.14 0.09 0.08 0.09 0.04 0.00 0.00 0.00 0.00 0.00 0.00 0.00 0.00 0.00 0.00 0.00 0.00 0.00 0.00 0.00 0.00 0.00 0.00 0.00 0.00 0.00 0.00 0.00 0.00 0.00 0.00 0.00 0.00 0.00 0.00 0.00 0.00 0.00 0.00 0.00 0.00
1.03 0.99 0.60 0.40 0.18 0.10 0.08 0.12 0.17 0.16 0.16 0.18 0.13 0.09 0.07 0.07 0.04 0.01 0.00 0.00 0.00 0.00 0.00 0.00 0.00 0.00 0.00 0.00 0.00 0.00 0.00 0.00 0.00 0.00 0.00 0.00 0.00 0.00 0.00 0.00 0.00 0.00 0.00 0.00 0.00 0.00 0.00 0.00 0.00 0.00 0.00 0.00 0.00 0.00
0.45 0.28 0.16 0.09 0.04 0.03 0.05 0.07 0.11 0.11 0.14 0.16 0.11 0.08 0.07 0.05 0.02 0.00 0.00 0.00 0.00 0.00 0.00 0.00 0.00 0.00 0.00 0.00 0.00 0.00 0.00 0.00 0.00 0.00 0.00 0.00 0.00 0.00 0.00 0.00 0.00 0.00 0.00 0.00 0.00 0.00 0.00 0.00 0.00 0.00 0.00 0.00 0.00 0.00
0.15 0.04 0.00 0.00 0.01 0.01 0.02 0.05 0.08 0.13 0.16 0.10 0.05 0.05 0.05 0.04 0.01 0.00 0.00 0.00 0.00 0.00 0.00 0.00 0.00 0.00 0.00 0.00 0.00 0.00 0.00 0.00 0.00 0.00 0.00 0.00 0.00 0.00 0.00 0.00 0.00 0.00 0.00 0.00 0.00 0.00 0.00 0.00 0.00 0.00 0.00 0.00 0.00 0.00
0.02 0.00 0.00 0.00 0.01 0.02 0.03 0.06 0.08 0.09 0.08 0.04 0.05 0.07 0.05 0.01 0.00 0.00 0.00 0.00 0.00 0.00 0.00 0.00 0.00 0.00 0.00 0.00 0.00 0.00 0.00 0.00 0.00 0.00 0.00 0.00 0.00 0.00 0.00 0.00 0.00 0.00 0.00 0.00 0.00 0.00 0.00 0.00 0.00 0.01 0.01 0.01 0.00 0.00
0.00 0.00 0.01 0.06 0.09 0.11 0.12 0.08 0.04 0.03 0.01 0.01 0.02 0.01 0.01 0.00 0.00 0.00 0.00 0.00 0.00 0.00 0.00 0.00 0.00 0.00 0.00 0.00 0.00 0.00 0.00 0.00 0.00 0.00 0.00 0.00 0.00 0.00 0.00 0.00 0.00 0.00 0.00 0.00 0.00 0.00 0.00 0.01 0.01 0.02 0.03 0.01 0.00 0.00
0.03 0.04 0.06 0.10 0.09 0.08 0.06 0.04 0.03 0.01 0.00 0.00 0.00 0.00 0.00 0.00 0.00 0.00 0.00 0.00 0.00 0.00 0.00 0.00 0.00 0.00 0.00 0.00 0.00 0.00 0.00 0.00 0.00 0.00 0.00 0.00 0.00 0.00 0.00 0.00 0.00 0.00 0.00 0.00 0.00 0.00 0.00 0.00 0.00 0.00 0.00 0.00 0.00 0.00
0.08 0.07 0.06 0.05 0.04 0.03 0.04 0.05 0.05 0.03 0.00 0.00 0.00 0.00 0.00 0.00 0.00 0.00 0.00 0.00 0.00 0.00 0.00 0.00 0.00 0.00 0.00 0.00 0.00 0.00 0.00 0.00 0.00 0.00 0.00 0.00 0.00 0.00 0.00 0.00 0.00 0.00 0.00 0.01 0.01 0.01 0.01 0.01 0.01 0.01 0.01 0.00 0.00 0.01
0.08 0.05 0.02 0.03 0.05 0.07 0.06 0.04 0.03 0.01 0.00 0.00 0.00 0.00 0.00 0.00 0.00 0.00 0.00 0.00 0.00 0.00 0.00 0.00 0.00 0.00 0.00 0.00 0.00 0.00 0.00 0.00 0.00 0.00 0.00 0.01 0.01 0.01 0.00 0.00 0.00 0.01 0.02 0.03 0.02 0.01 0.01 0.02 0.01 0.01 0.01 0.01 0.01 0.00
0.06 0.05 0.02 0.02 0.05 0.04 0.03 0.02 0.01 0.00 0.00 0.00 0.00 0.00 0.00 0.00 0.00 0.00 0.00 0.00 0.00 0.00 0.00 0.00 0.00 0.00 0.00 0.00 0.00 0.00 0.00 0.00 0.00 0.01 0.01 0.01 0.02 0.02 0.03 0.03 0.02 0.03 0.03 0.02 0.02 0.01 0.01 0.01 0.01 0.01 0.01 0.01 0.01 0.01

GFSWCAN_prec_precacc24_108.txt.gz
Total_Precipitation_Accumulation
0.17 0.26 0.38 0.66 0.73 0.74 0.92 0.95 0.79 0.36 0.36 0.63 0.79 0.81 0.78 0.53 0.16 0.02 0.00 0.00 0.00 0.00 0.00 0.00 0.00 0.00 0.00 0.00 0.00 0.00 0.00 0.00 0.00 0.00 0.00 0.00 0.00 0.00 0.00 0.02 0.03 0.05 0.13 0.12 0.08 0.10 0.02 0.00 0.00 0.00 0.00 0.00 0.00 0.01
0.18 0.24 0.29 0.46 0.78 1.05 0.92 0.59 0.58 0.54 0.34 0.30 0.60 0.67 0.78 0.57 0.20 0.02 0.00 0.00 0.00 0.00 0.00 0.00 0.00 0.00 0.00 0.00 0.00 0.00 0.00 0.00 0.00 0.00 0.00 0.00 0.00 0.00 0.00 0.00 0.00 0.01 0.03 0.08 0.07 0.04 0.01 0.01 0.00 0.00 0.00 0.00 0.00 0.01
0.20 0.23 0.24 0.29 0.51 0.78 1.27 0.85 0.54 0.48 0.39 0.30 0.32 0.43 0.53 0.54 0.24 0.02 0.00 0.00 0.00 0.00 0.00 0.00 0.00 0.00 0.00 0.00 0.00 0.00 0.00 0.00 0.00 0.00 0.00 0.00 0.00 0.00 0.00 0.00 0.00 0.00 0.00 0.00 0.00 0.01 0.04 0.16 0.17 0.08 0.04 0.01 0.00 0.00
0.21 0.22 0.29 0.28 0.38 0.59 1.02 1.36 0.81 0.52 0.36 0.31 0.30 0.29 0.34 0.40 0.22 0.03 0.00 0.00 0.00 0.00 0.00 0.00 0.00 0.00 0.00 0.00 0.00 0.00 0.00 0.00 0.00 0.00 0.00 0.00 0.00 0.00 0.00 0.00 0.00 0.00 0.00 0.01 0.00 0.00 0.00 0.00 0.02 0.05 0.07 0.07 0.05 0.03
0.25 0.23 0.29 0.47 0.50 0.72 0.81 1.14 1.09 0.65 0.43 0.33 0.30 0.30 0.33 0.31 0.12 0.02 0.00 0.00 0.00 0.00 0.00 0.00 0.00 0.00 0.00 0.00 0.00 0.00 0.00 0.00 0.00 0.01 0.01 0.00 0.00 0.00 0.00 0.00 0.00 0.00 0.00 0.00 0.01 0.00 0.00 0.00 0.00 0.00 0.00 0.01 0.03 0.03
0.21 0.22 0.28 0.40 0.72 0.82 0.95 0.87 0.93 0.71 0.48 0.33 0.31 0.36 0.39 0.32 0.10 0.03 0.03 0.00 0.00 0.00 0.00 0.00 0.00 0.00 0.00 0.00 0.00 0.00 0.00 0.00 0.01 0.01 0.01 0.00 0.00 0.00 0.00 0.00 0.00 0.00 0.00 0.00 0.00 0.00 0.00 0.00 0.00 0.00 0.00 0.00 0.00 0.01
0.19 0.20 0.27 0.33 0.61 0.91 0.90 0.80 0.89 0.64 0.51 0.38 0.35 0.30 0.31 0.33 0.12 0.06 0.02 0.00 0.00 0.00 0.00 0.00 0.00 0.00 0.00 0.00 0.00 0.00 0.00 0.01 0.02 0.02 0.01 0.00 0.00 0.01 0.01 0.00 0.00 0.00 0.00 0.00 0.00 0.00 0.00 0.00 0.00 0.00 0.01 0.01 0.01 0.01
0.19 0.23 0.30 0.41 0.58 0.88 0.90 0.83 1.00 0.66 0.64 0.50 0.43 0.38 0.41 0.49 0.26 0.07 0.01 0.00 0.00 0.00 0.00 0.00 0.00 0.00 0.00 0.00 0.00 0.00 0.01 0.01 0.02 0.01 0.01 0.01 0.01 0.01 0.01 0.00 0.00 0.00 0.00 0.00 0.00 0.00 0.00 0.00 0.00 0.00 0.01 0.02 0.03 0.04
0.19 0.27 0.38 0.52 0.74 0.88 0.87 0.94 1.07 0.79 0.72 0.57 0.55 0.50 0.64 0.62 0.34 0.12 0.00 0.00 0.00 0.00 0.00 0.00 0.00 0.00 0.00 0.00 0.00 0.01 0.01 0.01 0.02 0.01 0.01 0.01 0.01 0.01 0.00 0.01 0.01 0.02 0.02 0.01 0.00 0.00 0.00 0.01 0.00 0.00 0.01 0.04 0.07 0.09
0.23 0.32 0.44 0.60 0.89 0.97 0.95 1.10 1.01 0.72 0.61 0.56 0.55 0.72 0.84 0.56 0.16 0.04 0.04 0.01 0.00 0.00 0.00 0.00 0.00 0.00 0.00 0.00 0.00 0.01 0.01 0.02 0.02 0.00 0.01 0.01 0.00 0.00 0.01 0.05 0.03 0.00 0.01 0.00 0.00 0.00 0.00 0.00 0.00 0.00 0.00 0.03 0.07 0.16
0.31 0.36 0.53 0.73 0.98 1.04 1.12 1.17 0.74 0.60 0.62 0.58 0.74 0.62 0.42 0.23 0.19 0.26 0.20 0.09 0.01 0.00 0.00 0.00 0.00 0.00 0.00 0.00 0.00 0.00 0.01 0.01 0.01 0.01 0.01 0.00 0.00 0.01 0.02 0.03 0.00 0.00 0.01 0.01 0.00 0.00 0.00 0.00 0.01 0.01 0.02 0.03 0.03 0.07
0.40 0.46 0.63 0.83 0.99 1.08 1.10 0.84 0.52 0.55 0.56 0.36 0.26 0.36 0.35 0.36 0.44 0.33 0.16 0.05 0.01 0.00 0.00 0.00 0.00 0.00 0.00 0.00 0.00 0.00 0.01 0.02 0.01 0.01 0.03 0.00 0.00 0.00 0.00 0.01 0.01 0.00 0.00 0.01 0.01 0.02 0.02 0.02 0.06 0.09 0.10 0.09 0.09 0.10
0.49 0.55 0.72 0.87 1.00 1.05 0.82 0.48 0.32 0.27 0.23 0.24 0.37 0.39 0.34 0.35 0.16 0.07 0.04 0.01 0.00 0.00 0.00 0.00 0.00 0.00 0.00 0.00 0.00 0.00 0.01 0.02 0.03 0.03 0.01 0.00 0.00 0.00 0.00 0.01 0.01 0.01 0.00 0.00 0.03 0.09 0.07 0.10 0.13 0.16 0.20 0.24 0.26 0.26
0.60 0.67 0.84 0.94 1.00 0.83 0.78 0.70 0.43 0.29 0.25 0.42 0.39 0.28 0.14 0.07 0.01 0.00 0.00 0.00 0.00 0.00 0.00 0.00 0.00 0.00 0.01 0.01 0.00 0.01 0.01 0.04 0.05 0.01 0.00 0.00 0.00 0.00 0.00 0.00 0.01 0.02 0.01 0.01 0.03 0.06 0.07 0.05 0.05 0.07 0.09 0.07 0.07 0.06
0.80 0.99 1.03 0.97 0.91 0.91 0.78 0.64 0.46 0.40 0.46 0.29 0.15 0.07 0.03 0.00 0.02 0.01 0.00 0.00 0.00 0.00 0.00 0.00 0.00 0.00 0.00 0.00 0.01 0.02 0.03 0.03 0.01 0.00 0.00 0.00 0.00 0.00 0.00 0.00 0.01 0.04 0.04 0.02 0.03 0.04 0.06 0.05 0.03 0.01 0.00 0.00 0.00 0.00
1.28 1.54 1.41 1.24 1.12 0.93 1.05 0.96 0.84 0.69 0.48 0.26 0.08 0.03 0.01 0.01 0.05 0.03 0.00 0.00 0.00 0.00 0.00 0.00 0.00 0.00 0.00 0.00 0.01 0.00 0.00 0.00 0.00 0.00 0.00 0.00 0.00 0.00 0.00 0.00 0.01 0.02 0.06 0.09 0.08 0.05 0.02 0.01 0.00 0.00 0.00 0.00 0.00 0.00
1.68 2.06 1.87 1.56 1.41 1.27 1.15 0.99 0.91 0.79 0.76 0.28 0.05 0.02 0.04 0.07 0.07 0.02 0.00 0.00 0.00 0.00 0.00 0.00 0.00 0.00 0.00 0.00 0.00 0.00 0.00 0.00 0.00 0.00 0.00 0.00 0.00 0.00 0.00 0.00 0.02 0.04 0.05 0.09 0.15 0.09 0.03 0.01 0.00 0.00 0.00 0.00 0.00 0.00
1.60 1.60 1.50 1.62 1.47 1.25 1.18 1.14 1.08 0.90 0.58 0.17 0.07 0.15 0.16 0.12 0.03 0.01 0.00 0.00 0.00 0.00 0.00 0.00 0.00 0.00 0.00 0.00 0.00 0.00 0.00 0.00 0.00 0.00 0.00 0.00 0.00 0.00 0.00 0.00 0.01 0.05 0.07 0.08 0.08 0.06 0.04 0.02 0.02 0.02 0.03 0.03 0.02 0.03
1.24 1.21 1.09 0.81 0.52 0.81 1.46 1.44 0.75 0.29 0.23 0.16 0.29 0.34 0.23 0.12 0.02 0.00 0.00 0.00 0.00 0.00 0.00 0.00 0.00 0.00 0.00 0.00 0.00 0.00 0.00 0.00 0.00 0.00 0.00 0.00 0.00 0.00 0.00 0.00 0.00 0.00 0.03 0.06 0.08 0.08 0.06 0.05 0.04 0.03 0.04 0.06 0.06 0.10
1.47 1.29 0.98 0.81 0.70 0.77 0.62 0.81 0.39 0.13 0.18 0.29 0.40 0.40 0.25 0.16 0.06 0.00 0.00 0.00 0.00 0.00 0.00 0.00 0.00 0.00 0.00 0.00 0.00 0.00 0.00 0.00 0.00 0.00 0.00 0.00 0.00 0.00 0.00 0.00 0.00 0.00 0.00 0.00 0.01 0.01 0.01 0.01 0.01 0.01 0.00 0.00 0.01 0.01
2.13 1.95 1.53 1.22 1.05 0.55 0.31 0.29 0.21 0.21 0.23 0.37 0.46 0.36 0.35 0.27 0.17 0.04 0.01 0.00 0.01 0.01 0.00 0.00 0.00 0.00 0.00 0.00 0.00 0.00 0.00 0.00 0.00 0.00 0.00 0.00 0.00 0.00 0.00 0.00 0.00 0.00 0.00 0.00 0.00 0.00 0.00 0.00 0.00 0.00 0.00 0.00 0.00 0.00
1.80 1.42 1.13 0.92 0.73 0.56 0.32 0.20 0.15 0.24 0.23 0.41 0.40 0.28 0.28 0.25 0.22 0.15 0.05 0.02 0.00 0.00 0.00 0.00 0.00 0.00 0.00 0.00 0.00 0.00 0.00 0.00 0.00 0.00 0.00 0.00 0.00 0.00 0.00 0.00 0.00 0.00 0.00 0.00 0.00 0.00 0.00 0.00 0.00 0.00 0.00 0.00 0.00 0.00
0.84 0.83 1.04 1.12 0.97 0.56 0.46 0.31 0.28 0.34 0.37 0.44 0.43 0.29 0.25 0.18 0.14 0.12 0.07 0.01 0.00 0.00 0.00 0.00 0.00 0.00 0.00 0.00 0.00 0.00 0.00 0.00 0.00 0.00 0.00 0.00 0.00 0.00 0.00 0.00 0.00 0.00 0.00 0.00 0.00 0.00 0.00 0.00 0.00 0.00 0.00 0.00 0.00 0.00
0.87 1.31 1.36 0.99 0.56 0.30 0.25 0.24 0.23 0.22 0.31 0.36 0.30 0.20 0.14 0.14 0.16 0.08 0.01 0.00 0.00 0.00 0.00 0.00 0.00 0.00 0.00 0.00 0.00 0.00 0.00 0.00 0.00 0.00 0.00 0.00 0.00 0.00 0.00 0.00 0.00 0.00 0.00 0.00 0.00 0.00 0.00 0.00 0.00 0.00 0.00 0.00 0.00 0.00
1.20 1.17 0.70 0.47 0.19 0.10 0.08 0.13 0.17 0.17 0.17 0.21 0.17 0.13 0.11 0.11 0.07 0.01 0.00 0.00 0.00 0.00 0.00 0.00 0.00 0.00 0.00 0.00 0.00 0.00 0.00 0.00 0.00 0.00 0.00 0.00 0.00 0.00 0.00 0.00 0.00 0.00 0.00 0.00 0.00 0.00 0.00 0.00 0.00 0.00 0.00 0.00 0.00 0.00
0.57 0.35 0.21 0.09 0.03 0.04 0.05 0.09 0.12 0.12 0.14 0.19 0.15 0.10 0.09 0.08 0.03 0.00 0.00 0.00 0.00 0.00 0.00 0.00 0.00 0.00 0.00 0.00 0.00 0.00 0.00 0.00 0.00 0.00 0.00 0.00 0.00 0.00 0.00 0.00 0.00 0.00 0.00 0.00 0.00 0.00 0.00 0.00 0.00 0.00 0.00 0.00 0.00 0.00
0.17 0.04 0.01 0.00 0.01 0.02 0.02 0.05 0.09 0.13 0.19 0.12 0.06 0.06 0.08 0.06 0.01 0.00 0.00 0.00 0.00 0.00 0.00 0.00 0.00 0.00 0.00 0.00 0.00 0.00 0.00 0.00 0.00 0.00 0.00 0.00 0.00 0.00 0.00 0.00 0.00 0.00 0.00 0.00 0.00 0.00 0.00 0.00 0.00 0.00 0.00 0.00 0.00 0.00
0.02 0.00 0.00 0.00 0.01 0.02 0.03 0.06 0.08 0.10 0.10 0.05 0.06 0.08 0.06 0.01 0.00 0.00 0.00 0.00 0.00 0.00 0.00 0.00 0.00 0.00 0.00 0.00 0.00 0.00 0.00 0.00 0.00 0.00 0.00 0.00 0.00 0.00 0.00 0.00 0.00 0.00 0.00 0.00 0.00 0.00 0.00 0.00 0.01 0.01 0.01 0.01 0.00 0.00
0.00 0.00 0.02 0.07 0.09 0.12 0.12 0.09 0.05 0.03 0.02 0.02 0.03 0.02 0.01 0.00 0.00 0.00 0.00 0.00 0.00 0.00 0.00 0.00 0.00 0.00 0.00 0.00 0.00 0.00 0.00 0.00 0.00 0.00 0.00 0.00 0.00 0.00 0.00 0.00 0.00 0.00 0.00 0.00 0.00 0.00 0.00 0.01 0.02 0.02 0.03 0.01 0.00 0.00
0.05 0.06 0.10 0.15 0.12 0.10 0.08 0.05 0.05 0.02 0.01 0.02 0.03 0.01 0.00 0.00 0.00 0.00 0.00 0.00 0.00 0.00 0.00 0.00 0.00 0.00 0.00 0.00 0.00 0.00 0.00 0.00 0.00 0.00 0.00 0.00 0.00 0.00 0.00 0.00 0.00 0.00 0.00 0.00 0.00 0.00 0.00 0.00 0.00 0.00 0.00 0.00 0.00 0.00
0.12 0.11 0.10 0.09 0.07 0.06 0.07 0.09 0.09 0.08 0.05 0.02 0.00 0.00 0.00 0.00 0.00 0.00 0.00 0.00 0.00 0.00 0.00 0.00 0.00 0.00 0.00 0.00 0.00 0.00 0.00 0.00 0.00 0.00 0.00 0.00 0.00 0.00 0.00 0.00 0.00 0.00 0.01 0.01 0.01 0.01 0.01 0.01 0.00 0.00 0.01 0.00 0.00 0.00
0.12 0.09 0.05 0.04 0.07 0.09 0.08 0.07 0.05 0.03 0.03 0.02 0.00 0.00 0.00 0.00 0.00 0.00 0.00 0.00 0.00 0.00 0.00 0.00 0.00 0.00 0.00 0.00 0.00 0.00 0.00 0.00 0.00 0.00 0.00 0.00 0.01 0.00 0.00 0.00 0.00 0.01 0.02 0.02 0.02 0.02 0.02 0.01 0.01 0.01 0.01 0.01 0.00 0.00
0.09 0.07 0.03 0.03 0.06 0.05 0.05 0.03 0.02 0.02 0.03 0.02 0.01 0.00 0.00 0.00 0.00 0.00 0.00 0.00 0.00 0.00 0.00 0.00 0.00 0.00 0.00 0.00 0.00 0.00 0.00 0.00 0.00 0.01 0.01 0.01 0.01 0.02 0.02 0.02 0.02 0.03 0.03 0.02 0.02 0.01 0.01 0.01 0.01 0.01 0.01 0.01 0.01 0.01

GFSWCAN_prec_precacc24_111.txt.gz
Total_Precipitation_Accumulation
0.03 0.05 0.10 0.15 0.14 0.21 0.51 0.82 0.76 0.35 0.36 0.63 0.79 0.81 0.78 0.54 0.16 0.02 0.01 0.00 0.00 0.00 0.00 0.00 0.00 0.00 0.00 0.00 0.00 0.00 0.00 0.00 0.00 0.00 0.00 0.00 0.00 0.00 0.00 0.00 0.00 0.02 0.03 0.04 0.04 0.07 0.01 0.00 0.00 0.00 0.00 0.00 0.00 0.01
0.03 0.05 0.11 0.18 0.20 0.35 0.43 0.44 0.56 0.54 0.34 0.30 0.60 0.67 0.78 0.60 0.23 0.03 0.00 0.00 0.00 0.00 0.00 0.00 0.00 0.00 0.00 0.00 0.00 0.00 0.00 0.00 0.00 0.00 0.00 0.00 0.00 0.00 0.00 0.00 0.00 0.00 0.01 0.04 0.06 0.03 0.01 0.01 0.00 0.00 0.00 0.00 0.00 0.01
0.04 0.03 0.08 0.17 0.23 0.33 0.69 0.64 0.51 0.48 0.39 0.30 0.32 0.43 0.54 0.56 0.25 0.03 0.00 0.00 0.00 0.00 0.00 0.00 0.00 0.00 0.00 0.00 0.00 0.00 0.00 0.00 0.00 0.00 0.00 0.00 0.00 0.00 0.00 0.00 0.00 0.00 0.00 0.00 0.00 0.01 0.04 0.16 0.17 0.08 0.04 0.01 0.00 0.00
0.06 0.05 0.06 0.12 0.22 0.27 0.53 1.11 0.76 0.52 0.36 0.31 0.30 0.29 0.34 0.41 0.23 0.03 0.00 0.00 0.00 0.00 0.00 0.00 0.00 0.00 0.00 0.00 0.00 0.00 0.00 0.00 0.00 0.00 0.00 0.00 0.00 0.00 0.00 0.00 0.00 0.00 0.00 0.00 0.00 0.00 0.00 0.00 0.02 0.05 0.07 0.07 0.05 0.03
0.08 0.06 0.07 0.13 0.26 0.33 0.40 0.86 1.02 0.62 0.41 0.32 0.30 0.30 0.33 0.31 0.12 0.02 0.00 0.00 0.00 0.00 0.00 0.00 0.00 0.00 0.00 0.00 0.00 0.00 0.00 0.00 0.00 0.00 0.00 0.00 0.00 0.00 0.00 0.00 0.00 0.00 0.00 0.00 0.00 0.00 0.00 0.00 0.00 0.00 0.00 0.01 0.03 0.03
0.08 0.09 0.13 0.18 0.36 0.45 0.52 0.63 0.80 0.63 0.44 0.31 0.31 0.36 0.39 0.33 0.11 0.03 0.03 0.00 0.00 0.00 0.00 0.00 0.00 0.00 0.00 0.00 0.00 0.00 0.00 0.00 0.00 0.00 0.00 0.00 0.00 0.00 0.00 0.00 0.00 0.00 0.00 0.00 0.00 0.00 0.00 0.00 0.00 0.00 0.00 0.00 0.00 0.01
0.09 0.09 0.14 0.20 0.36 0.61 0.56 0.59 0.74 0.54 0.46 0.37 0.35 0.29 0.31 0.33 0.16 0.08 0.04 0.00 0.00 0.00 0.00 0.00 0.00 0.00 0.00 0.00 0.00 0.00 0.00 0.00 0.00 0.01 0.00 0.00 0.00 0.00 0.00 0.00 0.00 0.00 0.00 0.00 0.00 0.00 0.00 0.00 0.00 0.00 0.01 0.01 0.01 0.01
0.11 0.11 0.16 0.22 0.34 0.60 0.65 0.66 0.88 0.56 0.60 0.50 0.43 0.37 0.41 0.51 0.35 0.17 0.02 0.00 0.00 0.00 0.00 0.00 0.00 0.00 0.00 0.00 0.00 0.00 0.00 0.00 0.00 0.00 0.01 0.00 0.00 0.00 0.00 0.00 0.00 0.00 0.00 0.00 0.00 0.00 0.00 0.00 0.00 0.00 0.01 0.02 0.03 0.04
0.11 0.13 0.18 0.32 0.46 0.60 0.68 0.80 0.96 0.72 0.70 0.57 0.56 0.53 0.66 0.66 0.40 0.15 0.04 0.00 0.00 0.00 0.00 0.00 0.00 0.00 0.00 0.00 0.00 0.00 0.00 0.01 0.01 0.00 0.00 0.00 0.00 0.01 0.00 0.00 0.01 0.02 0.02 0.01 0.00 0.00 0.00 0.00 0.00 0.00 0.01 0.04 0.07 0.09
0.13 0.16 0.21 0.41 0.59 0.70 0.78 0.98 0.92 0.68 0.60 0.58 0.60 0.76 0.86 0.59 0.17 0.06 0.11 0.04 0.02 0.01 0.00 0.00 0.00 0.00 0.00 0.00 0.00 0.01 0.01 0.01 0.01 0.00 0.00 0.00 0.00 0.00 0.00 0.00 0.01 0.00 0.01 0.00 0.00 0.00 0.00 0.00 0.00 0.00 0.00 0.03 0.07 0.16
0.16 0.19 0.30 0.52 0.70 0.79 0.93 1.08 0.71 0.61 0.65 0.63 0.81 0.67 0.42 0.24 0.22 0.33 0.35 0.21 0.06 0.02 0.00 0.00 0.00 0.00 0.00 0.00 0.00 0.00 0.00 0.00 0.00 0.01 0.01 0.00 0.00 0.00 0.00 0.00 0.00 0.00 0.01 0.01 0.00 0.00 0.00 0.00 0.01 0.01 0.02 0.03 0.04 0.07
0.14 0.22 0.39 0.59 0.78 0.92 0.99 0.79 0.54 0.59 0.60 0.42 0.31 0.39 0.46 0.50 0.60 0.50 0.35 0.12 0.03 0.00 0.00 0.00 0.00 0.00 0.00 0.00 0.00 0.00 0.00 0.01 0.01 0.00 0.02 0.00 0.00 0.00 0.00 0.00 0.00 0.00 0.00 0.01 0.00 0.00 0.01 0.01 0.03 0.06 0.09 0.08 0.09 0.10
0.15 0.30 0.52 0.69 0.85 0.92 0.73 0.46 0.36 0.38 0.33 0.27 0.42 0.46 0.49 0.49 0.34 0.19 0.11 0.03 0.00 0.00 0.00 0.00 0.00 0.00 0.00 0.00 0.00 0.00 0.00 0.01 0.02 0.02 0.01 0.00 0.00 0.00 0.00 0.00 0.00 0.00 0.00 0.00 0.01 0.01 0.02 0.04 0.07 0.10 0.16 0.23 0.25 0.26
0.28 0.43 0.68 0.80 0.86 0.69 0.72 0.71 0.53 0.53 0.38 0.52 0.53 0.41 0.24 0.17 0.07 0.02 0.00 0.00 0.00 0.00 0.00 0.00 0.00 0.00 0.00 0.00 0.00 0.00 0.00 0.02 0.03 0.01 0.00 0.00 0.00 0.00 0.00 0.00 0.00 0.00 0.00 0.01 0.01 0.04 0.06 0.04 0.04 0.07 0.08 0.07 0.07 0.06
0.42 0.68 0.84 0.85 0.82 0.84 0.78 0.70 0.68 0.65 0.61 0.42 0.26 0.16 0.10 0.04 0.02 0.01 0.00 0.00 0.00 0.00 0.00 0.00 0.00 0.00 0.00 0.00 0.00 0.01 0.02 0.02 0.00 0.00 0.00 0.00 0.00 0.00 0.00 0.00 0.00 0.00 0.00 0.01 0.01 0.01 0.01 0.01 0.01 0.00 0.00 0.00 0.00 0.00
0.82 1.16 1.15 1.13 1.09 0.94 1.14 1.17 1.17 0.96 0.60 0.32 0.16 0.10 0.03 0.01 0.05 0.03 0.00 0.00 0.00 0.00 0.00 0.00 0.00 0.00 0.00 0.00 0.00 0.00 0.00 0.00 0.00 0.00 0.00 0.00 0.00 0.00 0.00 0.00 0.00 0.00 0.01 0.01 0.01 0.00 0.00 0.00 0.00 0.00 0.00 0.00 0.00 0.00
1.36 1.72 1.68 1.48 1.42 1.37 1.37 1.40 1.37 1.04 0.87 0.39 0.11 0.03 0.05 0.07 0.07 0.03 0.00 0.00 0.00 0.00 0.00 0.00 0.00 0.00 0.00 0.00 0.00 0.00 0.00 0.00 0.00 0.00 0.00 0.00 0.00 0.00 0.00 0.00 0.00 0.00 0.01 0.02 0.03 0.04 0.02 0.01 0.00 0.00 0.00 0.00 0.00 0.00
1.39 1.47 1.47 1.67 1.61 1.51 1.46 1.29 1.18 0.97 0.65 0.24 0.13 0.15 0.18 0.13 0.04 0.01 0.00 0.00 0.00 0.00 0.00 0.00 0.00 0.00 0.00 0.00 0.00 0.00 0.00 0.00 0.00 0.00 0.00 0.00 0.00 0.00 0.00 0.00 0.00 0.01 0.00 0.01 0.03 0.04 0.04 0.02 0.02 0.02 0.03 0.03 0.02 0.03
1.10 1.14 1.14 0.94 0.62 0.90 1.51 1.47 0.74 0.30 0.28 0.23 0.33 0.39 0.23 0.13 0.03 0.00 0.00 0.00 0.00 0.00 0.00 0.00 0.00 0.00 0.00 0.00 0.00 0.00 0.00 0.00 0.00 0.00 0.00 0.00 0.00 0.00 0.00 0.00 0.00 0.00 0.00 0.01 0.02 0.03 0.04 0.04 0.03 0.03 0.04 0.06 0.06 0.10
1.32 1.21 0.97 0.75 0.62 0.71 0.65 0.89 0.44 0.18 0.23 0.41 0.47 0.46 0.29 0.17 0.06 0.00 0.00 0.00 0.00 0.00 0.00 0.00 0.00 0.00 0.00 0.00 0.00 0.00 0.00 0.00 0.00 0.00 0.00 0.00 0.00 0.00 0.00 0.00 0.00 0.00 0.00 0.00 0.00 0.00 0.00 0.01 0.01 0.01 0.00 0.00 0.01 0.01
2.12 1.98 1.58 1.25 1.09 0.60 0.36 0.34 0.33 0.30 0.26 0.46 0.56 0.43 0.43 0.29 0.17 0.05 0.03 0.00 0.01 0.01 0.00 0.00 0.00 0.00 0.00 0.00 0.00 0.00 0.00 0.00 0.00 0.00 0.00 0.00 0.00 0.00 0.00 0.00 0.00 0.00 0.00 0.00 0.00 0.00 0.00 0.00 0.00 0.00 0.00 0.00 0.00 0.00
2.08 1.64 1.24 0.97 0.79 0.63 0.44 0.25 0.27 0.37 0.28 0.46 0.52 0.37 0.35 0.33 0.25 0.15 0.06 0.05 0.02 0.00 0.00 0.00 0.00 0.00 0.00 0.00 0.00 0.00 0.00 0.00 0.00 0.00 0.00 0.00 0.00 0.00 0.00 0.00 0.00 0.00 0.00 0.00 0.00 0.00 0.00 0.00 0.00 0.00 0.00 0.00 0.00 0.00
0.97 0.96 1.12 1.19 1.08 0.66 0.52 0.37 0.37 0.52 0.47 0.50 0.47 0.34 0.30 0.26 0.24 0.20 0.12 0.03 0.00 0.00 0.00 0.00 0.00 0.00 0.00 0.00 0.00 0.00 0.00 0.00 0.00 0.00 0.00 0.00 0.00 0.00 0.00 0.00 0.00 0.00 0.00 0.00 0.00 0.00 0.00 0.00 0.00 0.00 0.00 0.00 0.00 0.00
0.96 1.48 1.53 1.09 0.67 0.41 0.29 0.29 0.28 0.27 0.38 0.44 0.34 0.23 0.17 0.18 0.24 0.21 0.11 0.02 0.00 0.00 0.00 0.00 0.00 0.00 0.00 0.00 0.00 0.00 0.00 0.00 0.00 0.00 0.00 0.00 0.00 0.00 0.00 0.00 0.00 0.00 0.00 0.00 0.00 0.00 0.00 0.00 0.00 0.00 0.00 0.00 0.00 0.00
1.37 1.38 0.89 0.58 0.24 0.15 0.10 0.14 0.18 0.17 0.17 0.22 0.20 0.16 0.14 0.15 0.11 0.05 0.01 0.00 0.00 0.00 0.00 0.00 0.00 0.00 0.00 0.00 0.00 0.00 0.00 0.00 0.00 0.00 0.00 0.00 0.00 0.00 0.00 0.00 0.00 0.00 0.00 0.00 0.00 0.00 0.00 0.00 0.00 0.00 0.00 0.00 0.00 0.00
0.75 0.47 0.34 0.14 0.04 0.04 0.05 0.09 0.12 0.12 0.14 0.19 0.16 0.12 0.13 0.12 0.07 0.01 0.00 0.00 0.00 0.00 0.00 0.00 0.00 0.00 0.00 0.00 0.00 0.00 0.00 0.00 0.00 0.00 0.00 0.00 0.00 0.00 0.00 0.00 0.00 0.00 0.00 0.00 0.00 0.00 0.00 0.00 0.00 0.00 0.00 0.00 0.00 0.00
0.31 0.09 0.02 0.01 0.01 0.02 0.02 0.05 0.09 0.14 0.19 0.12 0.07 0.08 0.12 0.11 0.04 0.00 0.00 0.00 0.00 0.00 0.00 0.00 0.00 0.00 0.00 0.00 0.00 0.00 0.00 0.00 0.00 0.00 0.00 0.00 0.00 0.00 0.00 0.00 0.00 0.00 0.00 0.00 0.00 0.00 0.00 0.00 0.00 0.00 0.00 0.00 0.00 0.00
0.05 0.01 0.00 0.00 0.01 0.02 0.03 0.06 0.08 0.10 0.10 0.06 0.06 0.11 0.10 0.03 0.00 0.00 0.00 0.00 0.00 0.00 0.00 0.00 0.00 0.00 0.00 0.00 0.00 0.00 0.00 0.00 0.00 0.00 0.00 0.00 0.00 0.00 0.00 0.00 0.00 0.00 0.00 0.00 0.00 0.00 0.00 0.00 0.01 0.01 0.01 0.01 0.00 0.00
0.00 0.00 0.02 0.07 0.09 0.12 0.12 0.09 0.05 0.03 0.02 0.02 0.04 0.03 0.01 0.00 0.00 0.00 0.00 0.00 0.00 0.00 0.00 0.00 0.00 0.00 0.00 0.00 0.00 0.00 0.00 0.00 0.00 0.00 0.00 0.00 0.00 0.00 0.00 0.00 0.00 0.00 0.00 0.00 0.00 0.00 0.00 0.01 0.02 0.02 0.03 0.01 0.00 0.00
0.05 0.07 0.11 0.15 0.12 0.10 0.08 0.06 0.05 0.03 0.02 0.04 0.06 0.04 0.01 0.00 0.00 0.00 0.00 0.00 0.00 0.00 0.00 0.00 0.00 0.00 0.00 0.00 0.00 0.00 0.00 0.00 0.00 0.00 0.00 0.00 0.00 0.00 0.00 0.00 0.00 0.00 0.00 0.00 0.00 0.00 0.00 0.00 0.00 0.00 0.00 0.00 0.00 0.00
0.12 0.11 0.10 0.10 0.09 0.06 0.08 0.10 0.12 0.11 0.08 0.06 0.05 0.06 0.05 0.01 0.00 0.00 0.00 0.00 0.00 0.00 0.00 0.00 0.01 0.00 0.00 0.00 0.00 0.00 0.00 0.00 0.00 0.00 0.00 0.00 0.00 0.00 0.00 0.00 0.00 0.00 0.01 0.01 0.01 0.01 0.01 0.01 0.00 0.00 0.01 0.00 0.00 0.00
0.14 0.10 0.06 0.06 0.11 0.14 0.12 0.11 0.10 0.08 0.08 0.07 0.05 0.03 0.02 0.02 0.01 0.00 0.00 0.00 0.00 0.00 0.00 0.00 0.00 0.00 0.00 0.00 0.00 0.00 0.00 0.00 0.00 0.00 0.00 0.00 0.00 0.00 0.00 0.00 0.00 0.01 0.02 0.02 0.02 0.01 0.01 0.01 0.01 0.00 0.00 0.01 0.00 0.00
0.13 0.11 0.08 0.08 0.11 0.12 0.10 0.09 0.07 0.07 0.08 0.06 0.05 0.03 0.01 0.00 0.00 0.00 0.00 0.00 0.00 0.00 0.00 0.00 0.00 0.00 0.00 0.00 0.00 0.00 0.00 0.00 0.00 0.01 0.00 0.01 0.01 0.01 0.01 0.02 0.01 0.02 0.03 0.02 0.01 0.01 0.01 0.01 0.01 0.01 0.01 0.01 0.01 0.01

GFSWCAN_prec_precacc24_114.txt.gz
Total_Precipitation_Accumulation
0.03 0.02 0.03 0.04 0.05 0.05 0.09 0.18 0.31 0.16 0.29 0.63 0.79 0.81 0.78 0.54 0.17 0.04 0.01 0.00 0.00 0.00 0.00 0.00 0.00 0.00 0.00 0.00 0.00 0.00 0.00 0.00 0.00 0.00 0.00 0.00 0.00 0.00 0.00 0.00 0.00 0.00 0.01 0.02 0.01 0.01 0.00 0.00 0.00 0.00 0.00 0.00 0.00 0.01
0.03 0.02 0.03 0.04 0.04 0.06 0.07 0.10 0.23 0.36 0.29 0.29 0.60 0.67 0.78 0.60 0.24 0.05 0.02 0.01 0.00 0.00 0.00 0.00 0.00 0.00 0.00 0.00 0.00 0.00 0.00 0.00 0.00 0.00 0.00 0.00 0.00 0.00 0.00 0.00 0.00 0.00 0.01 0.02 0.02 0.01 0.01 0.01 0.00 0.00 0.00 0.00 0.00 0.01
0.04 0.02 0.03 0.04 0.04 0.07 0.09 0.14 0.21 0.32 0.34 0.29 0.32 0.43 0.54 0.56 0.26 0.03 0.00 0.01 0.00 0.00 0.00 0.00 0.00 0.00 0.00 0.00 0.00 0.00 0.00 0.00 0.00 0.00 0.00 0.00 0.00 0.00 0.00 0.00 0.00 0.00 0.00 0.00 0.00 0.00 0.04 0.16 0.17 0.08 0.04 0.01 0.00 0.00
0.05 0.03 0.03 0.04 0.05 0.07 0.17 0.46 0.38 0.38 0.31 0.30 0.30 0.29 0.34 0.41 0.24 0.04 0.00 0.00 0.00 0.00 0.00 0.00 0.00 0.00 0.00 0.00 0.00 0.00 0.00 0.00 0.00 0.00 0.00 0.00 0.00 0.00 0.00 0.00 0.00 0.00 0.00 0.00 0.00 0.00 0.00 0.00 0.02 0.05 0.07 0.07 0.05 0.03
0.07 0.05 0.04 0.05 0.06 0.09 0.19 0.43 0.68 0.49 0.35 0.32 0.31 0.30 0.33 0.31 0.14 0.03 0.00 0.00 0.00 0.00 0.00 0.00 0.00 0.00 0.00 0.00 0.00 0.00 0.00 0.00 0.00 0.00 0.00 0.00 0.00 0.00 0.00 0.00 0.00 0.00 0.00 0.00 0.00 0.00 0.00 0.00 0.00 0.00 0.00 0.01 0.03 0.03
0.08 0.07 0.07 0.07 0.06 0.10 0.22 0.32 0.50 0.49 0.37 0.31 0.31 0.36 0.39 0.33 0.12 0.03 0.03 0.00 0.00 0.00 0.00 0.00 0.00 0.00 0.00 0.00 0.00 0.00 0.00 0.00 0.00 0.00 0.00 0.00 0.00 0.00 0.00 0.00 0.00 0.00 0.00 0.00 0.00 0.00 0.00 0.00 0.00 0.00 0.00 0.00 0.00 0.01
0.10 0.09 0.08 0.07 0.07 0.10 0.22 0.35 0.47 0.39 0.39 0.35 0.34 0.30 0.31 0.34 0.17 0.10 0.06 0.01 0.00 0.00 0.00 0.00 0.00 0.00 0.00 0.00 0.00 0.00 0.00 0.00 0.00 0.00 0.00 0.00 0.00 0.00 0.00 0.00 0.00 0.00 0.00 0.00 0.00 0.00 0.00 0.00 0.00 0.00 0.01 0.01 0.01 0.01
0.13 0.11 0.10 0.10 0.10 0.17 0.32 0.43 0.65 0.41 0.52 0.43 0.41 0.37 0.42 0.52 0.35 0.20 0.03 0.00 0.00 0.00 0.00 0.00 0.00 0.00 0.00 0.00 0.00 0.00 0.00 0.00 0.00 0.00 0.00 0.00 0.00 0.00 0.00 0.00 0.00 0.00 0.00 0.00 0.00 0.00 0.00 0.00 0.00 0.00 0.01 0.02 0.03 0.04
0.13 0.13 0.14 0.15 0.17 0.33 0.43 0.58 0.78 0.57 0.57 0.47 0.54 0.56 0.70 0.69 0.41 0.16 0.05 0.01 0.00 0.01 0.01 0.00 0.00 0.00 0.00 0.00 0.00 0.00 0.00 0.00 0.01 0.00 0.00 0.00 0.00 0.00 0.00 0.00 0.00 0.01 0.01 0.00 0.00 0.00 0.00 0.00 0.00 0.00 0.01 0.04 0.07 0.09
0.15 0.15 0.16 0.19 0.27 0.50 0.60 0.77 0.76 0.54 0.51 0.54 0.61 0.78 0.87 0.59 0.17 0.05 0.12 0.10 0.07 0.07 0.03 0.00 0.00 0.00 0.00 0.00 0.00 0.00 0.00 0.01 0.01 0.00 0.00 0.00 0.00 0.00 0.00 0.00 0.00 0.00 0.00 0.00 0.00 0.00 0.00 0.00 0.00 0.00 0.00 0.03 0.07 0.16
0.16 0.14 0.16 0.23 0.47 0.63 0.77 0.93 0.59 0.54 0.62 0.65 0.84 0.70 0.43 0.24 0.23 0.33 0.42 0.34 0.16 0.12 0.03 0.00 0.00 0.00 0.00 0.00 0.00 0.00 0.00 0.00 0.00 0.00 0.00 0.00 0.00 0.00 0.00 0.00 0.00 0.00 0.00 0.01 0.00 0.00 0.00 0.00 0.00 0.01 0.02 0.03 0.04 0.07
0.12 0.11 0.15 0.34 0.61 0.77 0.87 0.73 0.50 0.55 0.60 0.43 0.32 0.44 0.50 0.55 0.61 0.52 0.40 0.16 0.06 0.01 0.00 0.00 0.00 0.00 0.00 0.00 0.00 0.00 0.00 0.00 0.00 0.00 0.01 0.00 0.00 0.00 0.00 0.00 0.00 0.00 0.00 0.01 0.00 0.00 0.01 0.01 0.02 0.03 0.03 0.04 0.07 0.09
0.10 0.12 0.25 0.52 0.71 0.82 0.73 0.46 0.36 0.40 0.37 0.29 0.44 0.54 0.53 0.54 0.35 0.23 0.13 0.04 0.00 0.00 0.00 0.00 0.00 0.00 0.00 0.00 0.00 0.00 0.00 0.01 0.02 0.01 0.00 0.00 0.00 0.00 0.00 0.00 0.00 0.00 0.00 0.00 0.01 0.01 0.01 0.01 0.01 0.02 0.04 0.07 0.14 0.21
0.15 0.23 0.49 0.66 0.74 0.66 0.66 0.66 0.55 0.59 0.50 0.65 0.65 0.53 0.28 0.19 0.07 0.03 0.00 0.00 0.00 0.00 0.00 0.00 0.00 0.00 0.00 0.00 0.00 0.00 0.00 0.01 0.02 0.00 0.00 0.00 0.00 0.00 0.00 0.00 0.00 0.00 0.00 0.00 0.00 0.01 0.00 0.01 0.01 0.04 0.06 0.06 0.06 0.05
0.30 0.52 0.68 0.70 0.74 0.76 0.72 0.71 0.72 0.79 0.78 0.61 0.36 0.19 0.12 0.04 0.01 0.00 0.00 0.00 0.00 0.00 0.00 0.00 0.00 0.00 0.00 0.00 0.00 0.00 0.02 0.01 0.00 0.00 0.00 0.00 0.00 0.00 0.00 0.00 0.00 0.00 0.00 0.00 0.00 0.00 0.00 0.00 0.01 0.00 0.00 0.00 0.00 0.00
0.61 0.95 0.97 0.98 1.01 0.86 1.10 1.20 1.23 1.19 0.81 0.44 0.25 0.12 0.03 0.01 0.04 0.03 0.00 0.00 0.00 0.00 0.00 0.00 0.00 0.01 0.00 0.00 0.00 0.00 0.00 0.00 0.00 0.00 0.00 0.00 0.00 0.00 0.00 0.00 0.00 0.00 0.00 0.00 0.00 0.00 0.00 0.00 0.00 0.00 0.00 0.00 0.00 0.00
1.09 1.32 1.32 1.25 1.28 1.31 1.39 1.47 1.64 1.47 1.15 0.60 0.19 0.03 0.04 0.06 0.07 0.03 0.01 0.00 0.00 0.00 0.00 0.00 0.00 0.01 0.01 0.00 0.00 0.00 0.00 0.00 0.00 0.00 0.00 0.00 0.00 0.00 0.00 0.00 0.00 0.00 0.00 0.00 0.00 0.00 0.00 0.00 0.00 0.00 0.00 0.00 0.00 0.00
1.08 1.10 1.19 1.46 1.50 1.51 1.57 1.47 1.42 1.20 0.82 0.35 0.15 0.12 0.16 0.14 0.04 0.01 0.01 0.01 0.01 0.00 0.00 0.00 0.00 0.00 0.00 0.00 0.00 0.00 0.00 0.00 0.00 0.00 0.00 0.00 0.00 0.00 0.00 0.00 0.00 0.00 0.00 0.00 0.00 0.01 0.00 0.01 0.02 0.02 0.03 0.03 0.02 0.03
0.88 0.92 0.98 0.85 0.59 0.92 1.65 1.65 0.85 0.39 0.32 0.22 0.30 0.38 0.23 0.13 0.04 0.00 0.00 0.01 0.03 0.02 0.00 0.01 0.02 0.01 0.00 0.00 0.00 0.00 0.00 0.00 0.00 0.00 0.00 0.00 0.00 0.00 0.00 0.00 0.00 0.00 0.00 0.00 0.00 0.00 0.00 0.00 0.01 0.01 0.04 0.06 0.06 0.10
1.13 1.06 0.88 0.70 0.59 0.67 0.63 0.95 0.52 0.21 0.24 0.40 0.45 0.46 0.30 0.17 0.06 0.01 0.00 0.05 0.10 0.14 0.11 0.02 0.01 0.00 0.00 0.00 0.00 0.00 0.00 0.00 0.00 0.00 0.00 0.00 0.00 0.00 0.00 0.00 0.00 0.00 0.00 0.00 0.00 0.00 0.00 0.00 0.00 0.00 0.00 0.00 0.01 0.01
1.98 1.89 1.56 1.20 1.05 0.60 0.36 0.35 0.36 0.31 0.27 0.45 0.56 0.43 0.46 0.32 0.18 0.06 0.07 0.08 0.18 0.16 0.09 0.02 0.00 0.00 0.00 0.00 0.00 0.00 0.00 0.00 0.00 0.00 0.00 0.00 0.00 0.00 0.00 0.00 0.00 0.00 0.00 0.00 0.00 0.00 0.00 0.00 0.00 0.00 0.00 0.00 0.00 0.00
2.12 1.61 1.27 0.95 0.75 0.63 0.43 0.24 0.26 0.37 0.28 0.46 0.52 0.39 0.40 0.40 0.29 0.17 0.11 0.17 0.17 0.06 0.01 0.00 0.00 0.00 0.00 0.00 0.00 0.00 0.00 0.00 0.00 0.00 0.00 0.00 0.00 0.00 0.00 0.00 0.00 0.00 0.00 0.00 0.00 0.00 0.00 0.00 0.00 0.00 0.00 0.00 0.00 0.00
1.03 0.94 1.16 1.25 1.11 0.67 0.54 0.41 0.39 0.53 0.48 0.50 0.49 0.41 0.38 0.32 0.29 0.21 0.16 0.08 0.05 0.02 0.02 0.02 0.01 0.01 0.00 0.00 0.00 0.00 0.00 0.00 0.00 0.00 0.00 0.00 0.00 0.00 0.00 0.00 0.00 0.00 0.00 0.00 0.00 0.00 0.00 0.00 0.00 0.00 0.00 0.00 0.00 0.00
1.01 1.55 1.64 1.15 0.69 0.43 0.31 0.34 0.35 0.33 0.47 0.50 0.38 0.27 0.25 0.26 0.31 0.29 0.16 0.02 0.00 0.00 0.03 0.07 0.07 0.04 0.02 0.00 0.00 0.00 0.00 0.00 0.00 0.00 0.00 0.00 0.00 0.00 0.00 0.00 0.00 0.00 0.00 0.00 0.00 0.00 0.00 0.00 0.00 0.00 0.00 0.00 0.00 0.00
1.55 1.52 0.98 0.63 0.26 0.20 0.13 0.16 0.25 0.25 0.24 0.31 0.27 0.22 0.18 0.22 0.21 0.11 0.03 0.00 0.00 0.01 0.02 0.03 0.05 0.06 0.04 0.02 0.01 0.00 0.00 0.00 0.00 0.00 0.00 0.00 0.00 0.00 0.00 0.00 0.00 0.00 0.00 0.00 0.00 0.00 0.00 0.00 0.00 0.00 0.00 0.00 0.00 0.00
0.89 0.61 0.42 0.17 0.04 0.06 0.10 0.11 0.14 0.16 0.19 0.25 0.20 0.15 0.20 0.22 0.14 0.05 0.00 0.00 0.00 0.01 0.02 0.01 0.01 0.02 0.02 0.01 0.00 0.00 0.00 0.00 0.00 0.00 0.00 0.00 0.00 0.00 0.00 0.00 0.00 0.00 0.00 0.00 0.00 0.00 0.00 0.00 0.00 0.00 0.00 0.00 0.00 0.00
0.40 0.15 0.04 0.03 0.01 0.02 0.03 0.06 0.09 0.14 0.21 0.13 0.08 0.08 0.13 0.15 0.06 0.00 0.00 0.00 0.00 0.00 0.00 0.02 0.02 0.01 0.00 0.00 0.00 0.00 0.00 0.00 0.00 0.00 0.00 0.00 0.00 0.00 0.00 0.00 0.00 0.00 0.00 0.00 0.00 0.00 0.00 0.00 0.00 0.00 0.00 0.00 0.00 0.00
0.08 0.03 0.01 0.01 0.01 0.02 0.03 0.06 0.08 0.10 0.10 0.06 0.06 0.11 0.10 0.03 0.00 0.00 0.00 0.00 0.01 0.04 0.06 0.07 0.05 0.01 0.00 0.00 0.00 0.00 0.00 0.00 0.01 0.01 0.00 0.00 0.00 0.00 0.00 0.00 0.00 0.00 0.00 0.00 0.00 0.00 0.00 0.00 0.01 0.01 0.01 0.01 0.00 0.00
0.00 0.01 0.02 0.07 0.10 0.12 0.12 0.09 0.05 0.03 0.02 0.02 0.04 0.03 0.01 0.00 0.00 0.00 0.00 0.01 0.05 0.09 0.10 0.10 0.07 0.01 0.00 0.00 0.00 0.00 0.00 0.00 0.00 0.00 0.00 0.00 0.00 0.00 0.00 0.00 0.00 0.00 0.00 0.00 0.00 0.00 0.00 0.01 0.02 0.02 0.03 0.01 0.00 0.00
0.06 0.07 0.11 0.16 0.12 0.10 0.08 0.06 0.05 0.03 0.02 0.04 0.06 0.04 0.01 0.00 0.00 0.00 0.00 0.01 0.02 0.05 0.07 0.08 0.07 0.03 0.00 0.00 0.00 0.00 0.00 0.00 0.00 0.00 0.00 0.00 0.00 0.00 0.00 0.00 0.00 0.00 0.00 0.00 0.00 0.00 0.00 0.00 0.00 0.00 0.00 0.00 0.00 0.00
0.13 0.11 0.10 0.10 0.09 0.07 0.08 0.11 0.12 0.11 0.08 0.06 0.06 0.07 0.06 0.02 0.00 0.00 0.00 0.00 0.01 0.02 0.04 0.08 0.11 0.08 0.03 0.02 0.00 0.00 0.00 0.00 0.00 0.00 0.00 0.00 0.00 0.00 0.00 0.00 0.00 0.00 0.00 0.01 0.01 0.01 0.01 0.00 0.00 0.00 0.00 0.00 0.00 0.00
0.14 0.11 0.06 0.07 0.11 0.14 0.13 0.12 0.11 0.09 0.09 0.08 0.06 0.04 0.05 0.04 0.02 0.00 0.00 0.00 0.01 0.04 0.05 0.07 0.07 0.07 0.05 0.02 0.00 0.00 0.00 0.00 0.00 0.00 0.00 0.00 0.00 0.00 0.00 0.00 0.00 0.01 0.01 0.02 0.01 0.01 0.01 0.01 0.01 0.00 0.00 0.00 0.00 0.00
0.13 0.12 0.08 0.09 0.14 0.16 0.14 0.11 0.09 0.09 0.09 0.08 0.07 0.04 0.03 0.02 0.02 0.00 0.00 0.01 0.03 0.05 0.05 0.05 0.05 0.04 0.03 0.01 0.00 0.00 0.00 0.00 0.00 0.00 0.00 0.01 0.01 0.01 0.01 0.01 0.01 0.02 0.02 0.01 0.01 0.01 0.00 0.00 0.00 0.00 0.00 0.01 0.01 0.01

GFSWCAN_prec_precacc24_117.txt.gz
Total_Precipitation_Accumulation
0.06 0.04 0.03 0.04 0.05 0.05 0.03 0.02 0.02 0.02 0.03 0.21 0.53 0.76 0.78 0.54 0.17 0.04 0.01 0.00 0.00 0.00 0.00 0.00 0.00 0.00 0.00 0.00 0.00 0.00 0.00 0.00 0.00 0.00 0.00 0.00 0.00 0.00 0.00 0.00 0.00 0.00 0.00 0.01 0.00 0.00 0.00 0.00 0.00 0.00 0.00 0.00 0.00 0.01
0.06 0.04 0.03 0.04 0.04 0.06 0.04 0.02 0.01 0.01 0.03 0.09 0.45 0.65 0.78 0.60 0.24 0.05 0.02 0.01 0.00 0.00 0.00 0.00 0.00 0.00 0.00 0.00 0.00 0.00 0.00 0.00 0.00 0.00 0.00 0.00 0.00 0.00 0.00 0.00 0.00 0.00 0.00 0.01 0.01 0.00 0.00 0.00 0.00 0.00 0.00 0.00 0.00 0.00
0.06 0.04 0.04 0.04 0.04 0.06 0.05 0.02 0.01 0.02 0.08 0.14 0.25 0.41 0.54 0.56 0.26 0.04 0.00 0.01 0.01 0.00 0.00 0.00 0.00 0.00 0.00 0.00 0.00 0.00 0.00 0.00 0.00 0.00 0.00 0.00 0.00 0.00 0.00 0.00 0.00 0.00 0.00 0.00 0.00 0.00 0.00 0.06 0.15 0.08 0.04 0.01 0.00 0.00
0.07 0.05 0.04 0.04 0.05 0.06 0.06 0.03 0.02 0.05 0.12 0.19 0.25 0.28 0.34 0.41 0.24 0.04 0.00 0.00 0.00 0.00 0.00 0.00 0.00 0.00 0.00 0.00 0.00 0.00 0.00 0.00 0.00 0.00 0.00 0.00 0.00 0.00 0.00 0.00 0.00 0.00 0.00 0.00 0.00 0.00 0.00 0.00 0.01 0.05 0.07 0.07 0.05 0.03
0.08 0.06 0.07 0.08 0.08 0.07 0.08 0.13 0.11 0.11 0.16 0.23 0.26 0.29 0.33 0.31 0.14 0.04 0.00 0.00 0.00 0.00 0.00 0.00 0.00 0.00 0.00 0.00 0.00 0.00 0.00 0.00 0.00 0.00 0.00 0.00 0.00 0.00 0.00 0.00 0.00 0.00 0.00 0.00 0.00 0.00 0.00 0.00 0.00 0.00 0.00 0.01 0.03 0.03
0.11 0.10 0.12 0.12 0.10 0.08 0.09 0.16 0.26 0.18 0.18 0.21 0.27 0.35 0.39 0.34 0.12 0.03 0.03 0.00 0.00 0.00 0.00 0.00 0.00 0.00 0.00 0.00 0.00 0.00 0.00 0.00 0.00 0.00 0.00 0.00 0.00 0.00 0.00 0.00 0.00 0.00 0.00 0.00 0.00 0.00 0.00 0.00 0.00 0.00 0.00 0.00 0.00 0.01
0.14 0.14 0.14 0.16 0.16 0.12 0.11 0.16 0.35 0.23 0.24 0.25 0.31 0.29 0.32 0.35 0.17 0.10 0.06 0.01 0.00 0.00 0.00 0.00 0.00 0.00 0.00 0.00 0.00 0.00 0.00 0.00 0.00 0.00 0.00 0.00 0.00 0.00 0.00 0.00 0.00 0.00 0.00 0.00 0.00 0.00 0.00 0.00 0.00 0.00 0.00 0.00 0.01 0.01
0.19 0.19 0.20 0.21 0.21 0.19 0.22 0.24 0.47 0.31 0.38 0.35 0.38 0.37 0.43 0.54 0.35 0.20 0.03 0.01 0.00 0.00 0.00 0.00 0.00 0.00 0.00 0.00 0.00 0.00 0.00 0.00 0.00 0.00 0.00 0.00 0.00 0.00 0.00 0.00 0.00 0.00 0.00 0.00 0.00 0.00 0.00 0.00 0.00 0.00 0.00 0.00 0.03 0.03
0.18 0.18 0.20 0.24 0.28 0.31 0.44 0.46 0.66 0.54 0.48 0.43 0.52 0.57 0.73 0.70 0.41 0.16 0.05 0.01 0.01 0.01 0.02 0.01 0.00 0.00 0.00 0.00 0.00 0.00 0.00 0.00 0.00 0.00 0.00 0.00 0.00 0.00 0.00 0.00 0.00 0.00 0.00 0.00 0.00 0.00 0.00 0.00 0.00 0.00 0.00 0.01 0.05 0.09
0.21 0.23 0.25 0.28 0.33 0.44 0.67 0.79 0.79 0.58 0.45 0.49 0.58 0.77 0.86 0.59 0.17 0.05 0.12 0.11 0.13 0.14 0.08 0.02 0.00 0.00 0.00 0.00 0.00 0.00 0.00 0.00 0.00 0.00 0.00 0.00 0.00 0.00 0.00 0.00 0.00 0.00 0.00 0.00 0.00 0.00 0.00 0.00 0.00 0.00 0.00 0.03 0.06 0.15
0.20 0.21 0.23 0.27 0.40 0.61 0.87 1.05 0.70 0.61 0.61 0.56 0.72 0.67 0.42 0.24 0.24 0.33 0.42 0.35 0.19 0.18 0.06 0.01 0.00 0.00 0.00 0.00 0.00 0.00 0.00 0.00 0.00 0.00 0.00 0.00 0.00 0.00 0.00 0.00 0.00 0.00 0.00 0.00 0.00 0.00 0.00 0.00 0.00 0.00 0.01 0.02 0.03 0.07
0.20 0.19 0.20 0.28 0.52 0.82 1.04 0.89 0.65 0.67 0.61 0.37 0.31 0.46 0.53 0.59 0.62 0.52 0.41 0.17 0.07 0.01 0.00 0.00 0.00 0.00 0.00 0.00 0.00 0.00 0.00 0.00 0.00 0.00 0.01 0.00 0.00 0.00 0.00 0.00 0.00 0.00 0.00 0.00 0.00 0.00 0.00 0.01 0.02 0.02 0.02 0.02 0.04 0.06
0.20 0.20 0.26 0.45 0.78 1.01 0.97 0.69 0.59 0.56 0.42 0.31 0.45 0.58 0.56 0.59 0.36 0.24 0.14 0.05 0.00 0.00 0.00 0.00 0.00 0.00 0.00 0.00 0.00 0.00 0.00 0.00 0.01 0.01 0.00 0.00 0.00 0.00 0.00 0.00 0.00 0.00 0.00 0.00 0.00 0.01 0.01 0.01 0.00 0.01 0.02 0.03 0.04 0.04
0.30 0.33 0.45 0.78 0.97 0.96 0.95 0.93 0.87 0.78 0.56 0.73 0.74 0.64 0.32 0.22 0.08 0.03 0.00 0.00 0.00 0.00 0.00 0.00 0.00 0.00 0.00 0.00 0.00 0.00 0.00 0.01 0.01 0.00 0.00 0.00 0.00 0.00 0.00 0.00 0.00 0.00 0.00 0.00 0.00 0.01 0.00 0.00 0.00 0.00 0.01 0.02 0.03 0.03
0.44 0.53 0.76 0.94 1.01 1.05 1.02 1.06 1.04 0.91 0.89 0.73 0.42 0.21 0.12 0.04 0.01 0.00 0.00 0.00 0.00 0.00 0.00 0.00 0.00 0.00 0.00 0.00 0.00 0.00 0.01 0.01 0.00 0.00 0.00 0.00 0.00 0.00 0.00 0.00 0.00 0.00 0.00 0.00 0.00 0.00 0.00 0.00 0.00 0.00 0.00 0.00 0.00 0.00
0.70 1.09 1.30 1.25 1.28 1.17 1.42 1.55 1.51 1.37 0.92 0.52 0.27 0.12 0.03 0.00 0.01 0.02 0.00 0.00 0.00 0.00 0.00 0.00 0.00 0.01 0.01 0.00 0.00 0.00 0.00 0.00 0.00 0.00 0.00 0.00 0.00 0.00 0.00 0.00 0.00 0.00 0.00 0.00 0.00 0.00 0.00 0.00 0.00 0.00 0.00 0.00 0.00 0.00
1.17 1.44 1.47 1.45 1.53 1.59 1.68 1.81 2.02 1.81 1.29 0.66 0.20 0.02 0.02 0.02 0.04 0.03 0.01 0.00 0.00 0.00 0.00 0.00 0.00 0.02 0.01 0.00 0.00 0.00 0.00 0.00 0.00 0.00 0.00 0.00 0.00 0.00 0.00 0.00 0.00 0.00 0.00 0.00 0.00 0.00 0.00 0.00 0.00 0.00 0.00 0.00 0.00 0.00
1.16 1.06 1.21 1.61 1.73 1.77 1.84 1.74 1.69 1.39 0.92 0.38 0.14 0.06 0.10 0.11 0.04 0.01 0.01 0.01 0.01 0.00 0.01 0.01 0.00 0.00 0.00 0.00 0.00 0.00 0.00 0.00 0.00 0.00 0.00 0.00 0.00 0.00 0.00 0.00 0.00 0.00 0.00 0.00 0.00 0.00 0.00 0.01 0.01 0.02 0.03 0.03 0.02 0.03
0.95 0.96 1.18 1.16 0.91 1.26 1.96 1.90 1.04 0.51 0.35 0.20 0.21 0.27 0.20 0.13 0.04 0.00 0.00 0.01 0.03 0.02 0.01 0.02 0.06 0.04 0.00 0.00 0.00 0.00 0.00 0.00 0.00 0.00 0.00 0.00 0.00 0.00 0.00 0.00 0.00 0.00 0.00 0.00 0.00 0.00 0.00 0.00 0.00 0.00 0.02 0.05 0.06 0.10
1.21 1.17 1.03 0.90 0.77 0.86 0.82 1.09 0.61 0.27 0.23 0.31 0.35 0.40 0.29 0.17 0.06 0.01 0.00 0.05 0.10 0.15 0.18 0.10 0.04 0.01 0.00 0.00 0.00 0.00 0.00 0.00 0.00 0.00 0.00 0.00 0.00 0.00 0.00 0.00 0.00 0.00 0.00 0.00 0.00 0.00 0.00 0.00 0.00 0.00 0.00 0.00 0.01 0.01
1.97 1.87 1.60 1.37 1.25 0.80 0.45 0.37 0.37 0.31 0.23 0.40 0.51 0.42 0.46 0.32 0.18 0.06 0.07 0.08 0.19 0.18 0.12 0.06 0.01 0.00 0.00 0.00 0.00 0.00 0.00 0.00 0.00 0.00 0.00 0.00 0.00 0.00 0.00 0.00 0.00 0.00 0.00 0.00 0.00 0.00 0.00 0.00 0.00 0.00 0.00 0.00 0.00 0.00
1.99 1.61 1.43 1.12 0.87 0.67 0.38 0.20 0.21 0.33 0.25 0.43 0.50 0.38 0.40 0.40 0.29 0.17 0.11 0.18 0.18 0.07 0.01 0.00 0.00 0.00 0.00 0.00 0.00 0.00 0.00 0.00 0.00 0.00 0.00 0.00 0.00 0.00 0.00 0.00 0.00 0.00 0.00 0.00 0.00 0.00 0.00 0.00 0.00 0.00 0.00 0.00 0.00 0.00
1.00 0.92 1.16 1.29 1.13 0.65 0.50 0.38 0.36 0.52 0.48 0.50 0.50 0.42 0.39 0.32 0.28 0.21 0.17 0.09 0.05 0.02 0.02 0.03 0.03 0.02 0.00 0.00 0.00 0.00 0.00 0.00 0.00 0.00 0.00 0.00 0.00 0.00 0.00 0.00 0.00 0.00 0.00 0.00 0.00 0.00 0.00 0.00 0.00 0.00 0.00 0.00 0.00 0.00
0.97 1.54 1.69 1.17 0.68 0.41 0.33 0.39 0.36 0.33 0.47 0.51 0.39 0.28 0.25 0.26 0.31 0.29 0.16 0.02 0.00 0.00 0.03 0.09 0.11 0.09 0.06 0.03 0.01 0.00 0.00 0.00 0.00 0.00 0.01 0.01 0.01 0.00 0.00 0.00 0.00 0.00 0.00 0.00 0.00 0.00 0.00 0.00 0.00 0.00 0.00 0.00 0.00 0.00
1.63 1.56 1.04 0.73 0.31 0.21 0.15 0.18 0.26 0.25 0.24 0.31 0.27 0.22 0.18 0.22 0.21 0.12 0.03 0.00 0.00 0.01 0.02 0.04 0.11 0.15 0.16 0.13 0.09 0.04 0.01 0.00 0.00 0.01 0.01 0.00 0.00 0.00 0.00 0.00 0.00 0.00 0.00 0.00 0.00 0.00 0.00 0.00 0.00 0.00 0.00 0.00 0.00 0.00
0.96 0.65 0.47 0.19 0.06 0.06 0.10 0.11 0.14 0.16 0.20 0.26 0.20 0.16 0.21 0.23 0.16 0.05 0.00 0.00 0.00 0.01 0.02 0.03 0.05 0.08 0.10 0.11 0.14 0.11 0.05 0.01 0.00 0.00 0.00 0.00 0.00 0.00 0.00 0.00 0.00 0.00 0.00 0.00 0.00 0.00 0.00 0.00 0.00 0.00 0.00 0.00 0.00 0.00
0.47 0.19 0.05 0.03 0.01 0.02 0.03 0.07 0.09 0.14 0.22 0.15 0.09 0.10 0.15 0.18 0.08 0.01 0.00 0.00 0.00 0.00 0.00 0.02 0.05 0.08 0.12 0.12 0.11 0.10 0.06 0.03 0.00 0.00 0.00 0.00 0.00 0.00 0.00 0.00 0.00 0.00 0.00 0.00 0.00 0.00 0.00 0.00 0.00 0.00 0.00 0.00 0.00 0.00
0.12 0.04 0.01 0.01 0.01 0.02 0.03 0.06 0.08 0.10 0.10 0.06 0.06 0.11 0.10 0.03 0.00 0.00 0.00 0.00 0.01 0.04 0.07 0.09 0.09 0.11 0.15 0.13 0.09 0.07 0.05 0.02 0.01 0.01 0.01 0.01 0.01 0.01 0.00 0.00 0.00 0.00 0.00 0.00 0.00 0.00 0.00 0.00 0.01 0.01 0.01 0.01 0.00 0.00
0.00 0.01 0.02 0.07 0.09 0.12 0.12 0.09 0.05 0.03 0.02 0.02 0.04 0.03 0.01 0.00 0.00 0.00 0.00 0.01 0.06 0.11 0.14 0.19 0.20 0.16 0.14 0.11 0.06 0.03 0.01 0.00 0.00 0.00 0.01 0.01 0.01 0.01 0.00 0.00 0.00 0.00 0.00 0.00 0.00 0.00 0.00 0.01 0.02 0.02 0.03 0.01 0.00 0.00
0.06 0.07 0.11 0.16 0.12 0.10 0.08 0.06 0.05 0.03 0.02 0.04 0.06 0.04 0.01 0.00 0.00 0.00 0.00 0.01 0.03 0.12 0.20 0.25 0.22 0.15 0.08 0.05 0.04 0.03 0.01 0.00 0.00 0.00 0.00 0.00 0.00 0.00 0.00 0.00 0.00 0.00 0.00 0.00 0.00 0.00 0.00 0.00 0.00 0.00 0.00 0.00 0.00 0.00
0.13 0.11 0.10 0.10 0.09 0.07 0.08 0.11 0.12 0.11 0.08 0.06 0.06 0.07 0.06 0.02 0.00 0.00 0.00 0.00 0.01 0.09 0.19 0.26 0.30 0.23 0.12 0.07 0.04 0.02 0.01 0.00 0.00 0.00 0.00 0.00 0.00 0.00 0.00 0.00 0.00 0.00 0.00 0.01 0.01 0.01 0.01 0.00 0.00 0.00 0.00 0.00 0.00 0.00
0.14 0.11 0.06 0.07 0.11 0.15 0.13 0.13 0.11 0.09 0.09 0.08 0.06 0.04 0.05 0.04 0.02 0.00 0.00 0.00 0.02 0.10 0.18 0.22 0.21 0.22 0.16 0.08 0.03 0.01 0.01 0.01 0.00 0.00 0.00 0.00 0.00 0.00 0.00 0.00 0.00 0.01 0.01 0.01 0.01 0.01 0.01 0.00 0.00 0.00 0.00 0.00 0.00 0.00
0.14 0.12 0.08 0.09 0.14 0.16 0.14 0.11 0.10 0.10 0.10 0.09 0.07 0.05 0.03 0.02 0.02 0.00 0.00 0.01 0.04 0.08 0.15 0.18 0.19 0.19 0.16 0.10 0.05 0.03 0.04 0.03 0.01 0.00 0.00 0.00 0.00 0.00 0.00 0.01 0.01 0.01 0.01 0.01 0.01 0.00 0.00 0.00 0.00 0.00 0.00 0.00 0.01 0.01

GFSWCAN_prec_precacc24_120.txt.gz
Total_Precipitation_Accumulation
0.10 0.09 0.06 0.05 0.05 0.05 0.03 0.02 0.02 0.01 0.01 0.02 0.17 0.48 0.62 0.51 0.17 0.04 0.01 0.00 0.00 0.00 0.00 0.00 0.00 0.00 0.00 0.00 0.00 0.00 0.00 0.00 0.00 0.00 0.00 0.00 0.00 0.00 0.00 0.00 0.00 0.00 0.00 0.00 0.00 0.00 0.00 0.00 0.00 0.00 0.00 0.00 0.00 0.00
0.08 0.09 0.08 0.06 0.04 0.05 0.03 0.02 0.01 0.01 0.01 0.02 0.18 0.33 0.61 0.58 0.24 0.05 0.02 0.01 0.00 0.00 0.00 0.00 0.00 0.00 0.00 0.00 0.00 0.00 0.00 0.00 0.00 0.00 0.00 0.00 0.00 0.00 0.00 0.00 0.00 0.00 0.00 0.00 0.00 0.00 0.00 0.00 0.00 0.00 0.00 0.00 0.00 0.00
0.07 0.07 0.09 0.08 0.05 0.06 0.05 0.02 0.01 0.01 0.01 0.03 0.13 0.26 0.43 0.53 0.26 0.04 0.00 0.01 0.01 0.00 0.00 0.00 0.00 0.00 0.00 0.00 0.00 0.00 0.00 0.00 0.00 0.00 0.00 0.00 0.00 0.00 0.00 0.00 0.00 0.00 0.00 0.00 0.00 0.00 0.00 0.00 0.00 0.01 0.03 0.01 0.00 0.00
0.08 0.07 0.08 0.09 0.09 0.07 0.06 0.02 0.01 0.01 0.01 0.04 0.11 0.21 0.30 0.40 0.24 0.05 0.00 0.00 0.00 0.00 0.00 0.00 0.00 0.00 0.00 0.00 0.00 0.00 0.00 0.00 0.00 0.00 0.00 0.00 0.00 0.00 0.00 0.00 0.00 0.00 0.00 0.00 0.00 0.00 0.00 0.00 0.00 0.00 0.02 0.06 0.05 0.03
0.10 0.09 0.10 0.13 0.13 0.10 0.08 0.04 0.03 0.01 0.03 0.07 0.13 0.23 0.31 0.31 0.14 0.04 0.00 0.00 0.00 0.00 0.00 0.00 0.00 0.00 0.00 0.00 0.00 0.00 0.00 0.00 0.00 0.00 0.00 0.00 0.00 0.00 0.00 0.00 0.00 0.00 0.00 0.00 0.00 0.00 0.00 0.00 0.00 0.00 0.00 0.00 0.03 0.03
0.13 0.14 0.15 0.17 0.17 0.14 0.11 0.08 0.07 0.06 0.06 0.09 0.16 0.29 0.37 0.32 0.12 0.04 0.04 0.00 0.00 0.00 0.00 0.00 0.00 0.00 0.00 0.00 0.00 0.00 0.00 0.00 0.00 0.00 0.00 0.00 0.00 0.00 0.00 0.00 0.00 0.00 0.00 0.00 0.00 0.00 0.00 0.00 0.00 0.00 0.00 0.00 0.00 0.01
0.14 0.16 0.18 0.24 0.26 0.22 0.17 0.16 0.20 0.16 0.17 0.17 0.19 0.21 0.27 0.32 0.16 0.10 0.06 0.01 0.00 0.00 0.00 0.00 0.00 0.00 0.00 0.00 0.00 0.00 0.00 0.00 0.00 0.00 0.00 0.00 0.00 0.00 0.00 0.00 0.00 0.00 0.00 0.00 0.00 0.00 0.00 0.00 0.00 0.00 0.00 0.00 0.00 0.00
0.19 0.21 0.24 0.28 0.32 0.32 0.30 0.29 0.42 0.35 0.37 0.31 0.30 0.29 0.39 0.54 0.35 0.20 0.03 0.01 0.00 0.00 0.00 0.00 0.00 0.00 0.00 0.00 0.00 0.00 0.00 0.00 0.00 0.00 0.00 0.00 0.00 0.00 0.00 0.00 0.00 0.00 0.00 0.00 0.00 0.00 0.00 0.00 0.00 0.00 0.00 0.00 0.00 0.00
0.17 0.20 0.24 0.30 0.38 0.44 0.45 0.53 0.73 0.65 0.62 0.52 0.54 0.56 0.74 0.71 0.40 0.15 0.05 0.01 0.01 0.02 0.02 0.03 0.00 0.00 0.00 0.00 0.00 0.00 0.00 0.00 0.00 0.00 0.00 0.00 0.00 0.00 0.00 0.00 0.00 0.00 0.00 0.00 0.00 0.00 0.00 0.00 0.00 0.00 0.00 0.00 0.01 0.06
0.21 0.24 0.28 0.33 0.43 0.53 0.61 0.93 0.97 0.88 0.74 0.65 0.68 0.82 0.88 0.59 0.16 0.05 0.12 0.11 0.16 0.20 0.13 0.04 0.00 0.00 0.00 0.00 0.00 0.00 0.00 0.00 0.00 0.00 0.00 0.00 0.00 0.00 0.00 0.00 0.00 0.00 0.00 0.00 0.00 0.00 0.00 0.00 0.00 0.00 0.00 0.00 0.01 0.05
0.23 0.24 0.27 0.32 0.44 0.61 0.89 1.27 1.03 0.99 0.93 0.81 0.92 0.75 0.41 0.23 0.26 0.35 0.43 0.35 0.19 0.20 0.09 0.02 0.00 0.00 0.00 0.00 0.00 0.00 0.00 0.00 0.00 0.00 0.00 0.00 0.00 0.00 0.00 0.00 0.00 0.00 0.00 0.00 0.00 0.00 0.00 0.00 0.00 0.00 0.00 0.01 0.02 0.05
0.31 0.33 0.33 0.37 0.49 0.84 1.27 1.31 1.09 1.04 0.95 0.57 0.39 0.50 0.62 0.71 0.73 0.60 0.44 0.17 0.07 0.02 0.00 0.00 0.00 0.00 0.00 0.00 0.00 0.00 0.00 0.00 0.00 0.00 0.00 0.00 0.00 0.00 0.00 0.00 0.00 0.00 0.00 0.00 0.00 0.00 0.00 0.00 0.00 0.00 0.01 0.01 0.02 0.02
0.30 0.33 0.39 0.50 0.80 1.26 1.44 1.26 1.08 0.93 0.69 0.51 0.63 0.80 0.72 0.71 0.44 0.28 0.15 0.05 0.01 0.00 0.00 0.00 0.00 0.00 0.00 0.00 0.00 0.00 0.00 0.00 0.00 0.00 0.00 0.00 0.00 0.00 0.00 0.00 0.00 0.00 0.00 0.00 0.00 0.00 0.01 0.00 0.00 0.00 0.01 0.01 0.02 0.02
0.43 0.47 0.54 0.69 1.15 1.37 1.55 1.52 1.43 1.30 0.96 1.11 1.06 0.88 0.42 0.27 0.08 0.03 0.00 0.00 0.00 0.00 0.00 0.00 0.00 0.00 0.00 0.00 0.00 0.00 0.00 0.00 0.01 0.00 0.00 0.00 0.00 0.00 0.00 0.00 0.00 0.00 0.00 0.00 0.00 0.00 0.00 0.00 0.00 0.00 0.00 0.00 0.01 0.01
0.60 0.66 0.80 1.04 1.34 1.52 1.60 1.65 1.62 1.28 1.24 1.17 0.71 0.34 0.16 0.04 0.01 0.00 0.00 0.00 0.00 0.00 0.00 0.00 0.00 0.00 0.00 0.00 0.00 0.00 0.01 0.01 0.00 0.00 0.00 0.00 0.00 0.00 0.00 0.00 0.00 0.00 0.00 0.00 0.00 0.00 0.00 0.00 0.00 0.00 0.00 0.00 0.00 0.00
0.78 1.10 1.48 1.49 1.63 1.61 1.92 2.04 1.94 1.71 1.34 0.86 0.43 0.16 0.04 0.00 0.00 0.00 0.00 0.00 0.00 0.00 0.00 0.00 0.00 0.01 0.01 0.00 0.00 0.00 0.00 0.00 0.00 0.00 0.00 0.00 0.00 0.00 0.00 0.00 0.00 0.00 0.00 0.00 0.00 0.00 0.00 0.00 0.00 0.00 0.00 0.00 0.00 0.00
1.24 1.61 1.61 1.65 1.84 1.96 2.18 2.45 2.61 2.28 1.68 0.97 0.30 0.04 0.02 0.00 0.00 0.01 0.01 0.00 0.00 0.00 0.00 0.00 0.00 0.02 0.01 0.00 0.00 0.00 0.00 0.00 0.00 0.00 0.00 0.00 0.00 0.00 0.00 0.00 0.00 0.00 0.00 0.00 0.00 0.00 0.00 0.00 0.00 0.00 0.00 0.00 0.00 0.00
1.40 1.23 1.23 1.68 2.03 2.33 2.48 2.20 1.97 1.61 1.10 0.45 0.15 0.03 0.03 0.04 0.01 0.01 0.01 0.01 0.01 0.00 0.01 0.01 0.00 0.00 0.00 0.00 0.00 0.00 0.00 0.00 0.00 0.00 0.00 0.00 0.00 0.00 0.00 0.00 0.00 0.00 0.00 0.00 0.00 0.00 0.00 0.00 0.00 0.01 0.01 0.01 0.01 0.02
1.12 1.06 1.31 1.48 1.50 1.93 2.45 2.26 1.32 0.67 0.39 0.18 0.14 0.16 0.11 0.06 0.04 0.00 0.00 0.01 0.03 0.02 0.01 0.02 0.06 0.04 0.00 0.00 0.00 0.00 0.00 0.00 0.00 0.00 0.00 0.00 0.00 0.00 0.00 0.00 0.00 0.00 0.00 0.00 0.00 0.00 0.00 0.00 0.00 0.00 0.00 0.00 0.00 0.03
1.35 1.30 1.29 1.26 1.09 1.16 1.08 1.28 0.76 0.32 0.21 0.25 0.23 0.28 0.24 0.14 0.05 0.01 0.01 0.05 0.10 0.15 0.18 0.10 0.04 0.01 0.00 0.00 0.00 0.00 0.00 0.00 0.00 0.00 0.00 0.00 0.00 0.00 0.00 0.00 0.00 0.00 0.00 0.00 0.00 0.00 0.00 0.00 0.00 0.00 0.00 0.00 0.00 0.00
2.16 2.06 1.87 1.69 1.62 1.17 0.66 0.48 0.41 0.32 0.19 0.29 0.37 0.34 0.43 0.31 0.16 0.06 0.06 0.08 0.19 0.19 0.12 0.06 0.01 0.00 0.00 0.00 0.00 0.00 0.00 0.00 0.00 0.00 0.00 0.00 0.00 0.00 0.00 0.00 0.00 0.01 0.01 0.00 0.00 0.00 0.00 0.00 0.00 0.00 0.00 0.00 0.00 0.00
2.18 1.94 1.92 1.53 1.24 0.89 0.48 0.23 0.17 0.27 0.17 0.29 0.39 0.33 0.37 0.40 0.29 0.17 0.11 0.19 0.19 0.07 0.01 0.00 0.00 0.00 0.00 0.00 0.00 0.00 0.00 0.00 0.00 0.00 0.00 0.00 0.00 0.00 0.00 0.00 0.00 0.00 0.01 0.00 0.00 0.00 0.00 0.00 0.00 0.00 0.00 0.00 0.00 0.00
1.05 1.05 1.25 1.40 1.18 0.66 0.52 0.34 0.25 0.42 0.37 0.41 0.44 0.40 0.39 0.32 0.28 0.22 0.18 0.10 0.06 0.02 0.02 0.03 0.03 0.02 0.00 0.00 0.00 0.00 0.00 0.00 0.00 0.00 0.00 0.00 0.00 0.00 0.01 0.01 0.00 0.00 0.01 0.00 0.00 0.00 0.00 0.00 0.00 0.00 0.00 0.00 0.00 0.00
0.85 1.48 1.62 1.13 0.65 0.39 0.33 0.38 0.31 0.28 0.44 0.49 0.39 0.29 0.27 0.26 0.32 0.31 0.17 0.02 0.00 0.00 0.03 0.09 0.11 0.09 0.06 0.03 0.01 0.00 0.00 0.00 0.00 0.00 0.01 0.01 0.01 0.00 0.00 0.00 0.00 0.00 0.00 0.00 0.00 0.00 0.00 0.00 0.00 0.00 0.00 0.00 0.00 0.00
1.67 1.58 1.03 0.75 0.31 0.19 0.12 0.15 0.22 0.22 0.23 0.30 0.26 0.23 0.19 0.23 0.22 0.13 0.03 0.00 0.00 0.01 0.02 0.04 0.11 0.15 0.16 0.13 0.09 0.04 0.02 0.00 0.00 0.01 0.01 0.02 0.04 0.04 0.02 0.01 0.01 0.01 0.00 0.00 0.00 0.00 0.00 0.00 0.00 0.00 0.00 0.00 0.00 0.00
0.98 0.71 0.52 0.21 0.06 0.05 0.09 0.09 0.13 0.16 0.20 0.26 0.20 0.16 0.21 0.23 0.16 0.05 0.00 0.00 0.00 0.01 0.02 0.03 0.05 0.08 0.10 0.11 0.14 0.13 0.08 0.04 0.02 0.01 0.00 0.00 0.02 0.04 0.02 0.01 0.01 0.01 0.00 0.00 0.00 0.00 0.00 0.00 0.00 0.00 0.00 0.00 0.00 0.00
0.50 0.21 0.06 0.03 0.01 0.02 0.03 0.07 0.09 0.14 0.22 0.15 0.09 0.10 0.15 0.18 0.08 0.01 0.00 0.00 0.00 0.00 0.00 0.02 0.05 0.08 0.12 0.13 0.15 0.16 0.16 0.14 0.08 0.03 0.01 0.01 0.01 0.00 0.00 0.00 0.00 0.00 0.00 0.00 0.00 0.00 0.00 0.00 0.00 0.00 0.00 0.00 0.00 0.00
0.15 0.04 0.01 0.01 0.01 0.02 0.03 0.06 0.08 0.10 0.10 0.06 0.06 0.11 0.10 0.03 0.00 0.00 0.00 0.00 0.01 0.04 0.07 0.09 0.09 0.12 0.19 0.20 0.20 0.23 0.21 0.18 0.15 0.08 0.04 0.03 0.03 0.01 0.01 0.00 0.00 0.00 0.00 0.00 0.00 0.00 0.00 0.00 0.00 0.00 0.00 0.00 0.00 0.00
0.01 0.01 0.02 0.06 0.09 0.11 0.12 0.09 0.05 0.03 0.02 0.02 0.04 0.03 0.01 0.00 0.00 0.00 0.00 0.01 0.06 0.12 0.16 0.20 0.23 0.21 0.25 0.26 0.21 0.15 0.11 0.09 0.09 0.06 0.02 0.02 0.03 0.04 0.02 0.01 0.01 0.01 0.00 0.00 0.00 0.00 0.00 0.01 0.01 0.02 0.02 0.01 0.00 0.00
0.06 0.07 0.10 0.15 0.12 0.10 0.08 0.06 0.05 0.03 0.02 0.04 0.06 0.04 0.01 0.00 0.00 0.00 0.00 0.01 0.03 0.12 0.23 0.30 0.31 0.26 0.21 0.17 0.15 0.16 0.16 0.14 0.06 0.00 0.00 0.00 0.00 0.02 0.02 0.01 0.01 0.00 0.00 0.00 0.00 0.00 0.00 0.00 0.00 0.00 0.00 0.00 0.00 0.00
0.13 0.11 0.10 0.10 0.09 0.07 0.08 0.11 0.13 0.12 0.08 0.07 0.06 0.07 0.06 0.02 0.00 0.00 0.00 0.01 0.01 0.09 0.21 0.30 0.38 0.34 0.25 0.19 0.14 0.11 0.12 0.12 0.08 0.02 0.00 0.00 0.00 0.00 0.00 0.00 0.00 0.00 0.00 0.01 0.00 0.00 0.00 0.00 0.00 0.00 0.00 0.00 0.00 0.00
0.14 0.11 0.06 0.07 0.11 0.15 0.14 0.13 0.11 0.09 0.09 0.08 0.06 0.05 0.05 0.04 0.02 0.00 0.00 0.00 0.02 0.11 0.21 0.27 0.29 0.33 0.32 0.23 0.15 0.09 0.05 0.06 0.05 0.02 0.01 0.01 0.00 0.00 0.00 0.00 0.00 0.00 0.01 0.01 0.01 0.00 0.00 0.00 0.00 0.00 0.00 0.00 0.00 0.00
0.14 0.13 0.09 0.09 0.14 0.16 0.14 0.12 0.10 0.10 0.10 0.09 0.07 0.05 0.03 0.02 0.02 0.00 0.00 0.01 0.04 0.08 0.17 0.23 0.28 0.31 0.29 0.23 0.16 0.11 0.09 0.08 0.05 0.02 0.02 0.01 0.00 0.00 0.00 0.00 0.00 0.01 0.01 0.00 0.00 0.00 0.00 0.00 0.00 0.00 0.00 0.00 0.00 0.00

GFSWCAN_prec_precacc24_126.txt.gz
Total_Precipitation_Accumulation
0.12 0.09 0.06 0.03 0.03 0.04 0.01 0.01 0.02 0.01 0.01 0.00 0.00 0.06 0.20 0.22 0.03 0.03 0.01 0.00 0.00 0.00 0.00 0.00 0.00 0.00 0.00 0.00 0.00 0.00 0.00 0.00 0.00 0.00 0.00 0.00 0.00 0.00 0.00 0.00 0.00 0.00 0.00 0.00 0.00 0.00 0.00 0.00 0.00 0.00 0.00 0.00 0.00 0.00
0.09 0.09 0.08 0.05 0.02 0.03 0.02 0.02 0.01 0.02 0.02 0.00 0.00 0.01 0.10 0.27 0.12 0.05 0.02 0.01 0.00 0.00 0.00 0.00 0.00 0.00 0.00 0.00 0.00 0.00 0.00 0.00 0.00 0.00 0.00 0.00 0.00 0.00 0.00 0.00 0.00 0.00 0.00 0.00 0.00 0.00 0.00 0.00 0.00 0.00 0.00 0.00 0.00 0.00
0.06 0.07 0.08 0.07 0.04 0.04 0.04 0.02 0.02 0.03 0.02 0.01 0.00 0.01 0.04 0.19 0.18 0.04 0.00 0.01 0.01 0.00 0.00 0.00 0.00 0.00 0.00 0.00 0.00 0.00 0.00 0.00 0.00 0.00 0.00 0.00 0.00 0.00 0.00 0.00 0.00 0.00 0.00 0.00 0.00 0.00 0.00 0.00 0.00 0.00 0.00 0.00 0.00 0.00
0.06 0.06 0.07 0.08 0.08 0.07 0.06 0.03 0.04 0.05 0.04 0.02 0.02 0.02 0.04 0.10 0.17 0.05 0.00 0.00 0.00 0.00 0.00 0.00 0.00 0.00 0.00 0.00 0.00 0.00 0.00 0.00 0.00 0.00 0.00 0.00 0.00 0.00 0.00 0.00 0.00 0.00 0.00 0.00 0.00 0.00 0.00 0.00 0.00 0.00 0.00 0.00 0.00 0.00
0.07 0.08 0.09 0.10 0.12 0.10 0.09 0.06 0.05 0.07 0.08 0.07 0.07 0.09 0.14 0.17 0.14 0.08 0.01 0.00 0.00 0.00 0.00 0.00 0.00 0.00 0.00 0.00 0.00 0.00 0.00 0.00 0.00 0.00 0.00 0.00 0.00 0.00 0.00 0.00 0.00 0.00 0.00 0.00 0.00 0.00 0.00 0.00 0.00 0.00 0.00 0.00 0.00 0.00
0.10 0.11 0.13 0.16 0.15 0.14 0.15 0.14 0.13 0.14 0.17 0.17 0.19 0.26 0.37 0.44 0.30 0.14 0.08 0.01 0.00 0.00 0.00 0.00 0.00 0.00 0.00 0.00 0.00 0.00 0.00 0.00 0.00 0.00 0.00 0.00 0.00 0.00 0.00 0.00 0.00 0.00 0.00 0.00 0.00 0.00 0.00 0.00 0.00 0.00 0.00 0.00 0.00 0.00
0.12 0.13 0.16 0.22 0.25 0.24 0.23 0.24 0.28 0.28 0.29 0.34 0.39 0.52 0.63 0.67 0.41 0.19 0.10 0.01 0.00 0.01 0.02 0.00 0.00 0.00 0.00 0.00 0.00 0.00 0.00 0.00 0.00 0.00 0.00 0.00 0.00 0.00 0.00 0.00 0.00 0.00 0.00 0.00 0.00 0.00 0.00 0.00 0.00 0.00 0.00 0.00 0.00 0.00
0.14 0.17 0.20 0.24 0.31 0.35 0.35 0.34 0.38 0.43 0.50 0.63 0.81 0.96 1.03 1.12 0.74 0.40 0.12 0.05 0.02 0.02 0.03 0.01 0.00 0.00 0.00 0.00 0.00 0.00 0.00 0.00 0.00 0.00 0.00 0.00 0.00 0.00 0.00 0.00 0.00 0.00 0.00 0.00 0.00 0.00 0.00 0.00 0.00 0.00 0.00 0.00 0.00 0.00
0.12 0.14 0.18 0.25 0.37 0.47 0.55 0.57 0.63 0.72 0.91 1.18 1.55 1.72 1.87 1.69 0.97 0.35 0.11 0.16 0.15 0.10 0.09 0.06 0.01 0.00 0.00 0.00 0.00 0.00 0.00 0.00 0.00 0.00 0.00 0.00 0.00 0.00 0.00 0.00 0.00 0.00 0.00 0.00 0.00 0.00 0.00 0.00 0.00 0.00 0.00 0.00 0.00 0.00
0.13 0.17 0.22 0.30 0.43 0.58 0.70 0.78 0.92 1.11 1.50 2.03 2.31 2.16 1.66 0.98 0.29 0.10 0.35 0.57 0.51 0.44 0.26 0.09 0.00 0.00 0.00 0.00 0.00 0.00 0.00 0.00 0.00 0.00 0.00 0.00 0.00 0.00 0.00 0.00 0.00 0.00 0.00 0.00 0.00 0.00 0.00 0.00 0.00 0.00 0.00 0.00 0.00 0.00
0.16 0.18 0.23 0.32 0.45 0.60 0.77 0.94 1.20 1.78 2.47 2.39 2.15 1.58 0.85 0.38 0.41 0.77 0.98 0.78 0.39 0.29 0.13 0.05 0.00 0.00 0.00 0.00 0.00 0.00 0.00 0.00 0.00 0.00 0.00 0.00 0.00 0.00 0.00 0.00 0.00 0.00 0.00 0.00 0.00 0.00 0.00 0.00 0.00 0.00 0.00 0.00 0.00 0.00
0.27 0.31 0.35 0.39 0.50 0.69 0.92 1.18 1.66 2.20 2.20 1.53 1.11 1.17 1.38 1.16 1.15 1.11 0.86 0.33 0.13 0.03 0.00 0.00 0.00 0.00 0.00 0.00 0.04 0.05 0.03 0.01 0.00 0.00 0.00 0.00 0.00 0.00 0.00 0.00 0.00 0.00 0.00 0.00 0.00 0.00 0.00 0.00 0.00 0.00 0.00 0.00 0.00 0.00
0.29 0.34 0.42 0.53 0.72 0.97 1.23 1.51 1.83 1.95 1.92 1.55 1.64 1.93 1.65 1.44 0.98 0.63 0.30 0.08 0.01 0.00 0.01 0.00 0.00 0.00 0.01 0.03 0.10 0.06 0.02 0.00 0.00 0.00 0.00 0.00 0.00 0.00 0.00 0.00 0.00 0.00 0.00 0.00 0.00 0.00 0.00 0.00 0.00 0.00 0.00 0.00 0.00 0.00
0.43 0.47 0.55 0.69 0.93 1.24 1.57 1.92 2.45 2.67 2.15 2.22 2.24 2.02 1.19 0.86 0.32 0.07 0.00 0.00 0.00 0.00 0.00 0.00 0.01 0.03 0.05 0.07 0.11 0.05 0.01 0.00 0.00 0.00 0.00 0.00 0.00 0.00 0.00 0.00 0.00 0.00 0.00 0.00 0.00 0.00 0.00 0.00 0.00 0.00 0.00 0.00 0.00 0.00
0.62 0.70 0.77 0.90 1.11 1.52 1.80 2.27 2.80 2.39 2.19 2.39 1.94 1.25 0.71 0.20 0.02 0.00 0.00 0.00 0.00 0.00 0.00 0.00 0.01 0.04 0.05 0.12 0.09 0.03 0.01 0.00 0.00 0.00 0.00 0.00 0.00 0.00 0.00 0.00 0.00 0.00 0.00 0.00 0.00 0.00 0.00 0.00 0.00 0.00 0.00 0.00 0.00 0.00
0.81 1.09 1.31 1.23 1.34 1.54 2.15 2.72 2.78 2.52 2.50 2.07 1.48 0.82 0.25 0.02 0.00 0.00 0.00 0.00 0.00 0.00 0.01 0.02 0.08 0.15 0.12 0.05 0.03 0.00 0.00 0.00 0.00 0.00 0.00 0.00 0.00 0.00 0.00 0.00 0.00 0.00 0.00 0.00 0.00 0.00 0.00 0.00 0.00 0.00 0.00 0.00 0.00 0.00
1.31 1.56 1.20 1.21 1.52 1.82 2.48 3.45 4.07 3.77 3.01 2.33 1.17 0.41 0.07 0.00 0.00 0.01 0.01 0.00 0.00 0.02 0.03 0.04 0.09 0.08 0.05 0.03 0.01 0.00 0.00 0.00 0.00 0.00 0.00 0.00 0.00 0.00 0.00 0.00 0.00 0.00 0.00 0.00 0.00 0.00 0.00 0.00 0.00 0.00 0.00 0.00 0.00 0.00
1.44 1.11 0.93 1.17 1.80 2.63 3.18 3.19 3.22 2.79 2.16 1.21 0.47 0.10 0.02 0.02 0.01 0.00 0.01 0.01 0.03 0.04 0.03 0.02 0.03 0.06 0.03 0.01 0.00 0.00 0.00 0.00 0.00 0.00 0.00 0.00 0.00 0.00 0.00 0.00 0.00 0.00 0.00 0.00 0.00 0.00 0.00 0.00 0.00 0.00 0.00 0.00 0.00 0.00
0.96 0.85 1.14 1.56 2.27 3.11 3.39 3.13 2.24 1.58 0.98 0.40 0.12 0.06 0.01 0.01 0.02 0.00 0.00 0.02 0.04 0.03 0.04 0.13 0.23 0.12 0.01 0.00 0.00 0.00 0.00 0.00 0.00 0.00 0.00 0.00 0.00 0.00 0.00 0.00 0.00 0.00 0.00 0.00 0.00 0.00 0.00 0.00 0.00 0.00 0.00 0.00 0.00 0.00
1.07 1.20 1.33 1.59 1.67 2.28 2.08 1.90 1.39 0.66 0.32 0.24 0.11 0.10 0.09 0.05 0.02 0.01 0.02 0.08 0.13 0.23 0.39 0.28 0.09 0.01 0.00 0.00 0.00 0.00 0.00 0.00 0.00 0.00 0.00 0.00 0.00 0.00 0.00 0.00 0.00 0.00 0.00 0.00 0.00 0.00 0.00 0.00 0.00 0.00 0.00 0.00 0.00 0.00
1.95 2.02 1.87 1.91 2.47 2.31 1.52 0.91 0.69 0.47 0.21 0.18 0.19 0.16 0.25 0.19 0.12 0.06 0.10 0.15 0.37 0.42 0.25 0.08 0.01 0.00 0.00 0.00 0.00 0.00 0.00 0.00 0.00 0.00 0.00 0.00 0.00 0.00 0.00 0.00 0.00 0.01 0.01 0.00 0.00 0.00 0.00 0.00 0.00 0.00 0.00 0.00 0.00 0.00
2.30 2.06 2.38 2.15 2.18 1.65 0.93 0.43 0.22 0.30 0.14 0.18 0.24 0.21 0.30 0.35 0.29 0.22 0.19 0.41 0.38 0.11 0.02 0.00 0.00 0.00 0.00 0.00 0.00 0.00 0.00 0.00 0.00 0.00 0.00 0.00 0.00 0.00 0.00 0.00 0.00 0.00 0.01 0.02 0.02 0.01 0.00 0.00 0.00 0.00 0.00 0.00 0.00 0.00
1.42 1.41 1.65 1.90 1.63 0.94 0.70 0.37 0.17 0.32 0.27 0.33 0.31 0.38 0.44 0.39 0.38 0.33 0.47 0.30 0.10 0.02 0.02 0.03 0.03 0.02 0.00 0.00 0.00 0.00 0.00 0.00 0.00 0.00 0.00 0.00 0.00 0.00 0.01 0.01 0.00 0.01 0.02 0.04 0.05 0.05 0.02 0.01 0.01 0.00 0.00 0.00 0.00 0.00
1.10 1.73 1.90 1.42 0.83 0.44 0.39 0.39 0.26 0.20 0.36 0.45 0.39 0.36 0.33 0.31 0.42 0.46 0.29 0.05 0.00 0.00 0.03 0.09 0.11 0.09 0.06 0.03 0.01 0.00 0.00 0.00 0.00 0.00 0.01 0.01 0.01 0.00 0.00 0.00 0.00 0.01 0.02 0.04 0.06 0.07 0.07 0.05 0.03 0.03 0.02 0.01 0.00 0.00
1.83 1.73 1.20 0.87 0.37 0.20 0.12 0.14 0.17 0.14 0.17 0.27 0.23 0.24 0.21 0.24 0.25 0.17 0.04 0.00 0.00 0.01 0.02 0.04 0.11 0.15 0.16 0.13 0.09 0.04 0.02 0.00 0.00 0.01 0.01 0.02 0.04 0.04 0.03 0.02 0.02 0.04 0.03 0.04 0.06 0.08 0.09 0.06 0.04 0.03 0.02 0.01 0.00 0.00
1.10 0.80 0.54 0.19 0.06 0.03 0.06 0.04 0.05 0.07 0.08 0.15 0.16 0.16 0.20 0.23 0.17 0.06 0.00 0.00 0.00 0.02 0.03 0.03 0.05 0.08 0.10 0.11 0.14 0.13 0.08 0.04 0.02 0.01 0.00 0.00 0.02 0.05 0.05 0.05 0.08 0.12 0.10 0.09 0.10 0.13 0.13 0.09 0.07 0.04 0.02 0.00 0.00 0.00
0.53 0.23 0.09 0.03 0.00 0.00 0.01 0.02 0.01 0.03 0.11 0.11 0.10 0.09 0.15 0.19 0.09 0.01 0.00 0.00 0.00 0.01 0.00 0.02 0.05 0.08 0.12 0.13 0.15 0.16 0.16 0.14 0.08 0.03 0.01 0.01 0.01 0.01 0.02 0.05 0.06 0.06 0.11 0.13 0.12 0.11 0.09 0.08 0.06 0.03 0.01 0.00 0.00 0.01
0.15 0.05 0.01 0.01 0.00 0.00 0.00 0.01 0.02 0.03 0.06 0.04 0.04 0.09 0.10 0.04 0.00 0.00 0.00 0.00 0.01 0.04 0.07 0.09 0.09 0.12 0.19 0.20 0.20 0.24 0.23 0.20 0.17 0.13 0.11 0.10 0.08 0.05 0.03 0.03 0.06 0.10 0.12 0.09 0.08 0.09 0.07 0.05 0.03 0.02 0.02 0.01 0.01 0.01
0.01 0.01 0.01 0.03 0.04 0.05 0.04 0.03 0.02 0.02 0.01 0.02 0.03 0.03 0.01 0.00 0.00 0.00 0.00 0.01 0.06 0.12 0.16 0.20 0.23 0.21 0.26 0.27 0.22 0.18 0.14 0.12 0.12 0.12 0.07 0.06 0.07 0.09 0.08 0.06 0.08 0.09 0.08 0.07 0.07 0.05 0.04 0.04 0.04 0.03 0.02 0.01 0.00 0.00
0.04 0.04 0.06 0.09 0.07 0.05 0.05 0.04 0.04 0.03 0.02 0.04 0.06 0.04 0.01 0.00 0.00 0.00 0.00 0.01 0.03 0.12 0.23 0.31 0.31 0.28 0.24 0.20 0.20 0.24 0.26 0.23 0.12 0.03 0.01 0.00 0.00 0.03 0.05 0.05 0.07 0.08 0.06 0.05 0.07 0.10 0.10 0.06 0.04 0.03 0.01 0.00 0.00 0.00
0.06 0.05 0.05 0.06 0.06 0.05 0.06 0.09 0.11 0.10 0.08 0.07 0.06 0.07 0.06 0.02 0.00 0.00 0.00 0.01 0.01 0.10 0.22 0.31 0.38 0.35 0.26 0.22 0.17 0.16 0.19 0.20 0.19 0.13 0.06 0.06 0.07 0.07 0.08 0.07 0.07 0.06 0.05 0.04 0.03 0.03 0.03 0.02 0.01 0.00 0.00 0.00 0.00 0.00
0.08 0.07 0.04 0.05 0.09 0.12 0.12 0.12 0.11 0.10 0.09 0.08 0.06 0.05 0.05 0.04 0.02 0.00 0.00 0.00 0.02 0.11 0.21 0.27 0.29 0.34 0.34 0.26 0.21 0.16 0.11 0.12 0.13 0.11 0.11 0.12 0.09 0.08 0.07 0.08 0.10 0.08 0.06 0.06 0.05 0.03 0.01 0.00 0.00 0.00 0.00 0.00 0.00 0.00
0.11 0.10 0.08 0.08 0.13 0.15 0.14 0.11 0.10 0.10 0.10 0.09 0.07 0.05 0.03 0.02 0.02 0.00 0.01 0.02 0.04 0.08 0.17 0.23 0.28 0.33 0.33 0.27 0.19 0.17 0.19 0.20 0.16 0.13 0.13 0.09 0.05 0.05 0.06 0.08 0.09 0.10 0.08 0.05 0.03 0.01 0.00 0.00 0.00 0.00 0.00 0.00 0.00 0.00

GFSWCAN_prec_precacc24_129.txt.gz
Total_Precipitation_Accumulation
0.12 0.10 0.06 0.03 0.03 0.03 0.01 0.01 0.04 0.04 0.03 0.02 0.02 0.01 0.01 0.08 0.02 0.02 0.01 0.00 0.00 0.00 0.00 0.00 0.00 0.00 0.00 0.00 0.00 0.00 0.00 0.00 0.00 0.00 0.00 0.00 0.00 0.00 0.00 0.00 0.00 0.00 0.00 0.00 0.00 0.00 0.00 0.00 0.00 0.00 0.00 0.00 0.00 0.00
0.09 0.09 0.08 0.05 0.02 0.03 0.02 0.01 0.03 0.06 0.05 0.03 0.02 0.02 0.03 0.11 0.05 0.03 0.02 0.01 0.00 0.00 0.00 0.00 0.00 0.00 0.00 0.00 0.00 0.00 0.00 0.00 0.00 0.00 0.00 0.00 0.00 0.00 0.00 0.00 0.00 0.00 0.00 0.00 0.00 0.00 0.00 0.00 0.00 0.00 0.00 0.00 0.00 0.00
0.06 0.07 0.08 0.07 0.04 0.03 0.03 0.02 0.04 0.07 0.07 0.04 0.05 0.04 0.04 0.11 0.09 0.03 0.00 0.01 0.01 0.00 0.00 0.00 0.00 0.00 0.00 0.00 0.00 0.00 0.00 0.00 0.00 0.00 0.00 0.00 0.00 0.00 0.00 0.00 0.00 0.00 0.00 0.00 0.00 0.00 0.00 0.00 0.00 0.00 0.00 0.00 0.00 0.00
0.06 0.07 0.07 0.08 0.08 0.06 0.05 0.03 0.04 0.07 0.09 0.07 0.08 0.10 0.10 0.10 0.18 0.08 0.01 0.00 0.00 0.00 0.00 0.00 0.00 0.00 0.00 0.00 0.00 0.00 0.00 0.00 0.00 0.00 0.00 0.00 0.00 0.00 0.00 0.00 0.00 0.00 0.00 0.00 0.00 0.00 0.00 0.00 0.00 0.00 0.00 0.00 0.00 0.00
0.07 0.08 0.10 0.12 0.13 0.10 0.08 0.07 0.06 0.08 0.12 0.12 0.15 0.20 0.24 0.23 0.27 0.24 0.08 0.02 0.00 0.00 0.00 0.00 0.00 0.00 0.00 0.00 0.00 0.00 0.00 0.00 0.00 0.00 0.00 0.00 0.00 0.00 0.00 0.00 0.00 0.00 0.00 0.00 0.00 0.00 0.00 0.00 0.00 0.00 0.00 0.00 0.00 0.00
0.10 0.11 0.13 0.16 0.16 0.16 0.16 0.15 0.14 0.14 0.19 0.22 0.28 0.39 0.49 0.57 0.63 0.54 0.31 0.07 0.00 0.00 0.02 0.01 0.00 0.00 0.00 0.00 0.00 0.00 0.00 0.00 0.00 0.00 0.00 0.00 0.00 0.00 0.00 0.00 0.00 0.00 0.00 0.00 0.00 0.00 0.00 0.00 0.00 0.00 0.00 0.00 0.00 0.00
0.11 0.13 0.16 0.21 0.25 0.25 0.26 0.29 0.33 0.32 0.30 0.37 0.48 0.68 0.84 0.97 0.90 0.55 0.25 0.03 0.00 0.05 0.15 0.05 0.00 0.00 0.00 0.00 0.00 0.00 0.00 0.00 0.00 0.00 0.00 0.00 0.00 0.00 0.00 0.00 0.00 0.00 0.00 0.00 0.00 0.00 0.00 0.00 0.00 0.00 0.00 0.00 0.00 0.00
0.14 0.16 0.19 0.23 0.29 0.33 0.35 0.36 0.41 0.46 0.53 0.69 0.91 1.14 1.34 1.55 1.36 0.84 0.33 0.14 0.04 0.10 0.15 0.06 0.01 0.00 0.00 0.00 0.00 0.00 0.00 0.00 0.00 0.00 0.00 0.00 0.00 0.00 0.00 0.00 0.00 0.00 0.00 0.00 0.00 0.00 0.00 0.00 0.00 0.00 0.00 0.00 0.00 0.00
0.11 0.13 0.17 0.23 0.33 0.44 0.53 0.58 0.66 0.77 1.00 1.27 1.56 1.95 2.49 2.46 1.43 0.58 0.22 0.26 0.24 0.23 0.21 0.09 0.01 0.00 0.00 0.00 0.00 0.00 0.00 0.00 0.00 0.00 0.00 0.00 0.00 0.00 0.00 0.00 0.00 0.00 0.00 0.00 0.00 0.00 0.00 0.00 0.00 0.00 0.00 0.00 0.00 0.00
0.13 0.16 0.20 0.27 0.38 0.54 0.68 0.77 0.91 1.11 1.48 2.01 2.53 2.67 2.22 1.33 0.43 0.14 0.55 1.02 0.92 0.67 0.35 0.12 0.00 0.00 0.00 0.00 0.00 0.00 0.01 0.00 0.00 0.00 0.00 0.00 0.00 0.00 0.00 0.00 0.00 0.00 0.00 0.00 0.00 0.00 0.00 0.00 0.00 0.00 0.00 0.00 0.00 0.00
0.16 0.17 0.21 0.28 0.40 0.57 0.75 0.91 1.17 1.71 2.38 2.43 2.27 1.83 1.15 0.66 0.66 1.03 1.40 1.20 0.64 0.38 0.15 0.05 0.00 0.00 0.00 0.00 0.01 0.02 0.03 0.02 0.00 0.00 0.00 0.00 0.00 0.00 0.00 0.00 0.00 0.00 0.00 0.00 0.00 0.00 0.00 0.00 0.00 0.00 0.00 0.00 0.00 0.00
0.27 0.31 0.33 0.36 0.47 0.66 0.89 1.14 1.60 2.08 2.08 1.53 1.23 1.42 1.96 1.71 1.51 1.52 1.24 0.54 0.22 0.04 0.00 0.01 0.01 0.00 0.00 0.00 0.05 0.11 0.12 0.10 0.02 0.00 0.00 0.00 0.00 0.00 0.00 0.00 0.00 0.00 0.00 0.00 0.00 0.00 0.00 0.00 0.00 0.00 0.00 0.00 0.00 0.00
0.29 0.34 0.41 0.50 0.69 0.94 1.20 1.47 1.76 1.85 1.84 1.64 1.91 2.33 2.12 1.83 1.34 0.97 0.49 0.14 0.02 0.00 0.01 0.00 0.00 0.00 0.01 0.03 0.18 0.22 0.17 0.07 0.01 0.00 0.00 0.00 0.00 0.00 0.00 0.00 0.00 0.00 0.00 0.00 0.00 0.00 0.00 0.00 0.00 0.00 0.00 0.00 0.00 0.00
0.42 0.46 0.53 0.68 0.92 1.20 1.46 1.80 2.33 2.61 2.22 2.42 2.53 2.35 1.51 1.17 0.50 0.17 0.02 0.00 0.00 0.00 0.00 0.00 0.01 0.04 0.08 0.12 0.26 0.20 0.09 0.02 0.01 0.00 0.00 0.00 0.00 0.00 0.00 0.00 0.00 0.00 0.00 0.00 0.00 0.00 0.00 0.00 0.00 0.00 0.00 0.00 0.00 0.00
0.59 0.70 0.78 0.91 1.09 1.37 1.66 2.11 2.66 2.33 2.31 2.72 2.34 1.53 0.89 0.27 0.03 0.00 0.00 0.00 0.00 0.00 0.00 0.00 0.02 0.07 0.11 0.22 0.21 0.09 0.07 0.02 0.00 0.00 0.00 0.00 0.00 0.00 0.00 0.00 0.00 0.00 0.00 0.00 0.00 0.00 0.00 0.00 0.00 0.00 0.00 0.00 0.00 0.00
0.80 1.13 1.33 1.20 1.19 1.40 1.88 2.43 2.55 2.54 2.81 2.44 1.80 1.12 0.42 0.06 0.01 0.00 0.00 0.00 0.00 0.00 0.01 0.02 0.10 0.24 0.23 0.12 0.08 0.02 0.00 0.00 0.00 0.00 0.00 0.00 0.00 0.00 0.00 0.00 0.00 0.00 0.00 0.00 0.00 0.00 0.00 0.00 0.00 0.00 0.00 0.00 0.00 0.00
1.35 1.59 1.18 1.06 1.31 1.59 2.24 3.30 4.03 3.88 3.26 2.72 1.45 0.49 0.11 0.02 0.00 0.01 0.01 0.00 0.00 0.02 0.03 0.04 0.12 0.12 0.09 0.07 0.02 0.00 0.00 0.00 0.00 0.00 0.00 0.00 0.00 0.00 0.00 0.00 0.00 0.00 0.00 0.00 0.00 0.00 0.00 0.00 0.00 0.00 0.00 0.00 0.00 0.00
1.48 1.09 0.80 0.97 1.63 2.53 3.03 3.07 3.22 2.90 2.32 1.34 0.57 0.15 0.04 0.03 0.01 0.00 0.01 0.01 0.03 0.04 0.03 0.02 0.04 0.13 0.08 0.02 0.00 0.00 0.00 0.00 0.00 0.00 0.00 0.00 0.00 0.00 0.00 0.00 0.00 0.00 0.00 0.00 0.00 0.00 0.00 0.00 0.00 0.00 0.00 0.00 0.00 0.00
0.94 0.77 1.02 1.50 2.29 3.13 3.26 3.02 2.24 1.72 1.03 0.42 0.12 0.05 0.01 0.01 0.02 0.00 0.00 0.02 0.04 0.03 0.04 0.14 0.31 0.24 0.03 0.00 0.00 0.00 0.00 0.00 0.00 0.00 0.00 0.00 0.00 0.00 0.00 0.00 0.00 0.00 0.00 0.00 0.00 0.00 0.00 0.00 0.00 0.00 0.00 0.00 0.00 0.00
1.02 1.16 1.31 1.57 1.70 2.35 2.22 1.94 1.47 0.78 0.38 0.24 0.09 0.08 0.06 0.02 0.00 0.01 0.02 0.08 0.13 0.25 0.46 0.42 0.18 0.02 0.00 0.00 0.00 0.00 0.00 0.00 0.00 0.00 0.00 0.00 0.00 0.00 0.00 0.00 0.00 0.00 0.00 0.00 0.00 0.00 0.00 0.00 0.00 0.00 0.00 0.00 0.00 0.00
1.82 1.94 1.79 1.87 2.42 2.33 1.65 0.98 0.74 0.48 0.23 0.17 0.14 0.09 0.17 0.10 0.05 0.05 0.11 0.15 0.44 0.61 0.39 0.12 0.02 0.00 0.00 0.00 0.00 0.00 0.00 0.00 0.00 0.00 0.00 0.00 0.00 0.00 0.00 0.00 0.00 0.01 0.01 0.00 0.00 0.00 0.00 0.00 0.00 0.00 0.00 0.00 0.00 0.00
2.13 1.92 2.31 2.12 2.21 1.72 1.03 0.48 0.25 0.32 0.17 0.17 0.20 0.18 0.27 0.31 0.24 0.18 0.21 0.54 0.53 0.17 0.02 0.00 0.00 0.00 0.00 0.00 0.00 0.00 0.00 0.00 0.00 0.00 0.00 0.00 0.00 0.00 0.00 0.00 0.00 0.00 0.01 0.02 0.02 0.01 0.00 0.00 0.00 0.00 0.00 0.00 0.00 0.00
1.39 1.38 1.65 1.91 1.73 1.09 0.76 0.41 0.22 0.36 0.30 0.35 0.31 0.41 0.47 0.40 0.37 0.32 0.51 0.37 0.13 0.03 0.02 0.03 0.03 0.02 0.00 0.00 0.00 0.00 0.00 0.00 0.00 0.00 0.00 0.00 0.00 0.00 0.01 0.01 0.00 0.01 0.02 0.04 0.05 0.05 0.02 0.01 0.01 0.00 0.00 0.00 0.00 0.01
1.09 1.69 1.90 1.46 0.93 0.53 0.45 0.46 0.31 0.25 0.38 0.46 0.42 0.40 0.35 0.32 0.44 0.48 0.31 0.05 0.00 0.00 0.03 0.09 0.11 0.09 0.06 0.03 0.01 0.00 0.00 0.00 0.00 0.00 0.01 0.01 0.01 0.00 0.00 0.00 0.00 0.01 0.02 0.04 0.06 0.07 0.07 0.05 0.03 0.03 0.04 0.04 0.04 0.03
1.82 1.70 1.24 0.91 0.42 0.26 0.16 0.16 0.20 0.17 0.19 0.27 0.23 0.25 0.22 0.25 0.27 0.19 0.05 0.00 0.00 0.01 0.02 0.04 0.11 0.15 0.16 0.13 0.09 0.04 0.02 0.00 0.00 0.01 0.01 0.02 0.04 0.04 0.03 0.02 0.02 0.04 0.03 0.04 0.06 0.08 0.09 0.07 0.05 0.06 0.06 0.06 0.06 0.08
1.31 0.83 0.59 0.20 0.08 0.05 0.07 0.05 0.06 0.07 0.07 0.13 0.15 0.15 0.19 0.21 0.17 0.06 0.00 0.00 0.00 0.02 0.03 0.03 0.05 0.08 0.10 0.11 0.14 0.13 0.08 0.04 0.02 0.01 0.00 0.00 0.02 0.05 0.05 0.05 0.08 0.12 0.10 0.09 0.10 0.14 0.15 0.14 0.13 0.13 0.13 0.12 0.11 0.08
0.65 0.29 0.14 0.05 0.01 0.01 0.02 0.03 0.02 0.03 0.09 0.09 0.10 0.10 0.15 0.22 0.12 0.01 0.00 0.00 0.00 0.01 0.00 0.02 0.05 0.08 0.12 0.13 0.15 0.16 0.16 0.14 0.08 0.03 0.01 0.01 0.01 0.01 0.02 0.05 0.06 0.06 0.11 0.13 0.12 0.11 0.11 0.12 0.12 0.11 0.11 0.09 0.05 0.03
0.21 0.08 0.04 0.02 0.00 0.00 0.02 0.03 0.04 0.04 0.06 0.03 0.02 0.07 0.09 0.05 0.01 0.00 0.00 0.00 0.01 0.04 0.07 0.09 0.09 0.12 0.19 0.20 0.20 0.24 0.23 0.20 0.17 0.13 0.11 0.10 0.08 0.05 0.03 0.03 0.06 0.10 0.12 0.09 0.09 0.10 0.10 0.08 0.07 0.07 0.06 0.04 0.02 0.01
0.04 0.02 0.02 0.05 0.06 0.07 0.06 0.04 0.02 0.01 0.01 0.01 0.03 0.02 0.01 0.00 0.00 0.00 0.00 0.00 0.06 0.12 0.16 0.20 0.23 0.21 0.26 0.27 0.22 0.18 0.14 0.12 0.12 0.12 0.07 0.06 0.07 0.09 0.08 0.06 0.08 0.09 0.08 0.08 0.08 0.07 0.06 0.07 0.06 0.05 0.04 0.02 0.01 0.01
0.05 0.07 0.10 0.10 0.06 0.04 0.04 0.03 0.03 0.03 0.02 0.03 0.06 0.04 0.01 0.00 0.00 0.00 0.00 0.01 0.03 0.12 0.23 0.31 0.31 0.28 0.24 0.20 0.20 0.24 0.27 0.23 0.12 0.03 0.01 0.00 0.00 0.04 0.06 0.06 0.08 0.08 0.07 0.06 0.09 0.16 0.15 0.11 0.07 0.04 0.02 0.02 0.02 0.02
0.07 0.07 0.08 0.08 0.06 0.04 0.05 0.07 0.09 0.09 0.08 0.07 0.06 0.07 0.06 0.02 0.00 0.00 0.00 0.01 0.01 0.10 0.22 0.31 0.38 0.35 0.26 0.22 0.17 0.16 0.19 0.21 0.20 0.14 0.06 0.06 0.09 0.09 0.10 0.09 0.08 0.07 0.07 0.05 0.04 0.03 0.03 0.03 0.02 0.02 0.02 0.02 0.01 0.00
0.07 0.07 0.04 0.04 0.07 0.09 0.09 0.09 0.09 0.08 0.09 0.08 0.06 0.05 0.05 0.04 0.02 0.00 0.00 0.00 0.02 0.11 0.21 0.27 0.29 0.34 0.34 0.26 0.21 0.16 0.11 0.12 0.14 0.12 0.12 0.13 0.12 0.11 0.10 0.11 0.12 0.10 0.08 0.07 0.06 0.04 0.02 0.01 0.02 0.02 0.02 0.01 0.00 0.00
0.08 0.08 0.07 0.07 0.10 0.13 0.12 0.10 0.09 0.09 0.10 0.09 0.07 0.05 0.03 0.02 0.02 0.00 0.01 0.02 0.04 0.08 0.17 0.23 0.28 0.33 0.33 0.27 0.19 0.17 0.19 0.20 0.17 0.14 0.14 0.11 0.08 0.08 0.10 0.10 0.11 0.11 0.10 0.07 0.05 0.02 0.02 0.01 0.01 0.00 0.00 0.00 0.00 0.00

GFSWCAN_prec_precacc24_135.txt.gz
Total_Precipitation_Accumulation
0.12 0.10 0.06 0.03 0.03 0.04 0.02 0.02 0.04 0.04 0.04 0.04 0.04 0.06 0.07 0.07 0.07 0.06 0.02 0.01 0.01 0.00 0.00 0.00 0.00 0.00 0.00 0.00 0.00 0.00 0.00 0.00 0.00 0.00 0.00 0.00 0.00 0.00 0.00 0.00 0.00 0.00 0.00 0.00 0.00 0.00 0.00 0.00 0.00 0.00 0.00 0.00 0.00 0.00
0.09 0.09 0.08 0.05 0.03 0.04 0.03 0.02 0.04 0.06 0.05 0.05 0.05 0.07 0.09 0.12 0.12 0.12 0.05 0.02 0.04 0.02 0.00 0.00 0.00 0.00 0.00 0.00 0.00 0.00 0.00 0.00 0.00 0.00 0.00 0.00 0.00 0.00 0.00 0.00 0.00 0.00 0.00 0.00 0.00 0.00 0.00 0.00 0.00 0.00 0.00 0.00 0.00 0.00
0.06 0.07 0.08 0.07 0.04 0.03 0.03 0.02 0.04 0.07 0.07 0.05 0.06 0.09 0.13 0.15 0.20 0.16 0.05 0.05 0.09 0.08 0.02 0.00 0.00 0.00 0.00 0.00 0.00 0.00 0.00 0.00 0.00 0.00 0.00 0.00 0.00 0.00 0.00 0.00 0.00 0.00 0.00 0.00 0.00 0.00 0.00 0.00 0.00 0.00 0.00 0.00 0.00 0.00
0.07 0.07 0.07 0.08 0.08 0.05 0.05 0.03 0.05 0.08 0.10 0.09 0.09 0.12 0.17 0.21 0.29 0.31 0.10 0.03 0.07 0.14 0.08 0.01 0.00 0.00 0.00 0.00 0.00 0.00 0.00 0.00 0.00 0.00 0.00 0.00 0.00 0.00 0.00 0.00 0.00 0.00 0.00 0.00 0.00 0.00 0.00 0.00 0.00 0.00 0.00 0.00 0.00 0.00
0.07 0.08 0.10 0.12 0.13 0.10 0.08 0.07 0.07 0.09 0.12 0.14 0.17 0.23 0.29 0.34 0.47 0.60 0.31 0.14 0.06 0.14 0.16 0.03 0.00 0.00 0.00 0.00 0.00 0.00 0.00 0.00 0.00 0.00 0.00 0.00 0.00 0.00 0.00 0.00 0.00 0.00 0.00 0.00 0.00 0.00 0.00 0.00 0.00 0.00 0.00 0.00 0.00 0.00
0.10 0.11 0.13 0.17 0.17 0.16 0.15 0.15 0.16 0.17 0.21 0.27 0.34 0.46 0.56 0.69 1.00 1.39 1.05 0.31 0.07 0.07 0.20 0.16 0.02 0.00 0.00 0.00 0.00 0.00 0.00 0.00 0.00 0.00 0.00 0.00 0.00 0.00 0.00 0.00 0.00 0.00 0.00 0.00 0.00 0.00 0.00 0.00 0.00 0.00 0.00 0.00 0.00 0.00
0.10 0.13 0.16 0.22 0.25 0.26 0.26 0.29 0.32 0.33 0.35 0.44 0.57 0.78 0.96 1.15 1.42 1.24 0.65 0.11 0.01 0.10 0.52 0.45 0.14 0.01 0.00 0.00 0.00 0.00 0.00 0.00 0.01 0.02 0.01 0.00 0.00 0.00 0.00 0.00 0.00 0.00 0.00 0.00 0.00 0.00 0.00 0.00 0.00 0.00 0.00 0.00 0.00 0.00
0.13 0.16 0.19 0.23 0.30 0.33 0.34 0.35 0.40 0.46 0.54 0.72 0.96 1.23 1.46 1.73 1.94 1.61 0.89 0.39 0.17 0.33 0.57 0.61 0.19 0.01 0.00 0.00 0.00 0.00 0.00 0.00 0.02 0.02 0.01 0.00 0.00 0.00 0.00 0.00 0.00 0.00 0.00 0.00 0.00 0.00 0.00 0.00 0.00 0.00 0.00 0.00 0.00 0.00
0.10 0.12 0.16 0.22 0.33 0.43 0.52 0.56 0.65 0.77 0.98 1.28 1.60 2.00 2.52 2.67 1.88 0.96 0.39 0.48 0.65 0.73 0.78 0.45 0.09 0.00 0.00 0.00 0.00 0.01 0.01 0.02 0.03 0.04 0.00 0.00 0.00 0.00 0.00 0.00 0.00 0.00 0.00 0.00 0.00 0.00 0.00 0.00 0.00 0.00 0.00 0.00 0.00 0.00
0.13 0.15 0.20 0.26 0.38 0.52 0.66 0.74 0.88 1.09 1.45 1.96 2.50 2.58 2.18 1.39 0.60 0.33 1.12 2.08 1.98 1.48 0.92 0.40 0.02 0.00 0.00 0.00 0.00 0.01 0.03 0.03 0.07 0.01 0.00 0.00 0.00 0.00 0.00 0.00 0.00 0.00 0.00 0.00 0.00 0.00 0.00 0.00 0.00 0.00 0.00 0.00 0.00 0.00
0.15 0.17 0.21 0.27 0.39 0.57 0.74 0.89 1.13 1.66 2.28 2.34 2.08 1.62 1.11 0.83 0.90 1.41 2.06 1.97 1.27 0.78 0.35 0.11 0.00 0.00 0.00 0.00 0.01 0.02 0.08 0.10 0.09 0.00 0.00 0.00 0.00 0.00 0.00 0.00 0.00 0.00 0.00 0.00 0.00 0.00 0.00 0.00 0.00 0.00 0.00 0.00 0.00 0.00
0.28 0.31 0.33 0.36 0.46 0.65 0.88 1.11 1.56 2.03 2.02 1.48 1.11 1.23 1.83 1.73 1.43 1.61 1.54 1.01 0.58 0.13 0.01 0.01 0.01 0.00 0.00 0.00 0.06 0.13 0.20 0.27 0.13 0.00 0.01 0.00 0.00 0.00 0.00 0.00 0.00 0.00 0.00 0.00 0.00 0.00 0.00 0.00 0.00 0.00 0.00 0.00 0.00 0.00
0.31 0.35 0.42 0.51 0.68 0.92 1.16 1.41 1.69 1.74 1.78 1.57 1.77 2.14 2.03 1.74 1.31 1.05 0.65 0.29 0.09 0.01 0.01 0.00 0.00 0.00 0.01 0.04 0.22 0.35 0.41 0.23 0.06 0.04 0.01 0.00 0.00 0.00 0.00 0.00 0.00 0.00 0.00 0.00 0.00 0.00 0.00 0.00 0.00 0.00 0.00 0.00 0.00 0.00
0.44 0.47 0.53 0.68 0.91 1.16 1.40 1.71 2.18 2.40 2.18 2.23 2.25 2.13 1.38 1.17 0.49 0.18 0.03 0.00 0.00 0.00 0.00 0.00 0.01 0.04 0.10 0.17 0.36 0.42 0.31 0.16 0.10 0.03 0.00 0.00 0.00 0.00 0.00 0.00 0.00 0.00 0.00 0.00 0.00 0.00 0.00 0.00 0.00 0.00 0.00 0.00 0.00 0.00
0.61 0.70 0.78 0.90 1.06 1.32 1.55 1.95 2.42 2.21 2.24 2.52 2.20 1.50 0.86 0.24 0.03 0.00 0.00 0.00 0.00 0.00 0.00 0.00 0.03 0.10 0.19 0.37 0.44 0.30 0.35 0.18 0.04 0.00 0.00 0.00 0.00 0.00 0.00 0.00 0.00 0.00 0.00 0.00 0.00 0.00 0.00 0.00 0.00 0.00 0.00 0.00 0.00 0.00
0.81 1.13 1.32 1.15 1.15 1.33 1.76 2.24 2.28 2.43 2.91 2.38 1.78 1.08 0.45 0.09 0.02 0.01 0.00 0.00 0.00 0.00 0.06 0.14 0.25 0.43 0.41 0.25 0.22 0.13 0.06 0.02 0.00 0.00 0.00 0.00 0.00 0.00 0.00 0.00 0.00 0.00 0.00 0.00 0.00 0.00 0.00 0.00 0.00 0.00 0.00 0.00 0.00 0.00
1.43 1.62 1.08 0.93 1.18 1.45 2.02 2.95 3.58 3.74 3.15 2.63 1.42 0.47 0.10 0.05 0.03 0.02 0.02 0.01 0.01 0.06 0.09 0.14 0.34 0.30 0.21 0.25 0.11 0.02 0.01 0.00 0.00 0.00 0.00 0.00 0.00 0.00 0.00 0.00 0.00 0.00 0.00 0.00 0.00 0.00 0.00 0.00 0.00 0.00 0.00 0.00 0.00 0.00
1.57 1.06 0.58 0.73 1.42 2.26 2.70 2.84 3.10 2.81 2.13 1.23 0.50 0.14 0.03 0.02 0.00 0.00 0.01 0.01 0.06 0.19 0.16 0.18 0.16 0.35 0.28 0.14 0.02 0.00 0.00 0.00 0.00 0.00 0.00 0.00 0.00 0.00 0.00 0.00 0.00 0.00 0.00 0.00 0.00 0.00 0.00 0.00 0.00 0.00 0.00 0.00 0.00 0.00
0.95 0.54 0.73 1.29 2.23 3.06 3.03 2.74 2.04 1.70 0.91 0.31 0.06 0.01 0.00 0.00 0.01 0.00 0.00 0.02 0.04 0.04 0.08 0.21 0.56 0.62 0.20 0.05 0.01 0.00 0.00 0.00 0.00 0.00 0.00 0.00 0.00 0.00 0.00 0.00 0.00 0.00 0.00 0.00 0.00 0.00 0.00 0.00 0.00 0.00 0.00 0.00 0.00 0.00
0.99 0.94 1.14 1.58 1.86 2.54 2.33 1.81 1.32 0.72 0.31 0.11 0.02 0.01 0.01 0.01 0.00 0.00 0.02 0.08 0.13 0.29 0.63 0.67 0.39 0.13 0.01 0.00 0.00 0.00 0.00 0.00 0.00 0.00 0.00 0.00 0.00 0.00 0.00 0.00 0.00 0.01 0.01 0.00 0.00 0.00 0.00 0.00 0.00 0.00 0.00 0.00 0.00 0.00
1.53 1.56 1.63 1.84 2.41 2.44 1.84 1.00 0.64 0.39 0.21 0.09 0.02 0.01 0.05 0.07 0.04 0.05 0.09 0.15 0.46 0.67 0.49 0.18 0.03 0.00 0.00 0.00 0.00 0.00 0.00 0.00 0.00 0.00 0.00 0.00 0.00 0.01 0.01 0.01 0.01 0.02 0.02 0.01 0.00 0.00 0.00 0.00 0.00 0.00 0.00 0.00 0.00 0.00
1.68 1.58 2.12 2.01 2.17 1.78 1.12 0.54 0.21 0.17 0.12 0.09 0.05 0.08 0.17 0.20 0.19 0.15 0.20 0.56 0.57 0.20 0.04 0.01 0.00 0.00 0.00 0.00 0.00 0.00 0.00 0.01 0.01 0.00 0.00 0.00 0.00 0.02 0.02 0.02 0.03 0.03 0.03 0.02 0.02 0.01 0.00 0.00 0.00 0.00 0.00 0.00 0.00 0.00
1.31 1.30 1.56 1.73 1.57 1.07 0.74 0.34 0.13 0.16 0.17 0.26 0.21 0.31 0.37 0.29 0.22 0.20 0.48 0.39 0.15 0.03 0.02 0.03 0.03 0.02 0.00 0.00 0.00 0.00 0.00 0.00 0.01 0.00 0.00 0.00 0.00 0.01 0.01 0.02 0.02 0.03 0.03 0.04 0.05 0.05 0.02 0.01 0.01 0.00 0.00 0.00 0.00 0.01
1.08 1.50 1.69 1.38 0.83 0.46 0.41 0.41 0.27 0.20 0.32 0.35 0.34 0.34 0.29 0.23 0.33 0.40 0.27 0.04 0.00 0.00 0.02 0.09 0.11 0.09 0.06 0.04 0.02 0.00 0.00 0.00 0.00 0.00 0.01 0.02 0.02 0.01 0.00 0.00 0.01 0.01 0.02 0.04 0.07 0.07 0.07 0.05 0.03 0.03 0.04 0.04 0.04 0.03
1.74 1.56 1.06 0.83 0.42 0.25 0.17 0.15 0.21 0.21 0.24 0.26 0.23 0.23 0.18 0.21 0.31 0.24 0.06 0.00 0.00 0.01 0.01 0.04 0.11 0.15 0.16 0.13 0.09 0.04 0.02 0.02 0.04 0.03 0.01 0.03 0.05 0.05 0.04 0.03 0.03 0.04 0.03 0.04 0.06 0.08 0.09 0.07 0.05 0.06 0.07 0.06 0.07 0.09
1.18 0.67 0.50 0.17 0.08 0.05 0.07 0.05 0.04 0.07 0.09 0.12 0.12 0.12 0.15 0.21 0.22 0.08 0.00 0.00 0.01 0.02 0.03 0.03 0.05 0.08 0.10 0.11 0.14 0.13 0.08 0.04 0.03 0.04 0.03 0.01 0.04 0.08 0.07 0.06 0.10 0.12 0.10 0.09 0.11 0.14 0.16 0.15 0.14 0.13 0.13 0.14 0.14 0.13
0.58 0.28 0.16 0.08 0.02 0.02 0.03 0.03 0.02 0.04 0.09 0.09 0.09 0.08 0.16 0.27 0.13 0.01 0.00 0.00 0.01 0.01 0.01 0.03 0.06 0.09 0.12 0.13 0.15 0.16 0.16 0.14 0.08 0.05 0.02 0.02 0.02 0.01 0.03 0.05 0.06 0.06 0.12 0.15 0.13 0.12 0.11 0.12 0.12 0.12 0.12 0.11 0.07 0.06
0.25 0.10 0.05 0.03 0.03 0.02 0.04 0.06 0.07 0.07 0.06 0.02 0.03 0.08 0.12 0.07 0.01 0.00 0.00 0.00 0.01 0.04 0.07 0.09 0.09 0.12 0.19 0.20 0.20 0.24 0.23 0.20 0.17 0.13 0.11 0.10 0.08 0.05 0.03 0.03 0.06 0.10 0.12 0.09 0.09 0.10 0.10 0.08 0.07 0.07 0.06 0.05 0.06 0.06
0.04 0.02 0.03 0.07 0.11 0.14 0.14 0.08 0.04 0.01 0.01 0.03 0.08 0.06 0.02 0.00 0.00 0.00 0.00 0.01 0.05 0.12 0.16 0.21 0.23 0.21 0.26 0.27 0.22 0.18 0.14 0.12 0.12 0.12 0.07 0.06 0.07 0.09 0.08 0.06 0.08 0.09 0.08 0.08 0.08 0.07 0.06 0.07 0.06 0.05 0.05 0.04 0.03 0.04
0.03 0.04 0.06 0.07 0.07 0.05 0.03 0.02 0.03 0.04 0.07 0.09 0.10 0.08 0.02 0.00 0.00 0.00 0.00 0.01 0.04 0.13 0.25 0.32 0.31 0.28 0.24 0.20 0.20 0.25 0.27 0.23 0.12 0.03 0.01 0.00 0.00 0.04 0.06 0.06 0.08 0.08 0.07 0.06 0.09 0.17 0.17 0.13 0.11 0.07 0.05 0.05 0.05 0.04
0.02 0.03 0.05 0.06 0.06 0.04 0.04 0.06 0.08 0.10 0.11 0.10 0.09 0.10 0.05 0.02 0.01 0.00 0.00 0.00 0.01 0.09 0.21 0.30 0.38 0.35 0.26 0.22 0.17 0.16 0.19 0.21 0.20 0.14 0.06 0.06 0.09 0.09 0.10 0.09 0.09 0.07 0.06 0.05 0.04 0.04 0.05 0.04 0.03 0.03 0.03 0.03 0.03 0.02
0.03 0.03 0.02 0.04 0.04 0.06 0.09 0.10 0.10 0.10 0.08 0.08 0.08 0.08 0.08 0.08 0.04 0.00 0.00 0.00 0.02 0.10 0.21 0.27 0.29 0.34 0.34 0.26 0.21 0.16 0.11 0.12 0.14 0.12 0.12 0.14 0.12 0.11 0.10 0.11 0.13 0.11 0.09 0.08 0.06 0.04 0.02 0.02 0.02 0.02 0.02 0.02 0.01 0.01
0.03 0.04 0.05 0.06 0.10 0.11 0.10 0.11 0.12 0.09 0.06 0.05 0.03 0.04 0.04 0.03 0.03 0.00 0.01 0.02 0.04 0.08 0.17 0.23 0.28 0.33 0.33 0.27 0.19 0.17 0.19 0.20 0.17 0.14 0.15 0.12 0.09 0.10 0.11 0.13 0.13 0.14 0.12 0.09 0.06 0.04 0.03 0.04 0.03 0.02 0.01 0.00 0.00 0.00

GFSWCAN_prec_precacc24_141.txt.gz
Total_Precipitation_Accumulation
0.08 0.08 0.06 0.03 0.03 0.04 0.04 0.03 0.04 0.05 0.05 0.05 0.05 0.06 0.08 0.11 0.18 0.18 0.05 0.04 0.07 0.06 0.01 0.00 0.00 0.00 0.00 0.00 0.00 0.00 0.00 0.00 0.00 0.00 0.00 0.00 0.00 0.00 0.00 0.00 0.00 0.00 0.00 0.00 0.00 0.00 0.00 0.00 0.00 0.00 0.00 0.00 0.00 0.00
0.06 0.07 0.07 0.05 0.02 0.02 0.02 0.02 0.04 0.06 0.05 0.05 0.05 0.07 0.09 0.14 0.22 0.28 0.13 0.04 0.12 0.19 0.06 0.00 0.00 0.00 0.00 0.00 0.00 0.00 0.00 0.00 0.00 0.00 0.00 0.00 0.00 0.00 0.00 0.00 0.00 0.00 0.00 0.00 0.00 0.00 0.00 0.00 0.00 0.00 0.00 0.00 0.00 0.00
0.03 0.05 0.07 0.06 0.04 0.02 0.01 0.02 0.04 0.07 0.07 0.05 0.06 0.09 0.13 0.16 0.25 0.36 0.15 0.10 0.22 0.29 0.10 0.01 0.00 0.00 0.00 0.00 0.00 0.00 0.00 0.00 0.00 0.00 0.00 0.00 0.00 0.00 0.00 0.00 0.00 0.00 0.00 0.00 0.00 0.00 0.00 0.00 0.00 0.00 0.00 0.00 0.00 0.00
0.04 0.04 0.05 0.07 0.07 0.04 0.03 0.03 0.04 0.08 0.10 0.09 0.09 0.12 0.17 0.21 0.29 0.41 0.25 0.10 0.19 0.47 0.29 0.04 0.00 0.00 0.00 0.00 0.00 0.00 0.00 0.00 0.00 0.00 0.01 0.01 0.00 0.00 0.00 0.00 0.00 0.00 0.00 0.00 0.00 0.00 0.00 0.00 0.00 0.00 0.00 0.00 0.00 0.00
0.05 0.06 0.06 0.08 0.11 0.09 0.07 0.06 0.06 0.09 0.13 0.15 0.17 0.22 0.29 0.35 0.47 0.62 0.42 0.21 0.11 0.40 0.57 0.19 0.03 0.00 0.00 0.00 0.00 0.00 0.00 0.00 0.00 0.04 0.09 0.03 0.00 0.00 0.00 0.00 0.00 0.00 0.00 0.00 0.00 0.00 0.00 0.00 0.00 0.00 0.00 0.00 0.00 0.00
0.06 0.07 0.08 0.11 0.13 0.14 0.14 0.14 0.15 0.17 0.22 0.27 0.34 0.46 0.56 0.69 1.01 1.49 1.28 0.41 0.15 0.18 0.63 0.57 0.12 0.00 0.00 0.00 0.00 0.00 0.00 0.00 0.01 0.06 0.06 0.01 0.00 0.00 0.01 0.01 0.00 0.00 0.00 0.00 0.00 0.00 0.00 0.00 0.00 0.00 0.00 0.00 0.00 0.00
0.04 0.05 0.08 0.12 0.15 0.18 0.21 0.26 0.30 0.32 0.35 0.44 0.57 0.78 0.95 1.15 1.48 1.45 0.90 0.25 0.13 0.37 1.05 1.01 0.40 0.03 0.00 0.00 0.00 0.00 0.00 0.00 0.01 0.06 0.07 0.01 0.00 0.00 0.02 0.03 0.00 0.00 0.00 0.00 0.00 0.00 0.00 0.00 0.00 0.00 0.00 0.00 0.00 0.00
0.04 0.05 0.07 0.10 0.16 0.19 0.22 0.28 0.35 0.43 0.54 0.72 0.96 1.22 1.43 1.70 1.95 1.65 0.98 0.52 0.36 0.69 1.12 1.19 0.55 0.06 0.00 0.00 0.00 0.00 0.00 0.03 0.07 0.10 0.10 0.04 0.02 0.03 0.13 0.01 0.00 0.00 0.00 0.00 0.00 0.00 0.00 0.00 0.00 0.00 0.00 0.00 0.00 0.00
0.02 0.04 0.06 0.07 0.13 0.20 0.29 0.38 0.50 0.69 0.97 1.29 1.60 1.95 2.45 2.64 1.88 0.95 0.42 0.61 0.92 1.10 1.30 0.88 0.27 0.06 0.01 0.00 0.01 0.02 0.05 0.14 0.17 0.24 0.08 0.04 0.11 0.11 0.02 0.00 0.00 0.00 0.00 0.00 0.00 0.00 0.00 0.00 0.00 0.00 0.00 0.00 0.00 0.00
0.03 0.03 0.05 0.07 0.13 0.21 0.31 0.43 0.64 0.99 1.43 1.94 2.45 2.53 2.16 1.40 0.61 0.35 1.14 2.20 2.15 1.61 1.14 0.71 0.16 0.11 0.06 0.04 0.04 0.06 0.14 0.14 0.26 0.09 0.02 0.08 0.05 0.00 0.00 0.00 0.00 0.00 0.00 0.00 0.00 0.00 0.00 0.00 0.00 0.00 0.00 0.00 0.00 0.00
0.07 0.07 0.08 0.11 0.16 0.25 0.37 0.56 0.91 1.57 2.19 2.27 2.04 1.56 1.09 0.84 0.91 1.42 2.02 1.92 1.25 0.75 0.36 0.13 0.02 0.02 0.02 0.04 0.06 0.08 0.22 0.23 0.26 0.05 0.02 0.05 0.01 0.00 0.00 0.00 0.00 0.00 0.00 0.00 0.00 0.00 0.00 0.00 0.00 0.00 0.00 0.00 0.00 0.00
0.17 0.20 0.20 0.21 0.26 0.38 0.54 0.82 1.37 1.93 1.95 1.52 1.17 1.19 1.76 1.67 1.43 1.62 1.51 0.97 0.58 0.14 0.01 0.01 0.01 0.00 0.00 0.01 0.12 0.28 0.39 0.50 0.33 0.11 0.16 0.07 0.00 0.00 0.00 0.00 0.00 0.00 0.00 0.00 0.00 0.00 0.00 0.00 0.00 0.00 0.00 0.00 0.00 0.00
0.18 0.21 0.25 0.30 0.39 0.53 0.77 1.09 1.47 1.64 1.83 1.61 1.78 2.10 1.99 1.68 1.33 1.09 0.65 0.30 0.10 0.01 0.01 0.01 0.00 0.01 0.03 0.11 0.44 0.63 0.67 0.43 0.21 0.26 0.13 0.01 0.00 0.00 0.00 0.00 0.00 0.00 0.00 0.00 0.00 0.00 0.00 0.00 0.00 0.00 0.00 0.00 0.00 0.00
0.23 0.24 0.27 0.34 0.50 0.72 1.02 1.40 1.90 2.30 2.17 2.18 2.20 2.03 1.34 1.13 0.52 0.18 0.04 0.01 0.02 0.04 0.05 0.05 0.03 0.07 0.12 0.29 0.50 0.61 0.46 0.32 0.31 0.18 0.03 0.00 0.00 0.00 0.00 0.00 0.00 0.00 0.00 0.00 0.00 0.00 0.00 0.00 0.00 0.00 0.00 0.00 0.00 0.00
0.29 0.37 0.42 0.47 0.61 0.92 1.21 1.64 2.15 2.17 2.22 2.49 2.24 1.52 0.86 0.25 0.04 0.02 0.03 0.01 0.02 0.02 0.04 0.05 0.11 0.17 0.29 0.53 0.52 0.40 0.48 0.27 0.08 0.01 0.00 0.00 0.00 0.00 0.00 0.00 0.01 0.00 0.00 0.00 0.00 0.00 0.01 0.01 0.00 0.00 0.00 0.00 0.00 0.00
0.34 0.55 0.66 0.61 0.68 0.92 1.41 1.93 2.05 2.28 2.92 2.49 1.88 1.10 0.46 0.12 0.02 0.00 0.00 0.00 0.00 0.01 0.12 0.22 0.40 0.62 0.60 0.42 0.42 0.31 0.23 0.10 0.02 0.01 0.01 0.01 0.00 0.00 0.00 0.00 0.00 0.00 0.00 0.00 0.01 0.01 0.01 0.02 0.02 0.01 0.00 0.00 0.00 0.00
0.81 0.97 0.56 0.55 0.80 1.10 1.70 2.68 3.14 3.21 2.94 2.50 1.38 0.47 0.10 0.05 0.03 0.01 0.02 0.01 0.05 0.14 0.15 0.24 0.49 0.43 0.35 0.46 0.25 0.10 0.06 0.03 0.02 0.01 0.01 0.00 0.00 0.00 0.00 0.00 0.00 0.00 0.00 0.00 0.00 0.00 0.00 0.00 0.00 0.00 0.00 0.00 0.00 0.00
1.13 0.73 0.37 0.42 1.06 1.94 2.36 2.58 2.88 2.59 1.95 1.12 0.47 0.15 0.03 0.00 0.00 0.00 0.00 0.00 0.09 0.22 0.20 0.22 0.25 0.47 0.42 0.27 0.11 0.08 0.05 0.02 0.01 0.01 0.00 0.00 0.00 0.00 0.00 0.00 0.00 0.00 0.00 0.00 0.00 0.00 0.00 0.00 0.00 0.00 0.00 0.00 0.00 0.00
0.70 0.38 0.42 0.91 1.97 2.88 2.69 2.37 1.89 1.67 0.84 0.30 0.07 0.01 0.00 0.00 0.00 0.00 0.00 0.01 0.01 0.04 0.12 0.26 0.59 0.62 0.21 0.06 0.01 0.01 0.00 0.00 0.00 0.00 0.00 0.00 0.00 0.00 0.00 0.00 0.00 0.00 0.00 0.00 0.00 0.00 0.00 0.00 0.00 0.00 0.00 0.00 0.00 0.00
0.77 0.66 0.85 1.32 1.81 2.76 2.50 1.63 1.21 0.65 0.26 0.08 0.02 0.00 0.00 0.00 0.00 0.00 0.01 0.03 0.04 0.17 0.50 0.60 0.36 0.12 0.02 0.00 0.00 0.00 0.00 0.00 0.01 0.00 0.00 0.00 0.00 0.00 0.00 0.00 0.00 0.01 0.01 0.01 0.00 0.00 0.00 0.00 0.00 0.00 0.00 0.00 0.00 0.00
1.27 1.26 1.38 1.68 2.42 2.59 1.96 1.02 0.63 0.35 0.17 0.08 0.01 0.01 0.02 0.03 0.02 0.03 0.05 0.08 0.30 0.51 0.37 0.12 0.02 0.00 0.00 0.00 0.00 0.00 0.00 0.00 0.00 0.00 0.00 0.00 0.00 0.01 0.01 0.01 0.01 0.02 0.02 0.02 0.02 0.03 0.03 0.02 0.02 0.03 0.02 0.00 0.00 0.00
1.34 1.32 1.81 1.91 2.41 2.09 1.41 0.60 0.24 0.19 0.14 0.10 0.05 0.06 0.13 0.14 0.15 0.13 0.16 0.43 0.41 0.14 0.02 0.00 0.00 0.00 0.00 0.00 0.00 0.00 0.00 0.01 0.01 0.00 0.00 0.00 0.00 0.01 0.01 0.02 0.03 0.03 0.04 0.05 0.06 0.06 0.06 0.07 0.08 0.07 0.05 0.01 0.00 0.00
1.19 1.27 1.58 1.68 1.65 1.25 0.87 0.35 0.17 0.18 0.21 0.30 0.19 0.25 0.29 0.22 0.17 0.18 0.43 0.33 0.10 0.01 0.00 0.00 0.00 0.00 0.00 0.00 0.00 0.00 0.00 0.00 0.01 0.00 0.00 0.00 0.00 0.01 0.01 0.02 0.02 0.04 0.06 0.09 0.11 0.12 0.10 0.08 0.07 0.04 0.02 0.02 0.02 0.02
1.37 1.53 1.66 1.46 0.92 0.52 0.41 0.36 0.21 0.15 0.23 0.28 0.29 0.29 0.21 0.15 0.25 0.32 0.21 0.03 0.00 0.00 0.00 0.00 0.00 0.00 0.01 0.02 0.01 0.01 0.01 0.01 0.03 0.01 0.00 0.01 0.02 0.01 0.00 0.00 0.01 0.01 0.03 0.05 0.09 0.11 0.11 0.08 0.07 0.05 0.05 0.07 0.09 0.07
1.92 1.78 1.03 0.83 0.47 0.26 0.17 0.13 0.14 0.14 0.17 0.18 0.16 0.17 0.14 0.13 0.21 0.16 0.04 0.00 0.00 0.00 0.01 0.02 0.04 0.07 0.14 0.11 0.05 0.04 0.04 0.06 0.16 0.12 0.04 0.03 0.06 0.05 0.04 0.02 0.02 0.04 0.03 0.05 0.09 0.10 0.13 0.14 0.14 0.11 0.10 0.10 0.13 0.14
1.34 0.69 0.59 0.21 0.09 0.03 0.03 0.03 0.03 0.03 0.03 0.05 0.07 0.08 0.07 0.11 0.13 0.04 0.00 0.01 0.01 0.03 0.06 0.07 0.09 0.11 0.11 0.09 0.13 0.14 0.09 0.07 0.17 0.26 0.12 0.02 0.04 0.09 0.08 0.07 0.10 0.12 0.10 0.09 0.11 0.15 0.16 0.16 0.18 0.20 0.20 0.19 0.22 0.19
0.63 0.31 0.22 0.08 0.03 0.02 0.02 0.01 0.02 0.03 0.07 0.07 0.07 0.07 0.14 0.22 0.09 0.00 0.01 0.01 0.02 0.02 0.02 0.03 0.09 0.15 0.14 0.09 0.08 0.11 0.15 0.17 0.15 0.13 0.05 0.02 0.02 0.01 0.04 0.06 0.06 0.06 0.13 0.16 0.15 0.12 0.12 0.12 0.13 0.15 0.17 0.20 0.16 0.10
0.21 0.07 0.05 0.03 0.03 0.02 0.04 0.06 0.07 0.07 0.06 0.03 0.04 0.09 0.14 0.08 0.01 0.00 0.00 0.00 0.00 0.00 0.01 0.03 0.05 0.06 0.10 0.13 0.18 0.26 0.24 0.22 0.19 0.13 0.11 0.09 0.07 0.04 0.03 0.04 0.10 0.20 0.23 0.20 0.18 0.15 0.13 0.10 0.08 0.10 0.12 0.12 0.13 0.10
0.07 0.02 0.03 0.07 0.11 0.14 0.14 0.08 0.04 0.01 0.01 0.03 0.08 0.06 0.02 0.00 0.00 0.00 0.00 0.00 0.00 0.01 0.03 0.06 0.11 0.17 0.24 0.26 0.24 0.21 0.18 0.18 0.16 0.13 0.07 0.06 0.07 0.09 0.10 0.11 0.16 0.21 0.19 0.19 0.22 0.15 0.13 0.13 0.11 0.09 0.10 0.11 0.09 0.09
0.02 0.03 0.06 0.06 0.07 0.05 0.03 0.02 0.02 0.03 0.06 0.09 0.10 0.08 0.02 0.00 0.00 0.00 0.01 0.01 0.02 0.04 0.09 0.17 0.22 0.24 0.22 0.17 0.16 0.23 0.29 0.27 0.16 0.06 0.04 0.03 0.02 0.05 0.07 0.07 0.09 0.12 0.12 0.11 0.14 0.23 0.24 0.20 0.17 0.14 0.11 0.11 0.09 0.08
0.02 0.03 0.05 0.06 0.06 0.04 0.04 0.05 0.07 0.10 0.11 0.10 0.09 0.09 0.04 0.02 0.01 0.00 0.00 0.01 0.00 0.02 0.08 0.12 0.14 0.16 0.15 0.15 0.14 0.14 0.18 0.21 0.20 0.14 0.06 0.07 0.09 0.09 0.10 0.09 0.09 0.07 0.07 0.06 0.05 0.06 0.07 0.07 0.06 0.07 0.07 0.05 0.04 0.03
0.02 0.03 0.02 0.03 0.03 0.05 0.07 0.08 0.09 0.09 0.07 0.07 0.07 0.07 0.06 0.07 0.04 0.00 0.00 0.00 0.01 0.01 0.05 0.08 0.10 0.14 0.18 0.18 0.17 0.16 0.10 0.11 0.13 0.12 0.12 0.13 0.12 0.11 0.10 0.12 0.13 0.11 0.09 0.08 0.07 0.05 0.03 0.03 0.04 0.03 0.03 0.03 0.02 0.02
0.02 0.04 0.05 0.06 0.07 0.06 0.06 0.09 0.10 0.07 0.03 0.02 0.01 0.03 0.03 0.05 0.05 0.00 0.00 0.00 0.00 0.00 0.02 0.05 0.09 0.15 0.17 0.16 0.15 0.14 0.15 0.17 0.16 0.14 0.15 0.12 0.09 0.10 0.12 0.13 0.14 0.14 0.13 0.11 0.10 0.06 0.05 0.05 0.04 0.03 0.03 0.02 0.02 0.01

GFSWCAN_prec_precacc24_144.txt.gz
Total_Precipitation_Accumulation
0.03 0.03 0.03 0.02 0.03 0.04 0.04 0.03 0.04 0.05 0.05 0.05 0.05 0.07 0.08 0.11 0.18 0.23 0.07 0.04 0.12 0.15 0.06 0.01 0.00 0.00 0.00 0.00 0.00 0.00 0.00 0.00 0.00 0.00 0.00 0.00 0.00 0.00 0.00 0.00 0.00 0.00 0.00 0.00 0.00 0.00 0.00 0.00 0.00 0.00 0.00 0.00 0.00 0.00
0.02 0.02 0.02 0.02 0.02 0.02 0.02 0.03 0.04 0.06 0.05 0.05 0.05 0.07 0.09 0.14 0.22 0.30 0.16 0.04 0.13 0.28 0.13 0.02 0.01 0.00 0.00 0.00 0.00 0.00 0.00 0.00 0.00 0.00 0.00 0.00 0.00 0.00 0.00 0.00 0.00 0.00 0.00 0.00 0.00 0.00 0.00 0.00 0.00 0.00 0.00 0.00 0.00 0.00
0.02 0.01 0.02 0.02 0.02 0.02 0.01 0.02 0.04 0.07 0.08 0.05 0.06 0.09 0.13 0.16 0.25 0.38 0.18 0.11 0.26 0.37 0.14 0.02 0.00 0.00 0.00 0.00 0.00 0.01 0.01 0.00 0.00 0.00 0.03 0.03 0.03 0.00 0.00 0.00 0.00 0.00 0.00 0.00 0.00 0.00 0.00 0.00 0.00 0.00 0.00 0.00 0.00 0.00
0.02 0.02 0.02 0.02 0.03 0.03 0.03 0.03 0.04 0.08 0.10 0.09 0.09 0.13 0.17 0.21 0.29 0.41 0.26 0.10 0.22 0.54 0.32 0.05 0.00 0.00 0.00 0.00 0.01 0.02 0.05 0.05 0.04 0.03 0.08 0.12 0.06 0.00 0.00 0.00 0.00 0.00 0.00 0.00 0.00 0.00 0.00 0.00 0.00 0.00 0.00 0.00 0.00 0.00
0.02 0.02 0.02 0.03 0.05 0.06 0.06 0.05 0.05 0.08 0.13 0.15 0.18 0.23 0.29 0.35 0.47 0.62 0.42 0.21 0.12 0.43 0.59 0.19 0.03 0.00 0.00 0.00 0.00 0.00 0.01 0.04 0.08 0.22 0.32 0.18 0.03 0.01 0.01 0.04 0.02 0.00 0.00 0.00 0.00 0.00 0.00 0.00 0.00 0.00 0.00 0.00 0.00 0.00
0.03 0.03 0.04 0.05 0.06 0.08 0.10 0.10 0.11 0.13 0.20 0.27 0.34 0.46 0.56 0.69 1.02 1.49 1.27 0.41 0.16 0.24 0.76 0.62 0.12 0.00 0.00 0.00 0.00 0.00 0.01 0.00 0.02 0.21 0.21 0.08 0.02 0.01 0.09 0.09 0.01 0.00 0.00 0.00 0.00 0.00 0.00 0.00 0.00 0.00 0.00 0.00 0.00 0.00
0.03 0.03 0.03 0.04 0.05 0.08 0.12 0.16 0.19 0.22 0.28 0.40 0.56 0.78 0.96 1.15 1.49 1.45 0.90 0.26 0.14 0.43 1.25 1.18 0.42 0.03 0.00 0.00 0.00 0.00 0.00 0.01 0.03 0.12 0.15 0.05 0.01 0.00 0.08 0.08 0.00 0.00 0.00 0.00 0.00 0.00 0.00 0.00 0.00 0.00 0.00 0.00 0.00 0.00
0.02 0.03 0.03 0.03 0.04 0.06 0.09 0.13 0.17 0.24 0.36 0.59 0.90 1.21 1.43 1.69 1.96 1.66 0.98 0.52 0.36 0.69 1.16 1.26 0.58 0.06 0.00 0.00 0.00 0.00 0.02 0.08 0.18 0.21 0.18 0.07 0.03 0.06 0.22 0.04 0.00 0.00 0.00 0.00 0.00 0.00 0.00 0.00 0.00 0.00 0.00 0.00 0.00 0.00
0.01 0.01 0.02 0.02 0.03 0.06 0.12 0.17 0.24 0.36 0.64 1.05 1.49 1.90 2.41 2.62 1.87 0.95 0.43 0.63 0.95 1.13 1.32 0.87 0.27 0.07 0.02 0.01 0.01 0.04 0.08 0.19 0.24 0.35 0.12 0.07 0.18 0.17 0.03 0.00 0.00 0.00 0.00 0.00 0.00 0.00 0.00 0.00 0.00 0.00 0.00 0.00 0.00 0.00
0.02 0.01 0.02 0.02 0.03 0.06 0.14 0.19 0.28 0.52 1.03 1.73 2.28 2.42 2.10 1.38 0.61 0.36 1.15 2.22 2.16 1.58 1.18 0.76 0.16 0.12 0.06 0.05 0.04 0.07 0.17 0.17 0.33 0.12 0.04 0.16 0.09 0.00 0.00 0.00 0.00 0.00 0.00 0.00 0.00 0.00 0.00 0.00 0.00 0.00 0.00 0.00 0.00 0.00
0.04 0.04 0.03 0.04 0.05 0.08 0.15 0.25 0.45 1.07 1.80 1.98 1.81 1.45 1.08 0.84 0.90 1.40 2.01 1.93 1.27 0.76 0.36 0.12 0.02 0.02 0.02 0.04 0.06 0.08 0.24 0.25 0.31 0.06 0.03 0.08 0.01 0.00 0.00 0.00 0.00 0.00 0.00 0.00 0.00 0.00 0.00 0.00 0.00 0.00 0.00 0.00 0.00 0.00
0.06 0.07 0.07 0.07 0.10 0.15 0.20 0.34 0.81 1.51 1.58 1.30 1.10 1.14 1.67 1.56 1.35 1.56 1.49 0.97 0.60 0.15 0.01 0.01 0.01 0.00 0.00 0.02 0.16 0.35 0.46 0.55 0.36 0.12 0.17 0.08 0.00 0.00 0.00 0.00 0.00 0.00 0.00 0.00 0.00 0.00 0.00 0.00 0.00 0.00 0.00 0.00 0.00 0.00
0.09 0.09 0.10 0.11 0.13 0.17 0.26 0.49 0.96 1.30 1.65 1.52 1.69 1.88 1.85 1.59 1.28 1.07 0.66 0.31 0.10 0.01 0.02 0.04 0.03 0.05 0.07 0.16 0.55 0.72 0.73 0.45 0.24 0.31 0.15 0.01 0.00 0.01 0.01 0.00 0.00 0.00 0.00 0.00 0.01 0.01 0.00 0.00 0.00 0.00 0.00 0.00 0.00 0.00
0.13 0.11 0.10 0.15 0.21 0.26 0.38 0.73 1.28 1.84 1.94 2.01 2.00 1.84 1.26 1.08 0.52 0.18 0.04 0.01 0.03 0.04 0.07 0.08 0.06 0.12 0.17 0.38 0.58 0.69 0.52 0.39 0.39 0.23 0.05 0.00 0.00 0.00 0.00 0.00 0.01 0.00 0.00 0.01 0.02 0.02 0.01 0.00 0.00 0.00 0.00 0.00 0.00 0.00
0.15 0.19 0.22 0.20 0.22 0.36 0.55 0.97 1.55 1.89 2.04 2.37 2.14 1.44 0.82 0.24 0.04 0.02 0.03 0.01 0.02 0.04 0.06 0.06 0.11 0.18 0.30 0.57 0.57 0.45 0.50 0.30 0.09 0.01 0.00 0.00 0.00 0.00 0.00 0.01 0.02 0.01 0.00 0.01 0.01 0.01 0.01 0.01 0.01 0.01 0.01 0.01 0.02 0.02
0.19 0.31 0.27 0.21 0.22 0.37 0.79 1.36 1.59 1.95 2.75 2.44 1.88 1.08 0.45 0.12 0.02 0.00 0.00 0.00 0.00 0.02 0.12 0.25 0.43 0.64 0.60 0.44 0.46 0.38 0.37 0.21 0.05 0.02 0.02 0.01 0.01 0.01 0.01 0.01 0.00 0.01 0.00 0.00 0.01 0.01 0.01 0.02 0.02 0.03 0.04 0.03 0.03 0.03
0.48 0.45 0.16 0.18 0.35 0.61 1.08 1.99 2.52 2.77 2.69 2.39 1.38 0.47 0.10 0.05 0.03 0.01 0.02 0.01 0.05 0.14 0.16 0.26 0.54 0.49 0.39 0.48 0.26 0.10 0.07 0.04 0.03 0.01 0.01 0.01 0.00 0.00 0.00 0.00 0.00 0.00 0.00 0.00 0.00 0.00 0.00 0.00 0.00 0.00 0.01 0.01 0.00 0.00
0.54 0.28 0.18 0.22 0.66 1.29 1.62 2.07 2.66 2.46 1.85 1.09 0.47 0.15 0.03 0.00 0.00 0.00 0.00 0.00 0.09 0.22 0.20 0.23 0.27 0.52 0.51 0.33 0.12 0.08 0.05 0.02 0.01 0.01 0.01 0.00 0.00 0.00 0.00 0.00 0.00 0.00 0.00 0.00 0.00 0.00 0.00 0.00 0.00 0.00 0.01 0.00 0.00 0.00
0.35 0.20 0.22 0.56 1.42 2.23 2.18 1.89 1.61 1.61 0.84 0.30 0.07 0.01 0.00 0.00 0.00 0.00 0.00 0.00 0.01 0.04 0.13 0.28 0.62 0.64 0.22 0.06 0.01 0.01 0.00 0.00 0.00 0.00 0.00 0.00 0.00 0.00 0.00 0.00 0.00 0.00 0.00 0.00 0.00 0.00 0.00 0.00 0.00 0.00 0.00 0.00 0.00 0.00
0.58 0.49 0.54 0.88 1.50 2.53 2.41 1.51 1.09 0.64 0.26 0.08 0.02 0.00 0.00 0.00 0.00 0.00 0.01 0.03 0.04 0.17 0.51 0.61 0.36 0.12 0.02 0.00 0.00 0.00 0.00 0.00 0.01 0.00 0.00 0.00 0.00 0.00 0.00 0.00 0.00 0.01 0.01 0.01 0.00 0.00 0.00 0.00 0.00 0.00 0.00 0.00 0.00 0.00
0.89 0.78 0.87 1.22 2.01 2.40 1.94 0.97 0.64 0.33 0.16 0.07 0.01 0.01 0.02 0.03 0.02 0.03 0.05 0.08 0.30 0.51 0.37 0.12 0.02 0.00 0.00 0.00 0.00 0.00 0.00 0.00 0.00 0.00 0.00 0.00 0.00 0.01 0.01 0.01 0.01 0.01 0.01 0.02 0.02 0.03 0.03 0.02 0.02 0.03 0.02 0.02 0.02 0.01
0.82 0.77 1.18 1.43 2.16 2.01 1.45 0.65 0.30 0.19 0.14 0.10 0.05 0.06 0.12 0.13 0.14 0.12 0.16 0.43 0.40 0.14 0.02 0.00 0.00 0.00 0.00 0.00 0.00 0.00 0.00 0.01 0.01 0.00 0.00 0.00 0.00 0.01 0.01 0.01 0.02 0.03 0.04 0.05 0.06 0.06 0.06 0.07 0.08 0.07 0.06 0.05 0.05 0.03
0.96 1.00 1.38 1.46 1.54 1.25 0.85 0.33 0.20 0.22 0.24 0.30 0.19 0.24 0.28 0.21 0.17 0.17 0.42 0.32 0.10 0.01 0.00 0.00 0.00 0.00 0.00 0.00 0.00 0.00 0.00 0.00 0.03 0.03 0.01 0.00 0.00 0.01 0.00 0.01 0.02 0.03 0.05 0.08 0.11 0.12 0.10 0.08 0.07 0.05 0.05 0.07 0.09 0.10
1.41 1.43 1.56 1.43 0.91 0.52 0.38 0.35 0.24 0.17 0.23 0.26 0.27 0.27 0.19 0.15 0.24 0.30 0.20 0.03 0.00 0.00 0.00 0.00 0.00 0.00 0.01 0.02 0.01 0.01 0.01 0.02 0.07 0.06 0.01 0.01 0.02 0.01 0.00 0.00 0.00 0.01 0.03 0.05 0.09 0.11 0.11 0.08 0.07 0.05 0.05 0.09 0.14 0.16
2.03 1.77 1.02 0.78 0.47 0.29 0.17 0.13 0.15 0.15 0.18 0.17 0.16 0.17 0.13 0.12 0.20 0.16 0.04 0.00 0.00 0.00 0.01 0.02 0.04 0.07 0.14 0.12 0.05 0.04 0.03 0.07 0.23 0.21 0.07 0.02 0.07 0.08 0.05 0.02 0.02 0.02 0.03 0.05 0.09 0.10 0.13 0.14 0.14 0.11 0.10 0.11 0.16 0.22
1.42 0.70 0.60 0.22 0.08 0.03 0.03 0.03 0.02 0.03 0.03 0.05 0.07 0.07 0.07 0.11 0.13 0.04 0.00 0.01 0.01 0.03 0.06 0.07 0.09 0.11 0.11 0.09 0.13 0.12 0.07 0.04 0.16 0.28 0.14 0.02 0.05 0.10 0.10 0.07 0.09 0.12 0.10 0.09 0.11 0.14 0.16 0.16 0.18 0.20 0.20 0.21 0.26 0.29
0.65 0.35 0.27 0.09 0.03 0.02 0.02 0.01 0.02 0.03 0.07 0.07 0.07 0.06 0.14 0.22 0.09 0.00 0.01 0.01 0.02 0.02 0.02 0.03 0.09 0.15 0.14 0.07 0.04 0.04 0.05 0.06 0.08 0.11 0.05 0.02 0.03 0.03 0.07 0.08 0.07 0.06 0.13 0.16 0.14 0.12 0.12 0.12 0.13 0.15 0.18 0.22 0.22 0.18
0.19 0.07 0.06 0.03 0.03 0.02 0.04 0.06 0.07 0.07 0.06 0.03 0.04 0.09 0.14 0.08 0.01 0.00 0.00 0.00 0.00 0.00 0.01 0.03 0.05 0.05 0.06 0.05 0.07 0.10 0.08 0.05 0.06 0.06 0.08 0.07 0.05 0.03 0.03 0.05 0.12 0.25 0.27 0.24 0.21 0.18 0.14 0.10 0.09 0.10 0.14 0.16 0.19 0.19
0.08 0.02 0.03 0.07 0.11 0.14 0.14 0.08 0.04 0.01 0.01 0.03 0.08 0.06 0.02 0.00 0.00 0.00 0.00 0.00 0.00 0.00 0.01 0.04 0.08 0.13 0.13 0.11 0.10 0.11 0.13 0.14 0.13 0.10 0.08 0.06 0.05 0.06 0.10 0.12 0.18 0.25 0.23 0.23 0.28 0.19 0.16 0.15 0.13 0.12 0.13 0.15 0.15 0.17
0.03 0.03 0.06 0.06 0.07 0.05 0.03 0.02 0.02 0.03 0.06 0.09 0.10 0.08 0.02 0.00 0.00 0.00 0.01 0.01 0.02 0.03 0.06 0.13 0.15 0.16 0.13 0.11 0.10 0.15 0.20 0.19 0.17 0.12 0.08 0.06 0.04 0.05 0.08 0.08 0.11 0.16 0.16 0.15 0.17 0.27 0.28 0.25 0.24 0.21 0.19 0.18 0.18 0.17
0.01 0.03 0.05 0.06 0.06 0.04 0.04 0.05 0.07 0.09 0.11 0.10 0.09 0.09 0.04 0.02 0.01 0.00 0.00 0.01 0.01 0.02 0.06 0.08 0.09 0.10 0.08 0.07 0.08 0.09 0.10 0.12 0.16 0.16 0.10 0.10 0.11 0.11 0.11 0.10 0.10 0.10 0.10 0.09 0.09 0.10 0.11 0.11 0.09 0.11 0.11 0.10 0.09 0.07
0.02 0.03 0.02 0.03 0.03 0.04 0.07 0.08 0.08 0.08 0.07 0.07 0.07 0.07 0.06 0.07 0.04 0.00 0.00 0.00 0.00 0.01 0.03 0.04 0.04 0.06 0.07 0.08 0.08 0.08 0.06 0.06 0.09 0.11 0.11 0.14 0.13 0.12 0.11 0.12 0.13 0.11 0.10 0.09 0.08 0.07 0.06 0.06 0.08 0.08 0.08 0.08 0.06 0.04
0.02 0.03 0.04 0.05 0.07 0.06 0.06 0.09 0.10 0.07 0.03 0.02 0.01 0.02 0.03 0.06 0.06 0.00 0.00 0.00 0.00 0.01 0.02 0.01 0.01 0.04 0.07 0.07 0.05 0.06 0.09 0.12 0.11 0.12 0.14 0.12 0.09 0.11 0.13 0.14 0.14 0.14 0.14 0.14 0.13 0.07 0.05 0.05 0.05 0.05 0.04 0.03 0.04 0.03

GFSWCAN_prec_precacc24_147.txt.gz
Total_Precipitation_Accumulation
0.02 0.01 0.02 0.02 0.03 0.04 0.04 0.03 0.04 0.05 0.05 0.05 0.05 0.07 0.08 0.11 0.19 0.25 0.08 0.05 0.15 0.19 0.08 0.02 0.01 0.01 0.01 0.02 0.02 0.01 0.03 0.01 0.00 0.00 0.00 0.00 0.00 0.00 0.00 0.00 0.00 0.00 0.00 0.00 0.00 0.00 0.00 0.00 0.00 0.00 0.00 0.00 0.00 0.00
0.01 0.01 0.01 0.01 0.01 0.02 0.02 0.03 0.04 0.06 0.05 0.05 0.06 0.07 0.09 0.14 0.22 0.32 0.18 0.04 0.13 0.30 0.15 0.03 0.01 0.01 0.02 0.01 0.03 0.05 0.05 0.03 0.03 0.04 0.03 0.02 0.00 0.00 0.00 0.00 0.00 0.00 0.00 0.00 0.00 0.00 0.00 0.00 0.00 0.00 0.00 0.00 0.00 0.00
0.01 0.01 0.01 0.01 0.01 0.01 0.01 0.02 0.04 0.07 0.08 0.05 0.07 0.09 0.14 0.16 0.25 0.38 0.19 0.11 0.27 0.39 0.15 0.02 0.01 0.00 0.00 0.00 0.00 0.05 0.07 0.05 0.05 0.04 0.14 0.13 0.11 0.03 0.01 0.00 0.00 0.00 0.00 0.01 0.00 0.00 0.00 0.00 0.00 0.00 0.00 0.00 0.00 0.00
0.02 0.02 0.01 0.01 0.01 0.01 0.02 0.02 0.03 0.06 0.09 0.09 0.09 0.13 0.18 0.22 0.30 0.41 0.27 0.10 0.22 0.55 0.33 0.05 0.00 0.00 0.00 0.00 0.01 0.03 0.08 0.09 0.16 0.18 0.32 0.32 0.16 0.02 0.02 0.00 0.00 0.00 0.00 0.01 0.00 0.00 0.00 0.00 0.00 0.00 0.00 0.00 0.00 0.00
0.02 0.02 0.02 0.02 0.03 0.03 0.04 0.03 0.04 0.06 0.11 0.13 0.16 0.21 0.29 0.35 0.48 0.62 0.42 0.21 0.12 0.43 0.59 0.19 0.03 0.00 0.00 0.00 0.00 0.00 0.01 0.05 0.12 0.36 0.54 0.36 0.13 0.06 0.05 0.08 0.05 0.00 0.00 0.00 0.00 0.00 0.00 0.00 0.00 0.00 0.00 0.00 0.00 0.00
0.02 0.03 0.03 0.05 0.05 0.05 0.06 0.06 0.07 0.09 0.16 0.21 0.27 0.38 0.51 0.67 1.02 1.48 1.26 0.42 0.16 0.27 0.83 0.65 0.12 0.00 0.00 0.00 0.00 0.00 0.01 0.00 0.03 0.29 0.33 0.19 0.06 0.04 0.16 0.13 0.01 0.00 0.00 0.00 0.00 0.00 0.00 0.00 0.00 0.00 0.00 0.00 0.00 0.00
0.02 0.03 0.03 0.03 0.04 0.05 0.06 0.08 0.10 0.14 0.19 0.25 0.36 0.55 0.80 1.08 1.48 1.45 0.90 0.28 0.16 0.45 1.27 1.19 0.42 0.03 0.00 0.00 0.00 0.00 0.00 0.01 0.03 0.16 0.20 0.06 0.01 0.03 0.17 0.13 0.01 0.00 0.00 0.00 0.00 0.00 0.00 0.00 0.00 0.00 0.00 0.00 0.00 0.00
0.01 0.02 0.03 0.03 0.04 0.04 0.03 0.05 0.06 0.11 0.17 0.30 0.50 0.82 1.16 1.56 1.90 1.64 0.98 0.52 0.36 0.69 1.16 1.26 0.58 0.06 0.00 0.00 0.00 0.00 0.02 0.09 0.21 0.28 0.26 0.13 0.08 0.15 0.36 0.07 0.00 0.00 0.00 0.00 0.00 0.00 0.00 0.00 0.00 0.00 0.00 0.00 0.00 0.00
0.01 0.01 0.02 0.02 0.02 0.03 0.04 0.06 0.09 0.14 0.28 0.55 0.94 1.40 2.03 2.34 1.74 0.93 0.42 0.62 0.95 1.13 1.32 0.86 0.27 0.07 0.02 0.01 0.01 0.04 0.09 0.22 0.27 0.40 0.14 0.09 0.24 0.22 0.05 0.00 0.00 0.00 0.00 0.00 0.00 0.00 0.00 0.00 0.00 0.00 0.00 0.00 0.00 0.00
0.01 0.01 0.02 0.02 0.02 0.01 0.01 0.02 0.06 0.13 0.35 0.96 1.60 1.85 1.73 1.20 0.57 0.34 1.05 2.10 2.10 1.56 1.22 0.83 0.18 0.12 0.06 0.05 0.04 0.08 0.19 0.19 0.37 0.13 0.04 0.18 0.11 0.00 0.00 0.00 0.00 0.00 0.00 0.00 0.00 0.00 0.00 0.00 0.00 0.00 0.00 0.00 0.00 0.00
0.03 0.03 0.03 0.04 0.04 0.05 0.05 0.05 0.08 0.32 0.85 1.21 1.22 1.09 0.91 0.78 0.82 1.19 1.80 1.82 1.24 0.77 0.36 0.12 0.02 0.02 0.02 0.04 0.06 0.09 0.26 0.27 0.33 0.06 0.04 0.09 0.01 0.00 0.00 0.00 0.00 0.00 0.00 0.00 0.01 0.01 0.01 0.01 0.00 0.01 0.00 0.00 0.00 0.00
0.05 0.05 0.04 0.05 0.07 0.09 0.09 0.10 0.19 0.65 0.87 0.85 0.81 0.92 1.43 1.34 1.14 1.37 1.34 0.93 0.60 0.16 0.01 0.01 0.01 0.01 0.02 0.04 0.20 0.39 0.49 0.59 0.38 0.14 0.23 0.12 0.02 0.01 0.00 0.01 0.01 0.03 0.03 0.01 0.00 0.00 0.01 0.02 0.04 0.04 0.00 0.00 0.00 0.00
0.09 0.08 0.07 0.07 0.08 0.10 0.11 0.12 0.28 0.68 1.19 1.16 1.38 1.56 1.53 1.31 1.10 0.99 0.63 0.30 0.10 0.02 0.03 0.07 0.06 0.09 0.11 0.24 0.71 0.85 0.83 0.48 0.26 0.33 0.16 0.01 0.01 0.02 0.03 0.03 0.02 0.01 0.01 0.00 0.01 0.03 0.03 0.02 0.01 0.00 0.00 0.00 0.00 0.00
0.13 0.12 0.10 0.11 0.13 0.16 0.17 0.21 0.44 1.12 1.49 1.59 1.56 1.44 1.03 0.90 0.47 0.17 0.04 0.01 0.03 0.04 0.07 0.09 0.07 0.13 0.19 0.42 0.64 0.78 0.59 0.46 0.48 0.30 0.09 0.03 0.01 0.01 0.01 0.01 0.01 0.01 0.00 0.01 0.02 0.02 0.01 0.02 0.01 0.00 0.00 0.00 0.00 0.00
0.14 0.16 0.19 0.16 0.13 0.15 0.20 0.29 0.71 1.47 1.66 1.88 1.68 1.09 0.64 0.21 0.03 0.02 0.03 0.01 0.02 0.04 0.06 0.06 0.11 0.18 0.29 0.57 0.58 0.46 0.53 0.35 0.15 0.02 0.00 0.00 0.00 0.00 0.01 0.01 0.02 0.01 0.00 0.01 0.01 0.01 0.01 0.01 0.01 0.01 0.01 0.01 0.02 0.05
0.16 0.26 0.14 0.07 0.07 0.11 0.26 0.58 1.06 1.68 2.39 1.93 1.49 0.87 0.39 0.12 0.02 0.00 0.00 0.00 0.00 0.01 0.12 0.23 0.42 0.62 0.58 0.46 0.47 0.40 0.39 0.22 0.05 0.02 0.02 0.02 0.01 0.01 0.02 0.01 0.00 0.01 0.00 0.00 0.01 0.01 0.01 0.02 0.02 0.03 0.04 0.03 0.04 0.05
0.36 0.24 0.02 0.02 0.09 0.23 0.48 1.21 1.73 2.19 2.18 1.81 1.02 0.36 0.09 0.05 0.03 0.01 0.02 0.01 0.05 0.12 0.12 0.24 0.53 0.48 0.40 0.50 0.27 0.11 0.07 0.04 0.03 0.01 0.01 0.01 0.00 0.00 0.00 0.00 0.00 0.00 0.00 0.00 0.00 0.00 0.00 0.00 0.00 0.00 0.01 0.01 0.01 0.01
0.35 0.04 0.02 0.09 0.35 0.62 0.73 1.30 2.16 2.10 1.45 0.74 0.35 0.13 0.03 0.00 0.00 0.00 0.00 0.00 0.07 0.19 0.20 0.24 0.28 0.52 0.51 0.33 0.12 0.08 0.05 0.02 0.01 0.01 0.01 0.00 0.00 0.00 0.00 0.00 0.00 0.00 0.00 0.00 0.00 0.00 0.00 0.00 0.00 0.00 0.01 0.00 0.00 0.00
0.08 0.05 0.06 0.22 0.72 1.36 1.38 1.20 1.13 1.29 0.65 0.22 0.05 0.01 0.00 0.00 0.00 0.00 0.00 0.00 0.00 0.03 0.13 0.30 0.62 0.64 0.22 0.06 0.01 0.01 0.00 0.00 0.00 0.00 0.00 0.00 0.00 0.00 0.00 0.00 0.00 0.00 0.00 0.00 0.00 0.00 0.00 0.00 0.00 0.00 0.00 0.00 0.00 0.00
0.32 0.30 0.28 0.36 1.06 2.12 2.11 1.24 0.87 0.55 0.23 0.07 0.02 0.00 0.00 0.00 0.00 0.00 0.00 0.00 0.02 0.15 0.47 0.61 0.36 0.12 0.02 0.00 0.00 0.00 0.00 0.00 0.01 0.00 0.00 0.00 0.00 0.00 0.00 0.00 0.00 0.01 0.01 0.01 0.00 0.00 0.00 0.00 0.00 0.00 0.00 0.00 0.00 0.00
0.42 0.22 0.41 0.80 1.50 1.97 1.77 0.85 0.61 0.31 0.12 0.06 0.01 0.01 0.02 0.03 0.02 0.02 0.02 0.04 0.22 0.42 0.33 0.12 0.02 0.00 0.00 0.00 0.00 0.00 0.00 0.00 0.00 0.00 0.00 0.00 0.00 0.01 0.01 0.01 0.01 0.01 0.01 0.01 0.02 0.03 0.03 0.02 0.02 0.03 0.02 0.02 0.02 0.01
0.28 0.30 0.67 0.94 1.71 1.74 1.39 0.64 0.36 0.18 0.13 0.09 0.05 0.05 0.10 0.12 0.13 0.11 0.13 0.34 0.32 0.12 0.02 0.00 0.00 0.00 0.00 0.00 0.00 0.00 0.00 0.01 0.01 0.00 0.00 0.00 0.00 0.01 0.01 0.01 0.02 0.03 0.03 0.03 0.04 0.05 0.06 0.07 0.08 0.07 0.06 0.05 0.05 0.03
0.68 0.81 1.15 1.13 1.32 1.15 0.77 0.30 0.24 0.24 0.24 0.26 0.16 0.18 0.20 0.15 0.11 0.09 0.26 0.22 0.07 0.01 0.00 0.00 0.00 0.00 0.00 0.00 0.00 0.00 0.00 0.00 0.03 0.03 0.01 0.00 0.00 0.01 0.01 0.01 0.02 0.03 0.05 0.05 0.06 0.08 0.08 0.08 0.07 0.05 0.05 0.07 0.09 0.11
1.33 1.28 1.37 1.30 0.84 0.50 0.34 0.31 0.23 0.17 0.22 0.21 0.22 0.23 0.16 0.11 0.17 0.21 0.14 0.02 0.00 0.00 0.00 0.00 0.00 0.00 0.01 0.02 0.01 0.01 0.01 0.02 0.07 0.06 0.01 0.01 0.03 0.01 0.00 0.00 0.00 0.00 0.01 0.02 0.03 0.06 0.10 0.08 0.07 0.05 0.05 0.09 0.14 0.16
2.02 1.75 0.99 0.78 0.49 0.32 0.18 0.12 0.14 0.15 0.16 0.13 0.13 0.13 0.10 0.10 0.17 0.14 0.03 0.00 0.00 0.00 0.01 0.02 0.04 0.07 0.14 0.12 0.05 0.04 0.03 0.07 0.23 0.21 0.07 0.02 0.07 0.08 0.04 0.01 0.01 0.00 0.01 0.04 0.08 0.08 0.12 0.14 0.14 0.11 0.10 0.11 0.16 0.22
1.45 0.70 0.69 0.27 0.09 0.03 0.03 0.03 0.02 0.02 0.03 0.04 0.04 0.04 0.05 0.10 0.12 0.04 0.00 0.01 0.01 0.03 0.06 0.07 0.09 0.11 0.11 0.09 0.13 0.12 0.07 0.04 0.16 0.28 0.14 0.02 0.05 0.10 0.08 0.04 0.03 0.01 0.03 0.08 0.12 0.15 0.16 0.16 0.18 0.20 0.20 0.20 0.26 0.29
0.67 0.39 0.29 0.11 0.05 0.03 0.02 0.01 0.02 0.03 0.06 0.06 0.05 0.05 0.14 0.21 0.09 0.00 0.01 0.01 0.02 0.02 0.02 0.03 0.09 0.15 0.14 0.07 0.04 0.04 0.05 0.06 0.08 0.11 0.04 0.02 0.03 0.03 0.08 0.11 0.06 0.02 0.08 0.16 0.16 0.14 0.13 0.12 0.13 0.15 0.18 0.21 0.22 0.18
0.18 0.07 0.07 0.03 0.03 0.02 0.04 0.06 0.07 0.07 0.06 0.03 0.04 0.09 0.14 0.08 0.01 0.00 0.00 0.00 0.00 0.00 0.01 0.03 0.05 0.05 0.06 0.05 0.07 0.09 0.06 0.04 0.04 0.02 0.02 0.01 0.00 0.03 0.05 0.05 0.08 0.20 0.24 0.24 0.23 0.21 0.16 0.11 0.08 0.09 0.13 0.16 0.20 0.19
0.12 0.02 0.03 0.07 0.12 0.14 0.14 0.08 0.04 0.01 0.01 0.03 0.08 0.06 0.02 0.00 0.00 0.00 0.00 0.00 0.00 0.00 0.01 0.04 0.08 0.12 0.13 0.11 0.08 0.08 0.11 0.16 0.18 0.08 0.04 0.03 0.03 0.03 0.09 0.13 0.17 0.23 0.24 0.24 0.29 0.20 0.16 0.16 0.13 0.12 0.14 0.16 0.16 0.21
0.03 0.03 0.06 0.06 0.07 0.05 0.03 0.02 0.02 0.03 0.06 0.09 0.10 0.08 0.02 0.00 0.00 0.00 0.01 0.01 0.02 0.03 0.06 0.13 0.14 0.14 0.10 0.09 0.07 0.08 0.15 0.17 0.19 0.18 0.13 0.09 0.07 0.06 0.07 0.07 0.12 0.17 0.18 0.15 0.16 0.24 0.30 0.28 0.27 0.24 0.24 0.23 0.22 0.24
0.01 0.03 0.05 0.06 0.06 0.04 0.03 0.04 0.06 0.09 0.11 0.10 0.09 0.09 0.04 0.02 0.01 0.00 0.00 0.01 0.01 0.02 0.06 0.09 0.10 0.11 0.11 0.08 0.09 0.08 0.09 0.11 0.14 0.16 0.13 0.12 0.13 0.12 0.11 0.12 0.12 0.12 0.11 0.10 0.11 0.12 0.15 0.15 0.12 0.13 0.12 0.11 0.12 0.10
0.02 0.03 0.02 0.03 0.03 0.04 0.07 0.08 0.08 0.08 0.07 0.07 0.07 0.07 0.06 0.07 0.04 0.00 0.00 0.01 0.03 0.04 0.07 0.08 0.07 0.07 0.08 0.07 0.05 0.05 0.04 0.03 0.03 0.05 0.06 0.09 0.09 0.09 0.09 0.10 0.12 0.12 0.11 0.10 0.10 0.10 0.09 0.10 0.12 0.11 0.11 0.12 0.10 0.09
0.02 0.03 0.04 0.05 0.06 0.06 0.06 0.08 0.09 0.07 0.03 0.02 0.01 0.02 0.04 0.09 0.08 0.00 0.01 0.03 0.03 0.05 0.04 0.03 0.02 0.03 0.05 0.05 0.05 0.04 0.02 0.02 0.02 0.04 0.07 0.08 0.07 0.08 0.10 0.10 0.10 0.12 0.15 0.17 0.16 0.09 0.06 0.07 0.08 0.08 0.07 0.07 0.08 0.09

GFSWCAN_prec_precacc24_150.txt.gz
Total_Precipitation_Accumulation
0.01 0.01 0.01 0.02 0.02 0.03 0.03 0.03 0.04 0.04 0.04 0.05 0.06 0.07 0.08 0.11 0.19 0.25 0.08 0.05 0.17 0.23 0.10 0.03 0.02 0.02 0.02 0.02 0.03 0.02 0.06 0.03 0.02 0.02 0.02 0.00 0.00 0.00 0.00 0.00 0.00 0.00 0.00 0.00 0.00 0.00 0.00 0.00 0.00 0.00 0.00 0.00 0.00 0.00
0.01 0.01 0.01 0.01 0.01 0.02 0.02 0.02 0.03 0.06 0.05 0.05 0.06 0.08 0.10 0.15 0.23 0.32 0.18 0.04 0.14 0.33 0.17 0.03 0.02 0.02 0.02 0.01 0.05 0.08 0.12 0.09 0.12 0.12 0.09 0.07 0.04 0.02 0.01 0.01 0.00 0.00 0.00 0.00 0.00 0.00 0.00 0.00 0.00 0.00 0.00 0.00 0.00 0.00
0.01 0.01 0.01 0.01 0.01 0.01 0.01 0.01 0.02 0.05 0.06 0.04 0.06 0.09 0.14 0.17 0.26 0.40 0.19 0.11 0.27 0.39 0.15 0.02 0.01 0.00 0.00 0.00 0.01 0.06 0.08 0.06 0.07 0.07 0.22 0.23 0.21 0.08 0.05 0.02 0.00 0.00 0.00 0.01 0.00 0.00 0.00 0.00 0.00 0.00 0.00 0.00 0.00 0.00
0.01 0.01 0.01 0.01 0.01 0.01 0.01 0.01 0.02 0.04 0.07 0.07 0.08 0.12 0.16 0.21 0.30 0.43 0.27 0.10 0.22 0.55 0.33 0.05 0.00 0.00 0.00 0.00 0.01 0.03 0.08 0.09 0.20 0.27 0.48 0.47 0.27 0.08 0.06 0.01 0.00 0.00 0.01 0.03 0.00 0.00 0.00 0.00 0.00 0.00 0.00 0.00 0.00 0.00
0.01 0.01 0.02 0.02 0.03 0.03 0.03 0.03 0.03 0.04 0.06 0.09 0.12 0.15 0.21 0.28 0.43 0.60 0.42 0.21 0.12 0.43 0.59 0.19 0.03 0.00 0.00 0.00 0.00 0.00 0.01 0.05 0.14 0.42 0.66 0.46 0.18 0.11 0.08 0.11 0.06 0.00 0.01 0.00 0.00 0.00 0.00 0.00 0.00 0.00 0.00 0.00 0.00 0.00
0.01 0.01 0.01 0.03 0.04 0.05 0.05 0.05 0.05 0.05 0.07 0.11 0.16 0.23 0.32 0.46 0.84 1.39 1.23 0.41 0.16 0.28 0.87 0.67 0.12 0.00 0.00 0.00 0.00 0.00 0.01 0.01 0.04 0.31 0.36 0.23 0.08 0.07 0.22 0.16 0.01 0.00 0.00 0.00 0.00 0.00 0.00 0.00 0.00 0.00 0.00 0.00 0.00 0.00
0.01 0.01 0.02 0.01 0.02 0.04 0.06 0.07 0.07 0.08 0.09 0.12 0.19 0.31 0.50 0.76 1.24 1.36 0.86 0.28 0.17 0.45 1.26 1.19 0.42 0.03 0.00 0.00 0.00 0.00 0.00 0.01 0.04 0.17 0.25 0.12 0.05 0.10 0.29 0.19 0.01 0.00 0.00 0.00 0.00 0.00 0.00 0.00 0.00 0.00 0.00 0.00 0.00 0.00
0.01 0.01 0.02 0.02 0.03 0.03 0.03 0.04 0.04 0.06 0.07 0.11 0.19 0.38 0.64 1.04 1.54 1.46 0.90 0.48 0.35 0.69 1.14 1.25 0.57 0.06 0.00 0.00 0.00 0.00 0.02 0.09 0.22 0.29 0.29 0.18 0.11 0.20 0.44 0.09 0.00 0.00 0.00 0.00 0.00 0.00 0.00 0.00 0.00 0.00 0.00 0.00 0.00 0.00
0.01 0.01 0.02 0.01 0.02 0.02 0.02 0.03 0.06 0.09 0.13 0.19 0.33 0.58 1.11 1.51 1.24 0.74 0.36 0.49 0.83 1.06 1.27 0.85 0.26 0.07 0.02 0.01 0.01 0.04 0.09 0.23 0.28 0.42 0.15 0.10 0.27 0.26 0.05 0.00 0.00 0.00 0.00 0.00 0.00 0.00 0.00 0.00 0.00 0.00 0.00 0.00 0.00 0.00
0.01 0.01 0.01 0.02 0.02 0.02 0.02 0.02 0.03 0.05 0.10 0.29 0.59 0.86 1.00 0.79 0.43 0.31 0.92 1.78 1.87 1.42 1.17 0.81 0.18 0.12 0.06 0.05 0.04 0.08 0.21 0.22 0.39 0.14 0.05 0.23 0.14 0.01 0.00 0.00 0.00 0.00 0.00 0.00 0.00 0.00 0.00 0.00 0.00 0.00 0.00 0.00 0.01 0.01
0.03 0.03 0.03 0.04 0.05 0.05 0.06 0.06 0.07 0.18 0.26 0.35 0.46 0.51 0.51 0.62 0.66 0.94 1.45 1.51 1.10 0.76 0.39 0.13 0.02 0.02 0.02 0.04 0.07 0.13 0.29 0.29 0.36 0.06 0.04 0.10 0.02 0.00 0.00 0.00 0.01 0.01 0.02 0.01 0.01 0.01 0.02 0.02 0.01 0.01 0.02 0.02 0.01 0.04
0.05 0.06 0.05 0.05 0.07 0.09 0.10 0.10 0.16 0.40 0.31 0.34 0.41 0.46 0.84 0.96 0.80 1.03 1.09 0.82 0.55 0.15 0.01 0.01 0.01 0.01 0.03 0.06 0.23 0.39 0.50 0.60 0.39 0.15 0.25 0.14 0.03 0.02 0.01 0.02 0.02 0.04 0.05 0.05 0.05 0.04 0.03 0.02 0.04 0.04 0.02 0.01 0.02 0.01
0.09 0.08 0.07 0.07 0.09 0.10 0.11 0.12 0.19 0.35 0.64 0.66 0.88 1.00 0.95 0.85 0.78 0.80 0.54 0.29 0.09 0.02 0.03 0.08 0.08 0.12 0.12 0.24 0.65 0.88 0.98 0.61 0.33 0.42 0.18 0.01 0.01 0.02 0.04 0.03 0.03 0.03 0.04 0.03 0.03 0.04 0.04 0.02 0.01 0.00 0.00 0.00 0.00 0.00
0.13 0.13 0.12 0.12 0.13 0.15 0.16 0.16 0.24 0.63 1.02 1.26 1.05 0.90 0.60 0.54 0.31 0.15 0.04 0.01 0.03 0.04 0.07 0.10 0.10 0.13 0.15 0.37 0.53 0.73 0.59 0.47 0.50 0.33 0.12 0.06 0.05 0.03 0.02 0.02 0.02 0.01 0.00 0.01 0.02 0.02 0.02 0.02 0.01 0.00 0.00 0.00 0.00 0.00
0.15 0.16 0.20 0.16 0.14 0.13 0.16 0.22 0.37 0.97 1.37 1.61 1.21 0.66 0.31 0.09 0.02 0.02 0.03 0.01 0.02 0.04 0.07 0.08 0.13 0.16 0.26 0.48 0.50 0.45 0.53 0.35 0.15 0.04 0.01 0.01 0.01 0.01 0.01 0.01 0.02 0.01 0.00 0.01 0.01 0.01 0.01 0.01 0.01 0.01 0.01 0.01 0.02 0.05
0.16 0.27 0.15 0.09 0.12 0.16 0.22 0.46 0.71 1.17 2.09 1.64 1.09 0.50 0.24 0.10 0.02 0.00 0.00 0.00 0.01 0.03 0.13 0.25 0.40 0.55 0.50 0.42 0.45 0.40 0.39 0.22 0.05 0.02 0.02 0.02 0.01 0.01 0.02 0.01 0.00 0.01 0.00 0.00 0.01 0.01 0.01 0.02 0.02 0.03 0.04 0.03 0.04 0.05
0.38 0.26 0.02 0.02 0.10 0.26 0.50 0.90 1.00 1.40 1.59 1.31 0.62 0.11 0.05 0.05 0.03 0.01 0.02 0.01 0.06 0.14 0.13 0.25 0.54 0.46 0.37 0.48 0.26 0.11 0.07 0.04 0.03 0.01 0.01 0.01 0.00 0.00 0.00 0.00 0.00 0.00 0.00 0.00 0.00 0.00 0.00 0.00 0.00 0.00 0.01 0.01 0.01 0.01
0.37 0.04 0.03 0.14 0.41 0.64 0.63 0.85 1.42 1.41 0.91 0.37 0.15 0.07 0.02 0.00 0.00 0.00 0.00 0.00 0.09 0.20 0.19 0.26 0.31 0.53 0.52 0.33 0.12 0.08 0.05 0.02 0.01 0.01 0.01 0.00 0.00 0.00 0.00 0.00 0.00 0.00 0.00 0.00 0.00 0.00 0.00 0.00 0.00 0.00 0.01 0.00 0.00 0.00
0.09 0.05 0.06 0.23 0.63 0.93 0.91 0.70 0.60 0.79 0.29 0.09 0.04 0.01 0.01 0.01 0.00 0.00 0.00 0.00 0.01 0.03 0.14 0.29 0.60 0.65 0.22 0.06 0.01 0.01 0.00 0.00 0.00 0.00 0.00 0.00 0.00 0.00 0.00 0.00 0.00 0.00 0.00 0.00 0.00 0.00 0.00 0.00 0.00 0.00 0.00 0.00 0.00 0.00
0.35 0.33 0.28 0.31 0.84 1.40 1.58 0.86 0.54 0.37 0.15 0.03 0.01 0.00 0.00 0.00 0.00 0.00 0.00 0.00 0.00 0.09 0.34 0.51 0.34 0.12 0.02 0.00 0.00 0.00 0.00 0.00 0.01 0.00 0.00 0.00 0.00 0.00 0.00 0.00 0.00 0.01 0.01 0.01 0.00 0.00 0.00 0.00 0.00 0.00 0.00 0.00 0.00 0.00
0.46 0.23 0.42 0.71 1.05 1.45 1.37 0.59 0.46 0.24 0.09 0.06 0.01 0.01 0.02 0.03 0.02 0.02 0.01 0.01 0.12 0.28 0.26 0.10 0.02 0.00 0.00 0.00 0.00 0.00 0.00 0.00 0.00 0.00 0.00 0.00 0.00 0.01 0.01 0.01 0.01 0.01 0.01 0.01 0.02 0.03 0.03 0.02 0.02 0.03 0.02 0.02 0.02 0.01
0.23 0.24 0.46 0.63 1.33 1.45 1.23 0.57 0.36 0.17 0.13 0.09 0.04 0.04 0.08 0.08 0.07 0.05 0.07 0.21 0.21 0.09 0.02 0.00 0.00 0.00 0.00 0.00 0.00 0.00 0.00 0.01 0.01 0.00 0.00 0.00 0.00 0.01 0.01 0.01 0.02 0.03 0.03 0.03 0.04 0.05 0.06 0.07 0.08 0.07 0.06 0.05 0.05 0.03
0.52 0.52 0.86 0.75 0.99 1.01 0.69 0.22 0.23 0.21 0.22 0.19 0.11 0.11 0.12 0.07 0.04 0.03 0.13 0.12 0.05 0.00 0.00 0.00 0.00 0.00 0.00 0.00 0.00 0.00 0.00 0.00 0.03 0.03 0.01 0.00 0.00 0.01 0.01 0.01 0.02 0.03 0.05 0.05 0.06 0.08 0.09 0.07 0.06 0.04 0.04 0.07 0.09 0.11
1.24 1.07 1.03 1.06 0.69 0.47 0.29 0.26 0.20 0.15 0.17 0.15 0.14 0.13 0.08 0.05 0.09 0.13 0.08 0.01 0.00 0.00 0.00 0.00 0.00 0.00 0.01 0.02 0.01 0.01 0.01 0.02 0.07 0.06 0.01 0.01 0.03 0.01 0.00 0.00 0.00 0.00 0.01 0.02 0.05 0.06 0.06 0.05 0.04 0.03 0.03 0.08 0.14 0.16
1.90 1.65 0.87 0.69 0.46 0.32 0.18 0.11 0.12 0.13 0.12 0.08 0.09 0.09 0.06 0.08 0.15 0.11 0.03 0.00 0.00 0.00 0.01 0.02 0.04 0.07 0.14 0.12 0.05 0.04 0.03 0.07 0.23 0.21 0.07 0.02 0.07 0.08 0.04 0.01 0.01 0.00 0.01 0.12 0.15 0.07 0.07 0.09 0.12 0.09 0.08 0.10 0.16 0.22
1.31 0.58 0.69 0.28 0.12 0.04 0.03 0.03 0.02 0.02 0.03 0.03 0.03 0.03 0.04 0.09 0.11 0.04 0.00 0.01 0.01 0.03 0.05 0.07 0.09 0.11 0.11 0.09 0.13 0.12 0.07 0.04 0.16 0.28 0.14 0.02 0.05 0.10 0.08 0.05 0.04 0.01 0.02 0.14 0.14 0.08 0.06 0.08 0.14 0.16 0.19 0.20 0.26 0.29
0.63 0.37 0.28 0.12 0.06 0.04 0.03 0.02 0.01 0.04 0.06 0.05 0.03 0.04 0.13 0.20 0.08 0.00 0.01 0.01 0.02 0.02 0.02 0.03 0.09 0.15 0.14 0.07 0.04 0.04 0.05 0.06 0.08 0.11 0.04 0.02 0.03 0.03 0.13 0.22 0.11 0.02 0.03 0.14 0.13 0.08 0.07 0.08 0.12 0.16 0.19 0.22 0.22 0.18
0.18 0.07 0.07 0.04 0.03 0.02 0.04 0.06 0.07 0.07 0.06 0.03 0.04 0.09 0.13 0.07 0.01 0.00 0.00 0.00 0.00 0.00 0.01 0.03 0.05 0.05 0.06 0.05 0.07 0.09 0.06 0.04 0.04 0.03 0.03 0.01 0.01 0.06 0.11 0.12 0.11 0.19 0.22 0.24 0.23 0.15 0.12 0.10 0.10 0.12 0.15 0.16 0.19 0.19
0.12 0.02 0.03 0.08 0.12 0.14 0.14 0.08 0.04 0.01 0.01 0.03 0.08 0.06 0.02 0.00 0.00 0.00 0.00 0.00 0.00 0.00 0.01 0.04 0.08 0.12 0.13 0.11 0.08 0.08 0.12 0.18 0.23 0.12 0.04 0.04 0.05 0.05 0.14 0.16 0.19 0.24 0.24 0.25 0.31 0.22 0.16 0.16 0.15 0.15 0.14 0.16 0.17 0.22
0.02 0.03 0.06 0.07 0.07 0.05 0.02 0.02 0.02 0.03 0.06 0.09 0.10 0.08 0.02 0.00 0.00 0.00 0.01 0.01 0.02 0.03 0.06 0.12 0.14 0.14 0.11 0.09 0.07 0.08 0.17 0.23 0.23 0.24 0.17 0.12 0.10 0.10 0.12 0.12 0.13 0.18 0.22 0.21 0.20 0.26 0.30 0.25 0.26 0.25 0.26 0.27 0.26 0.27
0.01 0.03 0.05 0.06 0.06 0.03 0.03 0.04 0.06 0.09 0.11 0.10 0.09 0.09 0.04 0.02 0.01 0.00 0.00 0.01 0.01 0.03 0.08 0.10 0.10 0.13 0.15 0.09 0.11 0.09 0.09 0.13 0.16 0.17 0.18 0.17 0.16 0.16 0.15 0.14 0.14 0.15 0.17 0.17 0.17 0.16 0.17 0.16 0.13 0.15 0.15 0.13 0.14 0.12
0.02 0.03 0.02 0.03 0.03 0.04 0.06 0.08 0.08 0.08 0.07 0.07 0.07 0.07 0.06 0.07 0.04 0.00 0.01 0.05 0.10 0.12 0.14 0.13 0.11 0.09 0.10 0.08 0.07 0.07 0.06 0.05 0.05 0.06 0.07 0.09 0.10 0.09 0.08 0.08 0.09 0.12 0.14 0.14 0.13 0.12 0.12 0.13 0.15 0.14 0.14 0.15 0.14 0.13
0.02 0.03 0.04 0.05 0.06 0.06 0.06 0.08 0.09 0.07 0.03 0.02 0.01 0.02 0.04 0.10 0.10 0.03 0.07 0.08 0.08 0.08 0.06 0.04 0.05 0.08 0.09 0.09 0.08 0.06 0.05 0.03 0.02 0.03 0.05 0.06 0.07 0.07 0.07 0.07 0.06 0.06 0.11 0.17 0.18 0.12 0.09 0.10 0.10 0.10 0.09 0.09 0.11 0.12

GFSWCAN_prec_precacc24_153.txt.gz
Total_Precipitation_Accumulation
0.01 0.01 0.01 0.01 0.02 0.03 0.03 0.02 0.02 0.02 0.02 0.03 0.04 0.06 0.08 0.12 0.20 0.26 0.08 0.05 0.19 0.25 0.10 0.03 0.02 0.03 0.03 0.03 0.04 0.03 0.08 0.04 0.04 0.05 0.05 0.02 0.03 0.01 0.01 0.00 0.00 0.00 0.01 0.02 0.02 0.03 0.01 0.00 0.00 0.00 0.00 0.00 0.00 0.00
0.00 0.00 0.01 0.01 0.01 0.01 0.01 0.01 0.01 0.01 0.02 0.02 0.03 0.06 0.08 0.13 0.23 0.33 0.18 0.04 0.14 0.34 0.17 0.03 0.02 0.02 0.02 0.02 0.07 0.11 0.14 0.11 0.15 0.15 0.13 0.11 0.08 0.05 0.04 0.03 0.00 0.02 0.02 0.01 0.01 0.01 0.00 0.00 0.00 0.00 0.00 0.00 0.00 0.00
0.01 0.01 0.01 0.00 0.00 0.00 0.00 0.01 0.01 0.01 0.02 0.01 0.02 0.06 0.11 0.13 0.23 0.40 0.19 0.11 0.27 0.39 0.15 0.02 0.01 0.00 0.00 0.00 0.01 0.07 0.08 0.06 0.07 0.08 0.24 0.28 0.26 0.12 0.08 0.03 0.00 0.00 0.00 0.01 0.00 0.00 0.00 0.00 0.00 0.00 0.00 0.00 0.00 0.00
0.01 0.01 0.01 0.00 0.00 0.00 0.01 0.00 0.01 0.02 0.03 0.03 0.03 0.04 0.09 0.15 0.22 0.38 0.27 0.10 0.23 0.55 0.33 0.05 0.00 0.00 0.00 0.00 0.01 0.03 0.08 0.09 0.23 0.30 0.57 0.60 0.37 0.13 0.09 0.03 0.02 0.01 0.03 0.03 0.00 0.00 0.00 0.00 0.00 0.00 0.00 0.00 0.00 0.00
0.00 0.00 0.01 0.01 0.01 0.01 0.02 0.02 0.03 0.02 0.02 0.03 0.04 0.05 0.08 0.16 0.26 0.43 0.35 0.19 0.12 0.43 0.59 0.19 0.03 0.00 0.00 0.00 0.00 0.00 0.01 0.05 0.16 0.45 0.70 0.49 0.22 0.15 0.11 0.13 0.08 0.00 0.01 0.00 0.00 0.00 0.00 0.01 0.00 0.00 0.00 0.00 0.00 0.00
0.01 0.01 0.01 0.01 0.02 0.01 0.01 0.03 0.04 0.05 0.05 0.07 0.08 0.09 0.11 0.20 0.48 0.99 1.00 0.35 0.15 0.29 0.87 0.68 0.12 0.00 0.00 0.00 0.00 0.00 0.01 0.01 0.04 0.32 0.38 0.26 0.11 0.12 0.29 0.17 0.01 0.00 0.00 0.00 0.00 0.00 0.00 0.00 0.00 0.00 0.00 0.00 0.00 0.00
0.01 0.01 0.02 0.01 0.02 0.02 0.02 0.02 0.02 0.04 0.09 0.10 0.11 0.13 0.17 0.32 0.75 1.01 0.71 0.26 0.18 0.42 1.19 1.18 0.42 0.03 0.00 0.00 0.00 0.00 0.00 0.01 0.04 0.17 0.25 0.12 0.05 0.14 0.34 0.22 0.01 0.00 0.00 0.00 0.00 0.00 0.00 0.00 0.00 0.00 0.00 0.00 0.00 0.00
0.01 0.01 0.02 0.02 0.03 0.03 0.03 0.03 0.02 0.02 0.04 0.07 0.09 0.13 0.19 0.42 0.87 1.02 0.69 0.39 0.37 0.65 1.06 1.22 0.57 0.06 0.00 0.00 0.00 0.00 0.02 0.09 0.22 0.30 0.29 0.19 0.14 0.27 0.53 0.12 0.00 0.00 0.00 0.00 0.00 0.00 0.00 0.00 0.00 0.00 0.00 0.00 0.00 0.00
0.00 0.01 0.02 0.01 0.02 0.02 0.02 0.03 0.03 0.03 0.04 0.08 0.17 0.18 0.23 0.53 0.65 0.46 0.25 0.40 0.74 0.94 1.16 0.82 0.26 0.07 0.02 0.01 0.01 0.04 0.09 0.23 0.28 0.42 0.15 0.13 0.28 0.28 0.06 0.00 0.00 0.00 0.00 0.01 0.00 0.00 0.00 0.00 0.00 0.00 0.00 0.00 0.00 0.00
0.01 0.01 0.01 0.02 0.02 0.02 0.02 0.03 0.04 0.04 0.07 0.20 0.19 0.16 0.27 0.30 0.25 0.26 0.71 1.33 1.47 1.24 1.10 0.79 0.18 0.12 0.06 0.05 0.04 0.08 0.20 0.22 0.40 0.14 0.06 0.25 0.14 0.01 0.00 0.00 0.00 0.00 0.01 0.01 0.02 0.01 0.00 0.00 0.00 0.00 0.00 0.00 0.01 0.01
0.03 0.03 0.03 0.04 0.05 0.06 0.06 0.07 0.08 0.19 0.26 0.18 0.09 0.10 0.13 0.31 0.39 0.60 0.97 1.08 0.87 0.71 0.40 0.13 0.02 0.02 0.02 0.04 0.07 0.13 0.28 0.30 0.38 0.06 0.05 0.10 0.02 0.00 0.00 0.01 0.02 0.02 0.03 0.03 0.02 0.02 0.02 0.02 0.01 0.01 0.02 0.02 0.01 0.04
0.05 0.05 0.04 0.05 0.07 0.10 0.10 0.10 0.17 0.41 0.26 0.20 0.22 0.16 0.24 0.36 0.35 0.56 0.70 0.61 0.47 0.14 0.01 0.01 0.01 0.02 0.04 0.09 0.32 0.42 0.49 0.57 0.40 0.18 0.30 0.16 0.04 0.02 0.02 0.02 0.03 0.04 0.05 0.05 0.05 0.04 0.04 0.04 0.05 0.05 0.02 0.01 0.02 0.01
0.09 0.07 0.07 0.07 0.09 0.11 0.11 0.13 0.20 0.33 0.67 0.57 0.74 0.77 0.57 0.44 0.43 0.47 0.34 0.24 0.09 0.02 0.03 0.09 0.10 0.14 0.16 0.29 0.62 0.74 0.85 0.58 0.36 0.44 0.24 0.03 0.01 0.05 0.08 0.05 0.03 0.03 0.04 0.03 0.04 0.05 0.04 0.02 0.01 0.00 0.00 0.00 0.00 0.00
0.11 0.11 0.10 0.11 0.13 0.15 0.16 0.18 0.25 0.63 0.97 1.19 0.92 0.68 0.31 0.25 0.16 0.04 0.02 0.01 0.03 0.04 0.07 0.11 0.11 0.14 0.14 0.35 0.41 0.61 0.51 0.45 0.50 0.33 0.12 0.06 0.05 0.04 0.04 0.02 0.02 0.01 0.00 0.01 0.02 0.02 0.02 0.02 0.01 0.00 0.00 0.00 0.00 0.00
0.13 0.14 0.18 0.15 0.13 0.14 0.17 0.22 0.39 1.01 1.28 1.45 0.95 0.48 0.18 0.02 0.01 0.02 0.03 0.02 0.03 0.05 0.08 0.10 0.13 0.14 0.21 0.40 0.41 0.41 0.48 0.34 0.15 0.04 0.01 0.01 0.01 0.01 0.01 0.01 0.02 0.01 0.00 0.01 0.01 0.01 0.01 0.01 0.01 0.01 0.01 0.01 0.02 0.05
0.15 0.23 0.13 0.09 0.12 0.17 0.26 0.51 0.75 1.15 2.00 1.48 0.93 0.26 0.09 0.06 0.01 0.01 0.01 0.00 0.02 0.04 0.15 0.27 0.42 0.51 0.42 0.38 0.42 0.40 0.40 0.22 0.05 0.02 0.02 0.02 0.01 0.01 0.02 0.01 0.00 0.01 0.00 0.00 0.01 0.01 0.01 0.02 0.02 0.03 0.04 0.03 0.04 0.05
0.34 0.24 0.02 0.02 0.09 0.27 0.55 0.92 0.98 1.32 1.37 0.95 0.38 0.04 0.03 0.04 0.03 0.02 0.02 0.01 0.07 0.16 0.15 0.28 0.54 0.45 0.36 0.47 0.26 0.11 0.07 0.04 0.03 0.01 0.01 0.01 0.00 0.00 0.00 0.00 0.00 0.00 0.00 0.00 0.00 0.00 0.00 0.00 0.00 0.00 0.01 0.01 0.01 0.01
0.33 0.04 0.03 0.14 0.42 0.64 0.64 0.85 1.38 1.30 0.80 0.23 0.05 0.01 0.01 0.01 0.00 0.00 0.00 0.00 0.09 0.21 0.21 0.28 0.32 0.48 0.49 0.33 0.12 0.08 0.05 0.02 0.01 0.01 0.01 0.00 0.00 0.00 0.00 0.00 0.00 0.00 0.00 0.00 0.00 0.00 0.00 0.00 0.00 0.00 0.01 0.00 0.00 0.00
0.08 0.04 0.06 0.22 0.63 0.91 0.94 0.72 0.55 0.66 0.21 0.06 0.03 0.01 0.00 0.00 0.00 0.00 0.00 0.00 0.01 0.04 0.16 0.33 0.58 0.54 0.20 0.06 0.01 0.01 0.00 0.00 0.00 0.00 0.00 0.00 0.00 0.00 0.00 0.00 0.00 0.00 0.00 0.00 0.00 0.00 0.00 0.00 0.00 0.00 0.00 0.00 0.00 0.00
0.32 0.32 0.27 0.31 0.83 1.35 1.53 0.85 0.50 0.26 0.08 0.01 0.00 0.00 0.00 0.00 0.00 0.00 0.00 0.00 0.00 0.08 0.29 0.40 0.27 0.11 0.02 0.00 0.00 0.00 0.00 0.00 0.01 0.00 0.00 0.00 0.00 0.00 0.00 0.00 0.00 0.01 0.01 0.01 0.00 0.00 0.00 0.00 0.00 0.00 0.00 0.00 0.00 0.00
0.44 0.22 0.44 0.71 1.07 1.51 1.32 0.51 0.40 0.21 0.07 0.03 0.00 0.01 0.01 0.01 0.00 0.00 0.00 0.01 0.05 0.11 0.12 0.06 0.01 0.00 0.00 0.00 0.00 0.00 0.00 0.00 0.00 0.00 0.00 0.00 0.00 0.01 0.01 0.01 0.01 0.01 0.01 0.01 0.02 0.03 0.03 0.02 0.02 0.03 0.02 0.02 0.02 0.01
0.21 0.24 0.43 0.60 1.36 1.46 1.25 0.62 0.37 0.16 0.11 0.07 0.02 0.02 0.03 0.04 0.04 0.02 0.03 0.08 0.06 0.03 0.01 0.00 0.00 0.00 0.00 0.00 0.00 0.00 0.00 0.00 0.01 0.00 0.00 0.00 0.00 0.01 0.01 0.01 0.02 0.03 0.03 0.03 0.04 0.05 0.06 0.07 0.08 0.07 0.07 0.06 0.05 0.03
0.51 0.49 0.81 0.65 0.86 0.87 0.62 0.17 0.18 0.15 0.16 0.12 0.05 0.04 0.03 0.02 0.01 0.02 0.06 0.04 0.02 0.00 0.00 0.00 0.00 0.00 0.00 0.00 0.00 0.00 0.00 0.00 0.03 0.03 0.01 0.00 0.00 0.01 0.01 0.01 0.02 0.03 0.05 0.05 0.06 0.08 0.09 0.07 0.06 0.05 0.07 0.08 0.09 0.11
1.24 1.08 1.03 1.06 0.60 0.39 0.23 0.19 0.13 0.08 0.10 0.08 0.07 0.05 0.03 0.01 0.04 0.09 0.06 0.00 0.00 0.00 0.00 0.00 0.00 0.00 0.01 0.01 0.01 0.01 0.01 0.02 0.07 0.06 0.01 0.01 0.03 0.01 0.00 0.00 0.00 0.00 0.01 0.02 0.05 0.06 0.06 0.05 0.05 0.05 0.05 0.07 0.11 0.15
1.96 1.71 0.83 0.67 0.43 0.27 0.15 0.09 0.09 0.08 0.09 0.04 0.06 0.06 0.02 0.04 0.11 0.09 0.02 0.00 0.00 0.00 0.01 0.02 0.04 0.07 0.14 0.12 0.05 0.04 0.03 0.07 0.23 0.21 0.07 0.02 0.07 0.08 0.04 0.01 0.01 0.00 0.01 0.14 0.18 0.09 0.09 0.10 0.13 0.11 0.08 0.07 0.11 0.15
1.18 0.55 0.69 0.28 0.12 0.04 0.03 0.02 0.01 0.01 0.02 0.03 0.02 0.01 0.02 0.08 0.10 0.04 0.00 0.01 0.01 0.03 0.05 0.07 0.09 0.11 0.11 0.09 0.13 0.12 0.07 0.04 0.16 0.28 0.14 0.02 0.05 0.10 0.08 0.05 0.04 0.01 0.02 0.21 0.23 0.13 0.07 0.06 0.11 0.11 0.11 0.10 0.16 0.23
0.55 0.31 0.23 0.10 0.06 0.03 0.02 0.01 0.00 0.02 0.04 0.02 0.01 0.02 0.09 0.16 0.06 0.00 0.01 0.01 0.02 0.02 0.02 0.03 0.09 0.15 0.14 0.07 0.04 0.04 0.05 0.06 0.08 0.11 0.04 0.02 0.03 0.04 0.16 0.30 0.17 0.04 0.05 0.24 0.24 0.14 0.09 0.06 0.08 0.09 0.11 0.15 0.19 0.16
0.13 0.04 0.04 0.03 0.03 0.01 0.02 0.03 0.03 0.04 0.02 0.01 0.03 0.07 0.10 0.04 0.00 0.00 0.00 0.00 0.00 0.00 0.01 0.03 0.05 0.05 0.06 0.05 0.07 0.09 0.06 0.04 0.04 0.03 0.03 0.01 0.01 0.11 0.18 0.19 0.16 0.23 0.26 0.29 0.29 0.21 0.15 0.09 0.07 0.07 0.12 0.16 0.19 0.19
0.09 0.01 0.01 0.03 0.07 0.08 0.08 0.05 0.02 0.01 0.01 0.02 0.07 0.05 0.02 0.00 0.00 0.00 0.00 0.00 0.00 0.00 0.01 0.04 0.08 0.12 0.13 0.11 0.08 0.08 0.12 0.19 0.26 0.15 0.05 0.04 0.06 0.09 0.21 0.23 0.25 0.29 0.29 0.29 0.34 0.29 0.22 0.17 0.13 0.14 0.14 0.16 0.17 0.23
0.01 0.00 0.01 0.02 0.03 0.03 0.01 0.01 0.01 0.03 0.06 0.09 0.10 0.08 0.02 0.00 0.00 0.00 0.01 0.01 0.02 0.03 0.06 0.13 0.15 0.17 0.13 0.10 0.08 0.08 0.17 0.27 0.28 0.29 0.20 0.13 0.13 0.13 0.16 0.18 0.19 0.23 0.26 0.24 0.23 0.27 0.32 0.27 0.25 0.26 0.28 0.27 0.26 0.28
0.00 0.00 0.01 0.04 0.04 0.03 0.03 0.04 0.06 0.09 0.11 0.10 0.09 0.09 0.04 0.02 0.01 0.00 0.00 0.02 0.03 0.05 0.12 0.13 0.13 0.18 0.19 0.10 0.12 0.10 0.09 0.14 0.17 0.19 0.21 0.20 0.18 0.19 0.17 0.17 0.19 0.19 0.20 0.21 0.22 0.23 0.23 0.20 0.15 0.15 0.14 0.12 0.14 0.14
0.00 0.01 0.02 0.03 0.03 0.04 0.06 0.08 0.08 0.08 0.07 0.07 0.07 0.07 0.06 0.07 0.04 0.00 0.01 0.09 0.16 0.18 0.19 0.18 0.14 0.11 0.13 0.12 0.10 0.10 0.08 0.06 0.06 0.08 0.11 0.13 0.12 0.10 0.09 0.09 0.08 0.12 0.15 0.17 0.17 0.16 0.15 0.15 0.15 0.14 0.14 0.16 0.15 0.15
0.02 0.03 0.04 0.05 0.06 0.06 0.05 0.08 0.09 0.07 0.03 0.02 0.01 0.02 0.04 0.10 0.10 0.05 0.09 0.12 0.13 0.11 0.07 0.05 0.05 0.09 0.11 0.12 0.12 0.10 0.09 0.06 0.04 0.05 0.06 0.07 0.07 0.07 0.06 0.05 0.05 0.05 0.09 0.17 0.21 0.15 0.10 0.10 0.11 0.11 0.10 0.10 0.13 0.15